[[{"header":{"parameterUnit":"m.s-1","parameterCategory":1,"la1":30.6,"la2":28.766,"lo1":-90.7593,"lo2":-88.6598,"dy":0.0162,"dx":0.0183,"nx":116,"ny":114,"refTime":"2023-06-20T06:00:00:Z","depth":0,"parameterNumber":2,"parameterNumberName":"U-component_of_WINDS"},"data":[0.0,0.0,0.0,0.0,0.0,0.0,0.0,0.0,0.0,0.0,0.0,0.0,0.0,0.0,0.0,0.0,0.0,0.0,0.0,0.0,0.0,0.0,0.0,0.0,0.0,0.0,0.0,0.0,0.0,0.0,0.0,0.0,0.0,0.0,0.0,0.0,0.0,0.0,0.0,0.0,0.0,0.0,0.0,0.0,0.0,0.0,0.0,0.0,0.0,0.0,0.0,0.0,0.0,0.0,0.0,0.0,0.0,0.0,0.0,0.0,0.0,0.0,0.0,0.0,0.0,0.0,0.0,0.0,0.0,0.0,0.0,0.0,0.0,0.0,0.0,0.0,0.0,0.0,0.0,0.0,0.0,0.0,0.0,0.0,0.0,0.0,0.0,0.0,0.0,0.0,0.0,0.0,0.0,0.0,0.0,0.0,0.0,0.0,0.0,0.0,0.0,0.0,0.0,0.0,0.0,0.0,0.0,0.0,0.0,0.0,0.0,0.0,0.0,0.0,0.0,0.0,0.0,0.0,0.0,0.0,0.0,0.0,0.0,0.0,0.0,0.0,0.0,0.0,0.0,0.0,0.0,0.0,0.0,0.0,0.0,0.0,0.0,0.0,0.0,0.0,0.0,0.0,0.0,0.0,0.0,0.0,0.0,0.0,0.0,0.0,0.0,0.0,0.0,0.0,0.0,0.0,0.0,0.0,0.0,0.0,0.0,0.0,0.0,0.0,0.0,0.0,0.0,0.0,0.0,0.0,0.0,0.0,0.0,0.0,0.0,0.0,0.0,0.0,0.0,0.0,0.0,0.0,0.0,0.0,0.0,0.0,0.0,0.0,0.0,0.0,0.0,0.0,0.0,0.0,0.0,0.0,0.0,0.0,0.0,0.0,0.0,0.0,0.0,0.0,0.0,0.0,0.0,0.0,0.0,0.0,0.0,0.0,0.0,0.0,0.0,0.0,0.0,0.0,0.0,0.0,0.0,0.0,0.0,0.0,0.0,0.0,0.0,0.0,0.0,0.0,0.0,0.0,0.0,0.0,0.0,0.0,0.0,0.0,0.0,0.0,0.0,0.0,0.0,0.0,0.0,0.0,0.0,0.0,0.0,0.0,0.0,0.0,0.0,0.0,0.0,0.0,0.0,0.0,0.0,0.0,0.0,0.0,0.0,0.0,0.0,0.0,0.0,0.0,0.0,0.0,0.0,0.0,0.0,0.0,0.0,0.0,0.0,0.0,0.0,0.0,0.0,0.0,0.0,0.0,0.0,0.0,0.0,0.0,0.0,0.0,0.0,0.0,0.0,0.0,0.0,0.0,0.0,0.0,0.0,0.0,0.0,0.0,0.0,0.0,0.0,0.0,0.0,0.0,0.0,0.0,0.0,0.0,0.0,0.0,0.0,0.0,0.0,0.0,0.0,0.0,0.0,0.0,0.0,0.0,0.0,0.0,0.0,0.0,0.0,0.0,0.0,0.0,0.0,0.0,0.0,0.0,0.0,0.0,0.0,0.0,0.0,0.0,0.0,0.0,0.0,0.0,0.0,0.0,0.0,0.0,0.0,0.0,0.0,0.0,0.0,0.0,0.0,0.0,0.0,0.0,0.0,0.0,0.0,0.0,0.0,0.0,0.0,0.0,0.0,0.0,0.0,0.0,0.0,0.0,0.0,0.0,0.0,0.0,0.0,0.0,0.0,0.0,0.0,0.0,0.0,0.0,0.0,0.0,0.0,0.0,0.0,0.0,0.0,0.0,0.0,0.0,0.0,0.0,0.0,0.0,0.0,0.0,0.0,0.0,0.0,0.0,0.0,0.0,0.0,0.0,0.0,0.0,0.0,0.0,0.0,0.0,0.0,0.0,0.0,0.0,0.0,0.0,0.0,0.0,0.0,0.0,0.0,0.0,0.0,0.0,0.0,0.0,0.0,0.0,0.0,0.0,0.0,0.0,0.0,0.0,0.0,0.0,0.0,0.0,0.0,0.0,0.0,0.0,0.0,0.0,0.0,0.0,0.0,0.0,0.0,0.0,0.0,0.0,0.0,0.0,0.0,0.0,0.0,0.0,0.0,0.0,0.0,0.0,0.0,0.0,0.0,0.0,0.0,0.0,0.0,0.0,0.0,0.0,0.0,0.0,0.0,0.0,0.0,0.0,0.0,0.0,0.0,0.0,0.0,0.0,0.0,0.0,0.0,0.0,0.0,0.0,0.0,0.0,0.0,0.0,0.0,0.0,0.0,0.0,0.0,0.0,0.0,0.0,0.0,0.0,0.0,0.0,0.0,0.0,0.0,0.0,0.0,0.0,0.0,0.0,0.0,0.0,0.0,0.0,0.0,0.0,0.0,0.0,0.0,0.0,0.0,0.0,0.0,0.0,0.0,0.0,0.0,0.0,0.0,0.0,0.0,0.0,0.0,0.0,0.0,0.0,0.0,0.0,0.0,0.0,0.0,0.0,0.0,0.0,0.0,0.0,0.0,0.0,0.0,0.0,0.0,0.0,0.0,0.0,0.0,0.0,0.0,0.0,0.0,0.0,0.0,0.0,0.0,0.0,0.0,0.0,0.0,0.0,0.0,0.0,0.0,0.0,0.0,0.0,0.0,0.0,0.0,0.0,0.0,0.0,0.0,0.0,0.0,0.0,0.0,0.0,0.0,0.0,0.0,0.0,0.0,0.0,0.0,0.0,0.0,0.0,0.0,0.0,0.0,0.0,0.0,0.0,0.0,0.0,0.0,0.0,0.0,0.0,0.0,0.0,0.0,0.0,0.0,0.0,0.0,0.0,0.0,0.0,0.0,0.0,0.0,0.0,0.0,0.0,0.0,0.0,0.0,0.0,0.0,0.0,0.0,0.0,0.0,0.0,0.0,0.0,0.0,0.0,0.0,0.0,0.0,0.0,0.0,0.0,0.0,0.0,0.0,0.0,0.0,0.0,0.0,0.0,0.0,0.0,0.0,0.0,0.0,0.0,0.0,0.0,0.0,0.0,0.0,0.0,0.0,0.0,0.0,0.0,0.0,0.0,0.0,0.0,0.0,0.0,0.0,0.0,0.0,0.0,0.0,0.0,0.0,0.0,0.0,0.0,0.0,0.0,0.0,0.0,0.0,0.0,0.0,0.0,0.0,0.0,0.0,0.0,0.0,0.0,0.0,0.0,0.0,0.0,0.0,0.0,0.0,0.0,0.0,0.0,0.0,0.0,0.0,0.0,0.0,0.0,0.0,0.0,0.0,0.0,0.0,0.0,0.0,0.0,0.0,0.0,0.0,0.0,0.0,0.0,0.0,0.0,0.0,0.0,0.0,0.0,0.0,0.0,0.0,0.0,0.0,0.0,0.0,0.0,0.0,0.0,0.0,0.0,0.0,0.0,0.0,0.0,0.0,0.0,0.0,0.0,0.0,0.0,0.0,0.0,0.0,0.0,0.0,0.0,0.0,0.0,0.0,0.0,0.0,0.0,0.0,0.0,0.0,0.0,0.0,0.0,0.0,0.0,0.0,0.0,0.0,0.0,0.0,0.0,0.0,0.0,0.0,0.0,0.0,0.0,0.0,0.0,0.0,0.0,0.0,0.0,0.0,0.0,0.0,0.0,0.0,0.0,0.0,0.0,0.0,0.0,0.0,0.0,0.0,0.0,0.0,0.0,0.0,0.0,0.0,0.0,0.0,0.0,0.0,0.0,0.0,0.0,0.0,0.0,0.0,0.0,0.0,0.0,0.0,0.0,0.0,0.0,0.0,0.0,0.0,0.0,0.0,0.0,0.0,0.0,0.0,0.0,0.0,0.0,0.0,0.0,0.0,0.0,0.0,0.0,0.0,0.0,0.0,0.0,0.0,0.0,0.0,0.0,0.0,0.0,0.0,0.0,0.0,0.0,0.0,0.0,0.0,0.0,0.0,0.0,0.0,0.0,0.0,0.0,0.0,0.0,0.0,0.0,0.0,0.0,0.0,0.0,0.0,0.0,0.0,0.0,0.0,0.0,0.0,0.0,0.0,0.0,0.0,0.0,0.0,0.0,0.0,0.0,0.0,0.0,0.0,0.0,0.0,0.0,0.0,0.0,0.0,0.0,0.0,0.0,0.0,0.0,0.0,0.0,0.0,0.0,0.0,0.0,0.0,0.0,0.0,0.0,0.0,0.0,0.0,0.0,0.0,0.0,0.0,0.0,0.0,0.0,0.0,0.0,0.0,0.0,0.0,0.0,0.0,0.0,0.0,0.0,0.0,0.0,0.0,0.0,0.0,0.0,0.0,0.0,0.0,0.0,0.0,0.0,0.0,0.0,0.0,0.0,0.0,0.0,0.0,0.0,0.0,0.0,0.0,0.0,0.0,0.0,0.0,0.0,0.0,0.0,0.0,0.0,0.0,0.0,0.0,0.0,0.0,0.0,0.0,0.0,0.0,0.0,0.0,0.0,0.0,0.0,0.0,0.0,0.0,0.0,0.0,0.0,0.0,0.0,0.0,0.0,0.0,0.0,0.0,0.0,0.0,0.0,0.0,0.0,0.0,0.0,0.0,0.0,0.0,0.0,0.0,0.0,0.0,0.0,0.0,0.0,0.0,0.0,0.0,0.0,0.0,0.0,0.0,0.0,0.0,0.0,0.0,0.0,0.0,0.0,0.0,0.0,0.0,0.0,0.0,0.0,0.0,0.0,0.0,0.0,0.0,0.0,0.0,0.0,0.0,0.0,0.0,0.0,0.0,0.0,0.0,0.0,0.0,0.0,0.0,0.0,0.0,0.0,0.0,0.0,0.0,0.0,0.0,0.0,0.0,0.0,0.0,0.0,0.0,0.0,0.0,0.0,0.0,0.0,0.0,0.0,0.0,0.0,0.0,0.0,0.0,0.0,0.0,0.0,0.0,0.0,0.0,0.0,0.0,0.0,0.0,0.0,0.0,0.0,0.0,0.0,0.0,0.0,0.0,0.0,0.0,0.0,0.0,0.0,0.0,0.0,0.0,0.0,0.0,0.0,0.0,0.0,0.0,0.0,0.0,0.0,0.0,0.0,0.0,0.0,0.0,0.0,0.0,0.0,0.0,0.0,0.0,0.0,0.0,0.0,0.0,0.0,0.0,0.0,0.0,0.0,0.0,0.0,0.0,0.0,0.0,0.0,0.0,0.0,0.0,0.0,0.0,0.0,0.0,0.0,0.0,0.0,0.0,0.0,0.0,0.0,0.0,0.0,0.0,0.0,0.0,0.0,0.0,0.0,0.0,0.0,0.0,0.0,0.0,0.0,0.0,0.0,0.0,0.0,0.0,0.0,0.0,0.0,0.0,0.0,0.0,0.0,0.0,0.0,0.0,0.0,0.0,0.0,0.0,0.0,0.0,0.0,0.0,0.0,0.0,0.0,0.0,0.0,0.0,0.0,0.0,0.0,0.0,0.0,0.0,0.0,0.0,0.0,0.0,0.0,0.0,0.0,0.0,0.0,0.0,0.0,0.0,0.0,0.0,0.0,0.0,0.0,0.0,0.0,0.0,0.0,0.0,0.0,0.0,0.0,0.0,0.0,0.0,0.0,0.0,0.0,0.0,0.0,0.0,0.0,0.0,0.0,0.0,0.0,0.0,0.0,0.0,0.0,0.0,0.0,0.0,0.0,0.0,0.0,0.0,0.0,0.0,0.0,0.0,0.0,0.0,0.0,0.0,0.0,0.0,0.0,0.0,0.0,0.0,0.0,0.0,0.0,0.0,0.0,0.0,0.0,0.0,0.0,0.0,0.0,0.0,0.0,0.0,0.0,0.0,0.0,0.0,0.0,0.0,0.0,0.0,0.0,0.0,0.0,0.0,0.0,0.0,0.0,0.0,0.0,0.0,0.0,0.0,0.0,0.0,0.0,0.0,0.0,0.0,0.0,0.0,0.0,0.0,0.0,0.0,0.0,0.0,0.0,0.0,0.0,0.0,0.0,0.0,0.0,0.0,0.0,0.0,0.0,0.0,0.0,0.0,0.0,0.0,0.0,0.0,0.0,0.0,0.0,0.0,0.0,0.0,0.0,0.0,0.0,0.0,0.0,0.0,0.0,0.0,0.0,0.0,0.0,0.0,0.0,0.0,0.0,0.0,0.0,0.0,0.0,0.0,0.0,0.0,0.0,0.0,0.0,0.0,0.0,0.0,0.0,0.0082,0.0,0.0,0.0,0.0,0.0,0.0,0.0,0.0,0.0,0.0,0.0,0.0,0.0,0.0,0.0,0.0,0.0,0.0,0.0,0.0,0.0,0.0,0.0,0.0,0.0,0.0,0.0,0.0,0.0,0.0,0.0,0.0,0.0,0.0,0.0,0.0,0.0,0.0,0.0,0.0,0.0,0.0,0.0,0.0,0.0,0.0,0.0,0.0,0.0,0.0,0.0,0.0,0.0,0.0,0.0,0.0,0.0,0.0,0.0,0.0,0.0,0.0,0.0,0.0,0.0,0.0,0.0,0.0,0.0,0.0,0.0,0.0,0.0,0.0,0.0,0.0,0.0,0.0,0.0,0.0,0.0,0.0,0.0,0.0,0.0,0.0,0.0,0.0,0.0,0.0,0.0,0.0,0.0,0.0,0.0,0.0,0.0,0.0,0.0,0.0,0.0,0.0,0.0,0.0,0.0,0.0,0.0,0.0,0.0,0.0,0.0,0.0,0.0,0.0,0.0,0.0,-0.5969,0.0,0.0,0.0,0.0,0.0,0.0,0.0,0.0,0.0,0.0,0.0,0.0,0.0,0.0,0.0,0.0,0.0,0.0,0.0,0.0,0.0,0.0,0.0,0.0,0.0,0.0,0.0,0.0,0.0,0.0,0.0,0.0,0.0,0.0,0.0,0.0,0.0,0.0,0.0,0.0,0.0,0.0,0.0,0.0,0.0,0.0,0.0,0.0,0.0,0.0,0.0,0.0,0.0,0.0,0.0,0.0,0.0,0.0,0.0,0.0,0.0,0.0,0.0,0.0,0.0,0.0,0.0,0.0,0.0,0.0,0.0,0.0,0.0,0.0,0.0,0.0,0.0,0.0,0.0,0.0,0.0,0.0,0.0,0.0,0.0,0.0,0.0,0.0,0.0,0.0,0.0,0.0,0.0,0.0,0.0,0.0,0.0,0.0,0.0,0.0,0.0,0.0,0.0,0.0,0.0,0.0,0.0,0.0,0.104,0.0193,-0.0209,-0.2408,-0.7027,-1.2864,-0.8733,-0.9142,-1.2885,0.0,0.0,0.0,0.0,0.0,0.0,0.0,0.0,0.0,0.0,0.0,0.0,0.0,0.0,0.0,0.0,0.0,0.0,0.0,0.0,0.0,0.0,0.0,0.0,0.0,0.0,0.0,0.0,0.0,0.0,0.0,0.0,0.0,0.0,0.0,0.0,0.0,0.0,0.0,1.8895,1.9094,1.9575,2.0268,1.9007,0.0,0.0,0.0,0.0,0.0,0.0,0.0,0.0,0.0,0.0,0.0,0.0,0.0,0.0,0.0,0.0,0.0,0.0,0.0,0.0,0.0,0.0,0.0,0.0,0.0,0.0,0.0,0.0,0.0,0.0,0.0,0.0,0.0,0.0,0.0,0.0,0.0,0.0,0.0,0.0,0.0,0.0,0.0,0.6542,0.6437,0.0,0.0,0.0,0.0,0.0,0.0,0.0,0.0,0.0,0.0,0.0,0.0,0.0,0.4853,0.0391,-0.2253,-0.3352,-0.2691,-0.4744,-0.5828,-0.6327,-1.1328,-1.446,-1.5861,-1.5304,0.0,-1.4514,-1.5237,0.0,0.0,0.0,0.0,0.0,0.0,0.0,0.0,0.0,0.0,0.0,0.0,0.0,0.0,0.0,0.0,0.0,0.0,0.0,0.0,0.0,0.0,0.0,0.0,0.0,0.0,0.0,0.0,0.0,0.0,0.0,0.0,0.0,0.0,0.0,0.0,1.5186,1.7364,1.8518,1.9286,2.0192,2.1188,2.0336,2.0198,2.0618,1.9219,0.0,0.0,0.0,0.0,0.0,0.0,0.0,0.0,0.0,0.0,0.0,0.0,0.0,0.0,0.0,0.0,0.0,0.0,0.0,0.0,0.0,0.0,0.0,0.0,0.0,0.0,0.0,0.0,0.0,0.0,0.0,0.0,0.0,0.0,0.0,0.0,0.0,0.0,0.0,0.6417,0.6605,0.6151,0.6516,0.6532,0.0,0.0,0.0,0.0,0.0,0.0,0.0,0.0,0.0,0.2999,0.3303,0.2084,-0.0846,-0.6169,-0.8883,-0.8798,-1.0451,-1.124,-1.1414,-1.5182,-1.7505,-1.8707,-1.98,-2.0399,-2.0452,-1.9321,-1.9527,-2.0781,0.0,0.0,0.0,0.0,-2.3727,-2.3691,0.0,0.0,0.0,0.0,0.0,0.0,0.0,0.0,0.0,0.0,0.0,0.0,0.0,0.0,0.0,0.0,0.0,0.0,0.0,0.0,0.0,0.0,0.0,0.0,0.0,0.0,0.0,0.0,1.5873,1.7569,1.8433,1.9593,2.0801,2.2039,2.1865,2.1902,2.2027,2.0758,1.9274,0.0,0.0,0.0,0.0,0.0,0.0,0.0,0.0,0.0,0.0,0.0,0.0,0.0,0.0,0.0,0.0,0.0,0.0,0.0,0.0,0.0,0.0,0.0,0.0,0.0,0.0,0.0,0.0,0.0,0.0,0.0,0.0,0.0,0.0,0.0,0.0,0.0,0.0,0.6663,0.6846,0.6263,0.671,0.6595,0.0,0.0,0.0,0.0,0.0,0.0,-0.0825,-0.0523,-0.0585,-0.0944,-0.0556,-0.1307,-0.3106,-0.9384,-1.2698,-1.3142,-1.4624,-1.5503,-1.5861,-1.8064,-1.9775,-2.1118,-2.296,-2.4529,-2.5625,-2.3229,-2.2455,-2.2848,-2.4007,-2.3988,-2.3506,-2.4925,-2.5189,-2.4902,0.0,0.0,0.0,0.0,0.0,0.0,0.0,0.0,0.0,0.0,0.0,0.0,0.0,0.0,0.0,0.0,0.0,0.0,0.0,0.0,0.0,0.0,0.0,0.0,0.0,0.0,0.0,1.4495,1.5087,1.6718,1.9334,2.0238,2.1323,2.2487,2.3453,2.4705,2.5953,2.2432,2.1141,2.114,0.0,0.0,0.0,0.0,0.0,0.0,0.0,0.0,0.0,0.0,0.0,0.0,0.0,0.0,0.0,0.0,0.0,0.0,0.0,0.0,0.0,0.0,0.0,0.0,0.0,0.0,0.0,0.0,0.0,0.0,0.0,0.0,0.0,0.0,0.0,0.0,0.0,0.0,0.0,0.6921,0.736,0.0,0.0,0.0,0.0,-0.4658,-0.5858,-0.5844,-0.4204,-0.5391,-0.5435,-0.3973,-0.3751,-0.5448,-0.9067,-1.1623,-1.3388,-1.4381,-1.6275,-1.8068,-1.9575,-2.1518,-2.262,-2.2991,-2.4662,-2.6248,-2.7499,-2.5724,-2.4979,-2.4838,-2.5006,-2.529,-2.5586,-2.5625,-2.5644,-2.5684,0.0,0.0,0.0,0.0,0.0,0.0,0.0,0.0,0.0,0.0,0.0,0.0,0.0,0.0,0.0,0.0,0.0,0.0,0.0,0.0,0.0,0.0,0.0,0.0,0.0,0.0,1.1854,1.395,1.5672,1.7136,1.8313,1.9452,2.0197,2.0571,2.089,2.1795,2.2996,2.2929,2.1975,2.0239,1.6813,1.3484,0.0,0.0,0.0,0.0,0.0,0.0,0.0,0.0,0.0,0.0,0.0,0.0,0.0,0.0,0.0,0.0,0.0,0.0,0.0,0.0,0.0,0.0,0.0,0.0,0.0,0.0,0.0,0.0,0.0,0.0,0.0,0.0,0.0,0.0,0.0,0.0,0.0,0.7525,0.8126,0.0,0.5527,-0.2962,-0.8166,-0.7823,-0.8433,-0.8989,-0.9244,-0.9938,-1.0623,-1.1238,-1.0292,-1.0322,-1.1712,-1.2344,-1.2785,-1.3159,-1.6294,-1.7961,-1.8415,-2.1796,-2.3197,-2.3197,-2.5069,-2.6131,-2.6627,-2.6828,-2.6955,-2.717,-2.7663,-2.7502,-2.7114,-2.8045,-2.8141,-2.7832,0.0,0.0,0.0,0.0,0.0,0.0,0.0,0.0,0.0,0.0,0.0,0.0,0.0,0.0,0.0,0.0,0.0,0.0,0.0,0.0,0.0,0.0,0.0,0.0,0.0,1.1468,1.2593,1.4082,1.5739,1.6989,1.7684,1.8503,1.9131,1.9497,1.9497,1.9901,2.0588,2.1492,2.0975,1.9333,1.6522,1.3705,1.093,0.0,0.0,0.0,0.0,0.0,0.0,0.0,0.0,0.0,0.0,0.0,0.0,0.0,0.0,0.0,0.0,0.0,0.0,0.0,0.0,0.0,0.0,0.0,0.0,0.0,0.0,0.0,0.0,0.0,0.0,0.0,0.0,0.0,0.0,0.0,0.5372,0.5814,0.6817,0.7321,0.666,-0.0778,-0.6811,-0.9625,-0.968,-1.017,-1.1355,-1.3074,-1.4187,-1.4459,-1.3554,-1.2713,-1.2073,-1.1815,-1.1948,-1.2591,-1.5693,-1.7364,-1.7736,-2.1823,-2.3442,-2.3398,-2.5342,-2.6052,-2.6019,-2.6919,-2.7687,-2.8401,-2.91,-2.9006,-2.8447,-2.9434,-2.9499,-2.918,0.0,0.0,0.0,0.0,0.0,0.0,0.0,0.0,0.0,0.0,0.0,0.0,0.0,0.0,0.0,0.0,0.0,0.0,0.0,0.0,0.0,0.0,0.0,0.0,1.1766,1.218,1.3222,1.4977,1.5271,1.6095,1.7591,1.7591,1.8226,1.9314,1.9314,1.9298,1.9206,1.7842,1.7945,1.8684,1.571,1.3305,1.1183,0.0,0.0,0.0,0.0,0.0,0.0,0.0,0.0,0.0,0.0,0.0,0.0,0.0,0.0,0.0,0.0,0.0,0.0,0.0,0.0,0.0,0.0,0.0,0.0,0.0,0.0,0.0,0.0,0.0,0.0,0.0,0.0,0.0,-0.1932,0.0646,0.1759,0.132,0.3234,0.5152,0.6505,0.5091,-0.0126,-1.0009,-0.9649,-0.9383,-1.0193,-1.4346,-1.5717,-1.33,-1.3164,-1.2274,-1.0445,-1.0313,-1.1129,-1.2773,-1.4695,-1.6509,-1.8277,-2.1837,-2.3569,-2.3583,-2.5422,-2.6084,-2.5805,-2.6199,-2.7051,-2.8354,-2.9222,-2.9609,-2.9609,-2.9609,-2.9609,-2.9609,0.0,0.0,0.0,0.0,0.0,0.0,0.0,0.0,0.0,0.0,0.0,0.0,0.0,0.0,0.0,0.0,0.0,0.0,0.0,0.0,0.0,0.0,0.0,0.0,1.3698,1.3801,1.4327,1.5284,1.4603,1.4968,1.6292,1.5412,1.5102,1.5468,1.5468,1.4899,1.3945,1.3734,1.3753,1.3878,1.3287,1.2439,1.1392,0.0,0.0,0.0,0.0,0.0,0.0,0.0,0.0,0.0,0.0,0.0,0.0,0.0,0.0,0.0,0.0,0.0,0.0,0.0,0.0,0.0,0.0,0.0,0.0,0.0,0.0,0.0,0.0,0.0,0.0,0.0,0.0,-0.8612,-0.7827,-0.7529,-0.6663,-0.44,-0.3638,-0.2946,-0.2372,-0.5274,-0.8249,-1.0826,-0.5681,-0.3643,-0.666,-0.8523,-1.1247,-1.5073,-1.5082,-1.454,-1.3203,-1.1408,-1.1344,-1.2979,-1.478,-1.6551,-1.8289,-2.069,-2.1823,-2.1837,-2.2594,-2.2107,-2.0889,-2.3627,-2.4812,-2.5214,-2.7754,-2.9427,-3.0527,-3.0527,-3.0527,-3.0469,0.0,0.0,0.0,0.0,0.0,0.0,0.0,0.0,0.0,0.0,0.0,0.0,0.0,0.0,0.0,0.0,0.0,0.0,0.0,0.0,0.0,0.0,0.0,1.3748,1.4683,1.483,1.511,1.5578,1.4968,1.4758,1.4949,1.4268,1.3584,1.3102,1.3102,1.2673,1.1993,1.1516,1.1297,1.1166,1.0857,1.0952,1.0964,0.9113,0.7786,0.6919,0.6014,0.6273,0.7083,0.6771,0.0,0.0,0.0,0.0,0.0,0.0,0.0,0.0,0.0,0.0,0.0,0.0,0.0,0.0,0.0,0.0,0.0,0.0,0.0,0.0,0.0,0.0,0.0,0.0,-1.0272,-1.0649,-1.1565,-1.1419,-1.0545,-0.886,-0.8775,-0.8918,-0.8775,-1.0736,-1.1128,-0.9087,-0.4788,-0.3838,-0.7571,-0.8287,-0.949,-1.1372,-1.1545,-1.1509,-1.1283,-1.1896,-1.2584,-1.3519,-1.5804,-1.7429,-1.8676,-2.0335,-2.1109,0.0,-2.1603,-2.1045,-2.0098,-2.2291,-2.3745,0.0,0.0,0.0,0.0,0.0,-3.0898,-3.0859,0.0,0.0,0.0,0.0,0.0,0.0,0.0,0.0,0.0,0.0,0.0,0.0,0.0,0.0,0.0,0.0,0.0,0.0,0.0,0.0,0.0,1.3333,1.3895,1.4456,1.5057,1.5311,1.5471,1.5629,1.5439,1.4758,1.368,1.3488,1.2813,1.1658,1.1678,1.1697,1.1673,1.0509,1.001,0.9908,0.896,0.9256,1.0109,0.7806,0.7176,0.7348,0.5647,0.6037,0.7155,0.7155,0.0,0.0,0.0,0.0,0.0,0.0,0.0,0.0,0.0,0.0,0.0,0.0,0.0,0.0,0.0,0.0,0.0,0.0,0.0,0.0,0.0,0.0,0.0,0.0,-1.2619,-1.2585,-1.3554,-1.2322,-1.163,-1.1895,-1.2284,-1.2603,-1.2929,-1.2814,-1.0861,-0.6897,-0.6305,-0.7879,-1.1735,0.0,0.0,0.0,0.0,-0.6443,-0.8304,-1.2368,-1.4388,-1.4707,-1.7315,-1.884,-1.928,-2.0618,-2.1149,-2.1136,-2.1737,-2.17,-2.1357,-2.2002,-2.3936,-2.68,-2.8229,-2.9568,-3.0645,-3.0703,-3.0567,-3.0392,0.0,0.0,0.0,0.0,0.0,0.0,0.0,0.0,0.0,0.0,0.0,0.0,0.0,0.0,0.0,0.0,0.0,0.0,0.0,0.0,1.3146,1.4215,1.4603,1.507,1.5645,1.5712,1.5279,1.4268,1.3199,1.2533,1.2231,1.1258,1.0583,1.0395,1.0445,0.9936,0.9093,0.9039,0.8969,0.8863,0.8707,0.8633,0.8258,0.6459,0.5303,0.494,0.6432,0.7336,0.7787,0.7285,0.6834,0.5742,0.1332,0.0,0.0,0.0,0.0,0.0,0.0,0.0,0.0,0.0,0.0,0.0,0.0,0.0,0.0,0.0,0.0,0.0,0.0,0.0,0.0,-1.022,-1.0753,-1.1896,-1.4319,-1.3275,-1.2238,-1.2319,-1.2723,-1.2886,-1.2723,-1.3068,-1.2771,-1.1509,-0.996,-1.1287,-1.6462,-0.7629,-0.3592,-0.5982,-0.6141,-0.8785,-1.4301,-1.4867,-1.6312,-1.8653,0.0,0.0,-2.1149,-2.1354,-2.1336,-2.1136,-2.1737,-2.1147,-1.9881,-2.2697,-2.5565,-2.8193,-3.0162,-3.0068,-2.8957,-2.9287,-2.8456,-2.7073,0.0,0.0,0.0,0.0,0.0,0.0,0.0,0.0,0.0,0.0,0.0,0.0,0.0,0.0,0.0,0.0,0.0,0.0,0.0,1.2188,1.328,1.4469,1.495,1.5101,1.4841,1.4854,1.4172,1.2909,1.2231,1.1668,1.1208,1.0627,0.9838,0.8954,0.912,0.8837,0.8425,0.8541,0.8595,0.8755,0.8784,0.8581,0.8086,0.7041,0.6453,0.6142,0.7305,0.7848,0.7936,0.7645,0.7753,0.7056,0.1662,-0.0,-0.0,0.0,0.0,0.0,0.0,0.0,0.0,0.0,0.0,0.0,0.0,0.0,0.0,0.0,0.0,-0.7701,0.0,0.0,-1.0678,-1.2258,-1.2303,-1.2766,-1.4408,-1.3538,-1.3064,-1.4052,-1.3576,-1.3177,-1.312,-1.3275,-1.3913,-1.4754,-1.3821,-1.5329,-1.9785,-1.5633,-1.2942,-1.2845,-1.2877,-1.5402,-2.0774,-2.1607,-2.2049,-2.1849,-2.2403,-2.2484,-2.1977,-2.273,-2.295,-2.295,-2.4316,-2.4363,-2.3665,-2.5976,-2.7514,-2.8582,-3.0715,-3.0263,-2.8564,-2.9636,-2.8846,-2.7434,0.0,0.0,0.0,0.0,0.0,0.0,0.0,0.0,0.0,0.0,0.0,0.0,0.0,0.0,0.0,0.0,0.0,0.0,0.0,1.2041,1.2891,1.3913,1.4447,1.4346,1.3488,1.3488,1.292,1.1678,1.1678,1.1128,1.012,0.9606,0.8299,0.6417,0.6355,0.6685,0.7327,0.7368,0.7645,0.8084,0.8066,0.8196,0.8343,0.813,0.8018,0.7972,0.7952,0.8004,0.8048,0.7979,0.7324,0.5691,0.1317,-0.0656,-0.1397,-0.1401,-0.3745,0.0,0.0,0.0,0.0,0.0,0.0,0.0,0.0,-0.7361,-0.7428,-0.7633,-0.7925,-0.8603,-1.0379,-1.1141,-1.2105,-1.4068,-1.3825,-1.357,-1.438,-1.3538,-1.3589,-1.5695,-1.4448,-1.3499,-1.3598,-1.3674,-1.4628,-1.6749,-1.7434,-1.9297,-2.2788,-2.4856,-2.4585,-2.1547,-2.0933,-2.2325,-2.6006,-2.7819,-2.7583,-2.5385,-2.639,-2.5817,-2.3849,-2.4964,-2.539,-2.5282,-2.6971,-2.7877,-2.8229,-2.9136,-2.9306,-2.9168,-3.0796,-3.0187,-2.8545,-2.9998,-2.9468,-2.817,0.0,0.0,0.0,0.0,0.0,0.0,0.0,0.0,0.0,0.0,0.0,0.0,0.0,0.0,0.0,0.0,0.0,0.0,0.0,1.0684,1.15,1.1848,1.2151,1.2211,1.2145,1.2134,1.1678,1.0753,1.0753,0.9946,0.8282,0.5872,0.3311,0.0629,0.0434,0.1433,0.3326,0.3314,0.4026,0.5009,0.5017,0.6433,0.8604,0.8513,0.8233,0.7959,0.8021,0.802,0.8031,0.7963,0.4873,0.0823,0.0191,-0.2855,-0.6331,-0.6283,-0.6276,-0.593,-0.4311,-0.3768,-0.4242,-0.6553,-0.7012,-0.723,0.0,-0.8333,-0.8244,-0.8656,-0.8898,-0.9164,-0.9703,-0.9993,-1.0373,-1.1122,-1.1372,-1.228,-1.4473,-1.3406,-1.319,-1.5481,-1.4507,-1.3606,-1.3593,-1.3881,-1.4974,-1.7171,-1.9156,-2.2056,-2.6069,-2.6266,-2.6918,-2.811,-2.602,-2.5868,-2.8268,-2.8218,-2.8909,-3.0353,-3.0244,-2.9699,-2.8766,-2.8541,-2.8163,-2.7553,-2.7602,-2.852,-2.9905,-2.9636,-3.01,-3.1169,-3.0976,-2.9941,-2.8462,-2.9064,-2.799,-2.647,0.0,0.0,0.0,0.0,0.0,0.0,0.0,0.0,0.0,0.0,0.0,0.0,0.0,0.0,0.0,0.0,0.0,0.0,0.9145,1.0021,1.0721,1.1374,1.1758,1.156,1.0779,1.1002,1.0439,0.9069,0.7516,0.719,0.7917,0.3549,-0.0946,-0.5324,-0.5612,-0.5246,-0.4355,-0.0462,0.14,0.2087,0.3796,0.6168,0.8575,0.8528,0.8303,0.766,0.4851,0.4002,0.0,0.0,0.1815,-0.0469,-0.285,-0.5031,-0.6406,-0.5376,-0.5888,-0.6585,-0.5849,-0.5751,-0.6166,-0.7871,-0.8056,-0.8066,-0.8758,-0.8771,-0.8613,-0.9076,-0.9394,-0.9587,-0.9895,-1.0174,-1.0585,0.0,-1.1226,-1.1798,-1.2939,-1.27,-1.2644,-1.3603,-1.3338,-1.3589,-1.5278,-1.5872,-1.7425,-2.0752,-2.2126,-2.4591,-2.8584,-3.0002,-3.0856,-3.1284,-3.1669,-3.1942,-3.2672,-3.252,-3.2707,-3.3212,-3.3054,-3.1997,-3.0266,-3.0874,-3.1238,-3.1543,-3.1414,-3.154,-3.1721,-3.1304,-3.1271,-3.1484,-3.1055,-3.0509,-2.9922,-3.0092,-2.8929,-2.7692,0.0,0.0,0.0,0.0,0.0,0.0,0.0,0.0,0.0,0.0,0.0,0.0,0.0,0.0,0.0,0.0,0.0,0.0,0.0,0.8899,0.9704,1.0232,1.06,0.0,0.9509,0.9747,0.8862,0.6848,0.5644,0.53,0.5661,0.1591,-0.3326,-0.8946,-0.9224,-0.9469,-0.9264,-0.4698,-0.1657,0.0235,0.2322,0.4402,0.6413,0.7937,0.7428,0.5616,0.2251,0.0385,0.0,0.0,-0.1188,-0.1333,-0.4418,-0.5818,-0.6089,-0.484,-0.5753,-0.7171,-0.7574,-0.7598,-0.778,-0.885,-0.8729,-0.8648,-0.9183,-0.9055,-0.9073,-0.9444,-0.9698,-0.9943,-1.0234,-1.0445,-1.0772,-1.1083,-1.1194,-1.1626,-1.2395,-1.2332,-1.2296,-1.2772,-1.2691,-1.3693,-1.6731,-1.7234,-1.8969,-2.3303,-2.4519,-2.6704,-3.106,-3.3068,-3.4368,-3.5139,-3.6701,-3.7217,-3.6783,-3.6878,-3.6525,-3.5532,-3.542,-3.4536,-3.2755,-3.3284,-3.3765,-3.4082,-3.4082,-3.3652,-3.293,-3.2383,-3.1992,-3.1641,-3.1113,-3.0898,-3.0898,-3.0898,-3.0138,-2.9275,0.0,0.0,0.0,0.0,0.0,0.0,0.0,0.0,0.0,0.0,0.0,0.0,0.0,0.0,0.0,0.0,0.0,0.0,0.0,0.6909,0.8178,0.775,0.7835,0.7986,0.8038,0.8065,0.6748,0.4117,0.6697,0.5248,0.0213,0.0108,-0.3198,-0.891,-0.9191,-0.9208,-0.9007,-0.9277,-0.5814,-0.0,0.0118,0.0226,0.0848,0.6395,0.5382,0.1106,0.1224,0.0,0.0,0.0,-0.4082,-0.2698,-0.3086,-0.4596,0.0,-0.6642,-0.6888,-0.7429,-0.889,-0.852,-0.823,-1.0181,-0.9765,-0.8945,-0.931,-0.9438,-0.9572,-0.97,-0.9895,-1.0022,-1.0306,-1.0445,-1.0631,-1.0909,-1.1018,-1.1942,-1.4268,-1.2865,-1.2395,-1.455,-1.2999,-1.3521,0.0,-1.7123,-1.8538,-2.3016,-2.5489,-2.8698,-3.3247,-3.4585,-3.6995,-4.0779,-4.0646,-4.0348,-3.975,-4.0306,-3.9555,-3.7747,-3.7339,-3.7358,-3.7669,-3.6424,-3.5293,-3.4082,-3.4082,-3.3828,-3.334,-3.2519,-3.2168,-3.207,-3.1211,-3.0898,-3.0898,-3.0898,-3.0879,-3.0879,0.0,0.0,0.0,0.0,0.0,0.0,0.0,0.0,0.0,0.0,0.0,0.0,0.0,0.0,0.0,0.0,0.0,0.0,0.0,0.4361,0.5779,0.6993,0.7339,0.759,0.7746,0.7868,0.6964,0.4918,0.3383,0.1784,-0.0,-0.0,-0.1101,-0.3134,-0.515,-0.73,-0.9205,-0.9662,-0.8534,-0.6098,-0.1733,-0.0,-0.0109,-0.1013,-0.2169,-0.3254,0.0,0.0,0.0,0.0,-0.5124,-0.4557,-0.4904,-0.55,-0.6335,-0.7507,-0.8255,-0.9046,-1.0881,-1.1432,-1.1904,-1.3163,-1.3159,-1.304,-1.3428,-1.2559,-1.1712,-1.1712,-1.0747,-0.9863,-0.9863,-0.9995,-1.0189,-1.0509,-1.192,-1.2766,-1.2448,-1.3213,-1.3802,-1.4195,-1.392,0.0,0.0,0.0,0.0,-2.6003,-2.7551,-2.99,-3.3787,-3.4676,-3.672,-4.0167,-4.0297,-4.0656,-4.1568,-4.0656,-3.9799,-3.9265,-3.7907,-3.7226,-3.709,-3.6641,-3.5742,-3.4492,-3.4492,-3.4082,-3.3359,-3.2519,-3.2168,-3.2051,-3.0879,-3.0625,-3.0859,-3.0547,-3.0625,-3.0995,0.0,0.0,0.0,0.0,0.0,0.0,0.0,0.0,0.0,0.0,0.0,0.0,0.0,0.0,0.0,0.0,0.0,0.0,0.0,0.0,0.3503,0.5366,0.6522,0.7244,0.7639,0.7894,0.7302,0.5836,0.3635,0.2113,0.1232,0.0423,-0.0,-0.0109,-0.2004,-0.4064,-0.6157,-0.8686,-0.8475,-0.6088,-0.3321,-0.2258,-0.2502,-0.4438,-0.543,0.0,0.0,0.0,0.0,0.0,-0.5798,-0.5911,-0.5977,-0.6365,-0.7148,-0.8704,-0.9761,-1.0789,-1.2963,-1.3713,-1.4114,-1.5371,-1.5482,-1.5222,-1.5482,-1.4602,-1.3508,-1.3247,-1.2141,-1.1137,-1.0882,-1.0868,-1.1093,-1.1464,-1.2936,-1.384,-1.3239,-1.4326,-1.5262,-1.5292,-1.6234,-1.8444,0.0,0.0,0.0,-2.8328,-3.0024,-3.1795,-3.4054,-3.5027,-3.7086,-4.0522,-4.0657,-4.1107,-4.1968,-4.1107,-3.9918,-3.8569,-3.8364,-3.7926,-3.7345,-3.8004,-3.735,-3.5561,-3.542,-3.4576,-3.3379,-3.2676,-3.2305,-3.207,-3.1055,-3.0762,-3.0859,-3.0547,-3.0644,-3.0995,0.0,0.0,0.0,0.0,0.0,0.0,0.0,0.0,0.0,0.0,0.0,0.0,0.0,0.0,0.0,0.0,0.0,0.0,0.0,0.0,0.0,0.2641,0.5131,0.6786,0.7333,0.7585,0.7418,0.6595,0.6911,0.5926,0.3684,0.139,0.0206,-0.0,-0.0,-0.0,-0.0446,-0.67,-0.5669,-0.0314,-0.4361,-0.6069,-0.6034,-0.4066,0.0,0.0,0.0,0.0,0.0,-0.6093,-0.6278,-0.6974,-0.6388,-0.7279,-0.8836,-1.0296,-1.1409,-1.2591,-1.5107,-1.5246,-1.514,-1.7047,-1.6635,-1.5813,-1.5813,-1.5504,-1.4963,-1.4436,-1.3924,-1.3567,-1.3111,-1.3083,-1.327,-1.38,-1.4296,-1.5054,-1.6265,-1.6449,-1.6922,-1.8059,-1.9878,-2.191,-2.3928,-2.6002,0.0,-3.026,0.0,-3.4252,-3.4288,-3.5857,-3.8228,-4.1592,-4.1875,-4.1651,-4.1309,-4.1651,-3.9969,-3.6191,-3.861,-3.9479,-3.8729,-4.0212,-3.9664,-3.7255,-3.6729,-3.5289,-3.3379,-3.2969,-3.2559,-3.2129,-3.166,-3.125,-3.0898,-3.0859,-3.0879,-3.0762,0.0,0.0,0.0,0.0,0.0,0.0,0.0,0.0,0.0,0.0,0.0,0.0,0.0,0.0,0.0,0.0,0.0,0.0,0.0,0.0,0.0,0.0,0.0,0.0,0.0,0.0,0.0,0.0,0.0,0.6643,0.6231,0.5587,0.3408,-0.0,-0.0,-0.0,-0.0104,-0.1814,-0.1532,-0.0106,0.0,-0.346,-0.6285,0.0,0.0,0.0,0.0,0.0,0.0,-0.7086,-0.7781,-0.9185,-0.9256,-0.9734,-1.0697,-1.2525,-1.3544,-1.4628,-1.7376,-1.8237,-1.8704,-1.984,-1.9966,-1.9688,-1.9688,-1.8195,-1.6735,-1.6191,-1.45,-1.303,-1.2566,-1.2883,-1.3414,-1.3819,-1.5948,-1.7396,-1.6974,-1.9959,-2.2256,-2.2473,-2.463,-2.7317,-3.0206,-3.159,0.0,0.0,-3.4176,-3.4343,-3.5921,-3.6441,-3.8085,-4.1254,-4.0083,-4.0647,-4.3083,-4.0647,-3.8912,-3.7895,-3.8644,-3.9474,-4.0515,-4.0545,-3.9294,-3.7316,-3.675,-3.5289,-3.3379,-3.2969,-3.2559,-3.209,-3.1348,-3.0996,-3.0859,-3.0508,-2.9852,-2.9039,0.0,0.0,0.0,0.0,0.0,0.0,0.0,0.0,0.0,0.0,0.0,0.0,0.0,0.0,0.0,0.0,0.0,0.0,0.0,0.0,0.0,0.0,0.0,0.0,0.0,0.0,0.0,0.0,0.0,0.0,0.0,0.6659,0.5338,0.2675,0.1626,0.0721,-0.0,-0.0,0.0,0.0,0.0,0.0,0.0,0.0,0.0,0.0,0.0,0.0,0.0,-0.994,-1.0253,-1.0522,-1.1337,-1.1977,-1.2853,-1.4757,-1.5853,-1.6895,-1.8915,-1.9811,-2.0374,-2.115,-2.1199,-2.1047,-2.0818,-1.9548,-1.8019,-1.6985,-1.5458,-1.4349,-1.4135,-1.4288,-1.4734,-1.5904,-1.8289,-2.0138,-2.0347,-2.376,-2.6305,-2.6967,-2.9361,-3.1684,-3.34,-3.4836,-3.6093,0.0,-3.5845,-3.5635,-3.666,-3.668,-3.7793,-4.004,-3.9125,-3.9497,-4.1415,-3.9073,-3.8024,-3.8603,-3.9432,-4.0497,-4.1903,-4.2056,-4.0699,-3.8073,0.0,-3.5831,-3.3398,-3.3164,-3.2715,-3.2129,-3.1641,-3.123,-3.0859,-3.0586,-2.9559,-2.8426,0.0,0.0,0.0,0.0,0.0,0.0,0.0,0.0,0.0,0.0,0.0,0.0,0.0,0.0,0.0,0.0,0.0,0.0,0.0,0.0,0.0,0.0,0.0,0.0,0.0,0.0,0.0,0.0,0.0,0.0,0.0,0.0,0.0,0.0,0.0,0.0,0.0,0.0,0.0,0.0,0.0,0.0,0.0,0.0,0.0,0.0,0.0,0.0,-1.0289,-1.2804,-1.2745,-1.1793,-1.3055,-1.4026,-1.5032,-1.687,-1.7983,-1.8803,-1.9992,-2.0454,-2.0825,-2.136,-2.128,-2.0929,-2.0499,-1.9917,-1.9014,-1.7509,-1.6856,-1.6607,-1.6664,-1.6292,-1.6706,-1.8771,-2.0498,-2.2557,-2.4859,-2.7393,-2.9699,-3.122,-3.3659,-3.5047,-3.5048,-3.6878,-3.7982,-3.7982,-3.7701,-3.7319,-3.6875,-3.6738,-3.7132,-3.8242,-3.8528,-3.8528,-3.8221,-3.7248,-3.737,-3.8603,-4.0367,-4.1731,-4.2875,-4.3856,-4.2351,-3.894,0.0,0.0,-3.334,-3.334,-3.2832,-3.209,-3.209,-3.1601,-3.0898,-3.0898,-2.9903,-2.8426,0.0,0.0,0.0,0.0,0.0,0.0,0.0,0.0,0.0,0.0,-0.5508,-0.5332,0.0,0.0,0.0,0.0,0.0,0.0,0.0,0.0,0.0,0.0,0.0,0.0,0.0,0.0,0.0,0.0,0.0,0.0,0.0,0.0,0.0,0.0,0.0,0.0,0.0,0.0,0.0,0.0,0.0,0.0,0.0,0.0,0.0,0.0,0.0,-0.9123,-0.9862,0.0,-1.2734,-1.4822,-1.5734,-1.6397,-1.6981,-1.8183,-1.8669,-1.9125,-2.025,-2.0786,-2.1015,-2.1162,-2.1115,-2.1122,-2.1269,-2.0424,-1.9653,-1.9625,-1.8885,-1.7978,-1.7118,-1.7231,-1.8192,-2.0257,-2.1362,-2.3414,-2.7068,-2.9917,-3.2085,-3.3709,-3.5887,-3.7536,-3.7817,-3.8205,0.0,0.0,-3.8457,-3.8203,-3.7734,-3.7051,-3.6602,-3.6423,-3.8192,-3.8192,-3.6403,-3.6583,-3.737,-3.8603,-4.0364,-4.1754,-4.2939,-4.278,-4.1398,-3.8841,-3.6975,0.0,-3.291,-3.291,-3.2402,-3.1621,-3.1621,-3.1328,-3.0898,-3.0898,-2.9903,-2.8426,0.0,0.0,0.0,0.0,0.0,0.0,0.0,-0.5985,-0.6047,-0.6083,-0.5996,-0.5854,-0.5515,-0.5413,0.0,0.0,0.0,0.0,0.0,0.0,0.0,0.0,0.0,0.0,0.0,0.0,-0.0973,-0.0,0.0,0.0,0.0,0.0146,0.1703,0.0,0.0,0.0,0.0,0.0,0.0,0.0,0.0,0.0,0.0,0.0,0.0,0.0,0.0,-0.877,-0.9299,-1.0237,-1.1854,-1.3701,-1.507,-1.6441,-1.7784,-1.8459,-1.8968,-1.9549,-2.0397,-2.1083,-2.1306,-2.1344,-2.1168,-2.0898,-2.0833,-1.9977,-1.9184,-1.8955,-1.8581,-1.8158,-1.8036,-1.8008,-1.8721,-2.0801,-2.2031,-2.3909,-2.7748,-3.0519,-3.2957,-3.5358,-3.6933,-3.8117,-3.8555,-3.8574,-3.8476,-3.8262,-3.8242,-3.8047,-3.7617,-3.6797,-3.623,-3.6035,-3.7448,-3.7568,-3.6367,-3.6777,-3.7609,-3.8957,-3.9494,-4.0751,-4.2469,-4.1442,-4.003,-3.8462,-3.6624,0.0,-3.3105,-3.2891,-3.2422,-3.1836,-3.1601,-3.1269,-3.0898,-3.0898,-2.9903,-2.8426,0.0,0.0,0.0,0.0,0.0,0.0,0.0,-0.6626,-0.6737,-0.6351,-0.6634,-0.6641,-0.5808,-0.5739,-0.5621,0.0,0.0,0.0,0.0,0.0,0.0,0.0,0.0,0.0,0.0,0.0,0.0,-0.1186,-0.2402,0.0,0.0,0.0,0.0,0.0,0.2993,0.4694,0.0,0.0,0.0,0.0,0.0,0.0,0.0,0.0,0.0,0.0,0.0,-0.8098,-0.8604,-0.9436,-1.0549,-1.1721,-1.304,-1.5243,-1.7448,-1.8125,-1.9009,-1.9811,-2.0472,-2.1109,-2.1706,-2.1542,-2.1109,-2.0642,-2.045,-1.9672,-1.8885,-1.8616,-1.8459,-1.8499,-1.8976,-1.8714,-1.9144,-2.1318,-2.2375,-2.4289,-2.8222,-3.0709,-3.3217,-3.6189,-3.7402,-3.8066,-3.8398,-3.8437,0.0,-3.7832,0.0,0.0,-3.7305,-3.666,-3.6289,-3.6289,-3.6953,-3.709,-3.668,-3.6992,-3.7689,-3.8582,-3.8583,-3.9624,-4.1513,-3.9927,-3.8798,-3.8104,-3.6173,0.0,0.0,-3.293,-3.25,-3.1992,-3.166,-3.1269,-3.0898,-3.0898,-3.0077,-2.903,0.0,0.0,0.0,0.0,0.0,0.0,0.0,-0.7988,-0.8217,-0.6563,-0.7442,-0.7694,-0.6355,-0.6073,-0.5915,0.0,0.0,0.0,0.0,0.0,0.0,0.0,0.0,0.0,0.0,0.0,0.0,-0.4913,-0.3454,0.0,0.0,0.0,0.0,0.0,0.0,0.2293,0.5373,0.0,0.0,0.0,0.0,0.0,0.0,0.0,0.0,0.0,0.0,-0.7846,-0.7785,-0.7227,-0.8705,-1.0767,-1.0871,-1.2917,-1.557,-1.7173,-1.8473,-1.9615,-2.0112,-2.1109,-2.1815,-2.1276,-2.089,-2.0865,-2.1261,-2.0357,-1.9711,-2.066,-2.0582,-2.0157,-1.9462,-1.9325,-2.001,-2.2158,-2.2553,-2.4362,-2.9364,-3.1337,-3.3135,-3.582,-3.7187,-3.7949,-3.7969,-3.7988,-3.7812,-3.7383,0.0,0.0,-3.7285,-3.7226,-3.7187,-3.7187,-3.7266,-3.709,-3.668,-3.6719,-3.6661,-3.6366,-3.7863,-3.9002,-3.968,-3.8183,-3.7789,-3.7985,-3.4984,0.0,0.0,-3.2812,-3.2305,-3.1562,-3.1543,-3.1269,-3.0898,-3.0898,-3.1015,-3.1149,0.0,0.0,0.0,0.0,0.0,0.0,-0.7109,-0.8288,-0.8846,-0.7732,-0.8034,-0.8217,-0.7771,-0.6983,-0.6237,0.0,0.0,0.0,0.0,0.0,0.0,0.0,0.0,0.0,0.0,0.0,-0.5695,-0.5671,-0.4148,0.0,0.0,0.0,0.0,0.0,0.0,0.0788,0.2166,0.2167,0.0,0.0,0.0,0.0,0.0,0.0,0.0,0.0,0.0,0.0,-0.6824,-0.6578,-0.7581,-0.9106,-0.9685,-1.1318,-1.3607,-1.6088,-1.7603,-1.8704,-1.9756,-2.0829,-2.1605,-2.1224,-2.0526,-2.009,-2.0945,-1.9958,-1.9301,-2.0552,-2.0684,-2.0469,-2.0159,-2.0139,-2.0545,-2.1961,-2.1955,-2.3114,-2.6928,-2.8217,-3.0157,-3.3953,-3.5351,-3.6601,0.0,0.0,-3.7637,-3.6973,0.0,0.0,-3.6894,-3.668,-3.6523,-3.6523,-3.7031,-3.709,-3.668,-3.6914,-3.6836,-3.6406,-3.6793,-3.7349,-3.7952,-3.6444,-3.6078,-3.666,-3.4383,0.0,0.0,-3.2891,-3.2441,-3.1875,-3.1621,-3.1269,-3.0918,-3.1172,-3.1211,-3.1191,0.0,0.0,0.0,0.0,0.0,-0.833,-0.7175,-0.8744,-0.9611,-0.838,-0.8607,-0.8798,-0.8601,-0.7404,-0.6607,-0.6596,-0.6279,0.0,0.0,0.0,0.0,0.0,0.0,0.0,0.0,0.0,-0.5118,-0.5012,-0.466,-0.4974,0.0,0.0,-0.2876,-0.0941,0.0,0.0,0.0,0.0,0.0,0.0,0.0,0.0,0.0,0.0,0.0,0.0,0.0,0.0,0.0,0.0,0.0,-0.8543,-0.9426,-1.0813,-1.25,-1.4911,-1.6592,-1.7846,-1.895,-2.0245,-2.1122,-2.0909,-2.0104,-1.9505,-2.0512,-1.9568,-1.8986,-2.0327,-2.0566,-2.0566,-2.0566,-2.0664,-2.1016,-2.1758,-2.1717,-2.259,-2.5337,-2.6328,-2.8233,-3.2163,0.0,-3.5,0.0,-3.7383,-3.7109,0.0,0.0,0.0,-3.666,-3.6387,-3.6269,-3.6387,-3.6855,-3.6973,-3.668,-3.6836,-3.6777,-3.6484,-3.6035,-3.621,-3.7085,-3.5331,-3.4959,-3.5683,-3.4133,0.0,0.0,-3.3105,-3.2656,-3.2148,-3.1836,-3.1367,-3.0918,-3.123,-3.1309,-3.1328,0.0,0.0,0.0,0.0,0.0,0.0,-0.7122,-0.9718,-1.0911,-0.8125,-0.8978,-0.9496,-0.8304,-0.7224,-0.6865,-0.7923,-0.6919,0.0,0.0,0.0,0.0,0.0,0.0,0.0,0.0,0.0,0.0,-0.3115,-0.5039,-0.6056,-0.6288,-0.6071,-0.493,-0.3054,0.0,0.0,0.0,0.0,0.0,0.0,0.0,0.0,0.0,0.0,0.0,0.0,0.0,0.0,0.0,0.0,0.0,0.0,0.0,-1.1476,-1.2513,0.0,-1.5311,-1.6876,-1.7737,-1.912,-2.0263,-2.0219,-1.958,-1.9127,-2.0152,-1.9519,-1.8986,-2.0327,-2.0566,-2.0566,-2.0566,-2.0937,-2.1367,-2.1816,-2.2246,-2.3262,-2.541,-2.6836,-2.8476,0.0,-3.2031,-3.332,-3.4609,-3.5527,-3.6035,0.0,0.0,0.0,-3.668,-3.666,-3.6855,-3.7266,-3.6894,-3.668,-3.668,-3.625,-3.6035,-3.6016,-3.5605,-3.6042,-3.7085,-3.5012,-3.4679,0.0,0.0,0.0,0.0,-3.3418,-3.293,-3.2168,-3.2168,-3.1641,-3.0898,-3.0898,-3.1426,-3.209,0.0,0.0,0.0,0.0,0.0,0.0,0.0,-0.9623,-1.0495,-0.9132,-0.9316,-0.9548,-0.9394,-0.7695,-0.7069,-0.8207,-0.7042,0.0,0.0,0.0,0.0,0.0,0.0,0.0,0.0,0.0,0.0,-0.5456,-0.6231,-0.6532,-0.6566,-0.6324,-0.589,-0.5297,-0.5291,-0.494,0.0,0.0,0.0,0.0,0.0,0.0,0.0,0.0,0.0,0.0,0.0,0.0,0.0,0.0,0.0,0.0,0.0,0.0,0.0,-1.3355,-1.4443,-1.5806,-1.6838,-1.778,-1.8387,-1.8365,-1.7936,-1.7563,-1.8241,-1.8409,-1.8579,-1.9724,-2.0518,-2.1016,-2.1016,-2.1387,-2.1816,-2.2246,-2.2676,-2.3379,-2.4648,-2.6211,-2.8144,-3.0605,-3.3848,-3.5918,0.0,0.0,0.0,0.0,0.0,0.0,-3.666,-3.668,-3.6738,-3.6875,-3.6738,-3.6523,-3.623,-3.6387,-3.6172,-3.5586,-3.5449,-3.5264,-3.5012,-3.4379,-3.4083,0.0,0.0,0.0,0.0,-3.3418,-3.3105,-3.2598,-3.2598,-3.2246,-3.1797,-3.209,-3.2187,-3.2226,0.0,0.0,0.0,0.0,0.0,0.0,0.0,-0.9695,-1.0634,-0.9812,-0.9532,-0.9483,-0.9684,-0.7867,-0.7224,-0.8871,-0.743,0.0,0.0,0.0,0.0,0.0,0.0,0.0,0.0,0.0,0.0,-0.7303,-0.7401,-0.7357,-0.7349,-0.7171,-0.6891,-0.6491,-0.6424,-0.6363,0.0,0.0,0.0,0.0,0.0,0.0,-0.6302,0.0,0.0,0.0,0.0,0.0,0.0,0.0,0.0,0.0,0.0,0.0,0.0,0.0,-1.3913,-1.475,-1.5845,-1.6648,-1.7078,-1.7232,-1.6777,-1.6545,-1.7217,-1.7323,-1.777,-1.9064,-2.0031,-2.0728,-2.115,-2.1582,-2.2031,-2.2441,-2.2734,-2.332,-2.4492,-2.5879,0.0,-3.0566,0.0,0.0,0.0,0.0,0.0,0.0,0.0,0.0,-3.666,-3.668,-3.668,-3.668,-3.6504,-3.6289,-3.6016,-3.5957,-3.5742,-3.5391,-3.5059,-3.4609,-3.4062,-3.3906,-3.3672,0.0,0.0,0.0,0.0,-3.3418,-3.3184,-3.2793,-3.2793,-3.2539,-3.2207,-3.2461,-3.25,-3.248,0.0,0.0,0.0,0.0,0.0,0.0,0.0,-0.9947,-1.1019,-1.0219,-0.9732,-0.9412,-0.9504,-0.7805,-0.7461,-0.9637,0.0,0.0,0.0,0.0,0.0,0.0,0.0,0.0,0.0,-0.7185,-0.726,-0.85,-0.8608,-0.8626,-0.8626,-0.8626,-0.7966,-0.6888,-0.6722,0.0,0.0,0.0,0.0,0.0,0.0,0.0,0.0,0.0,0.0,0.0,0.0,0.0,0.0,0.0,0.0,0.0,0.0,0.0,0.0,0.0,0.0,0.0,0.0,-1.5704,-1.619,-1.6434,-1.6091,-1.5934,-1.6623,-1.6433,0.0,-1.8504,-1.93,-1.9997,-2.1028,-2.166,-2.2109,-2.25,-2.2617,-2.3223,-2.4883,-2.6055,0.0,0.0,-3.293,0.0,-3.4121,0.0,0.0,0.0,0.0,0.0,-3.668,-3.668,-3.668,-3.668,-3.6211,-3.5976,-3.5976,-3.5156,-3.4941,-3.5293,-3.4473,-3.4043,-3.3965,-3.3594,-3.3398,0.0,0.0,0.0,0.0,-3.3418,-3.3184,-3.2832,-3.2832,-3.2598,-3.2266,-3.2266,-3.25,-3.2832,0.0,0.0,0.0,0.0,0.0,0.0,0.0,0.0,0.0,0.0,-1.0437,-1.0185,-0.9463,-0.8427,-0.804,0.0,0.0,0.0,0.0,0.0,0.0,0.0,0.0,0.0,0.0,-0.8845,-0.8608,-0.9942,-1.0277,-1.0445,-1.0445,-1.0542,-0.9845,-0.8484,-0.8247,0.0,0.0,0.0,0.0,0.0,0.0,0.0,0.0,0.0,0.0,0.0,-0.7173,-0.8084,0.0,0.0,0.0,0.0,0.0,0.0,0.0,0.0,-1.3801,-1.3948,-1.398,0.0,-1.4593,-1.4389,-1.4593,-1.481,0.0,-1.5447,-1.6499,-1.7929,-1.9217,-2.0421,-2.1554,-2.2344,-2.2871,-2.2969,-2.3535,-2.4355,-2.543,-2.832,0.0,-3.2617,-3.4453,-3.5293,0.0,0.0,0.0,0.0,0.0,-3.6309,-3.666,-3.668,-3.668,-3.668,-3.5937,-3.5547,-3.5547,-3.5332,-3.4941,-3.4375,-3.418,-3.373,-3.3105,-3.332,-3.3242,0.0,0.0,0.0,-3.3418,-3.3418,-3.3359,-3.3281,-3.3281,-3.3223,-3.3125,-3.3125,-3.3184,-3.3281,0.0,0.0,0.0,0.0,0.0,0.0,0.0,0.0,0.0,0.0,0.0,0.0,0.0,0.0,0.0,0.0,0.0,0.0,0.0,0.0,0.0,0.0,0.0,0.0,0.0,-0.9928,-0.9902,-1.1519,-1.1794,-1.1982,-1.2092,-1.2103,-1.1426,-1.0045,-0.963,0.0,0.0,0.0,0.0,0.0,-0.8613,0.0,0.0,0.0,0.0,0.0,-0.8313,-0.914,0.0,-1.0808,-1.1777,-1.2876,0.0,0.0,0.0,0.0,-1.3961,-1.4015,-1.3721,-1.3961,-1.4202,-1.3951,-1.4148,-1.4556,-1.4979,-1.5445,-1.6217,-1.7466,-1.8911,-2.0163,-2.0968,-2.189,-2.2754,-2.334,-2.3828,-2.4785,-2.6641,0.0,-3.1777,-3.3242,-3.4609,0.0,0.0,0.0,0.0,0.0,0.0,-3.313,0.0,-3.4258,-3.4846,-3.4656,-3.5104,-3.5391,-3.5391,-3.4785,-3.4355,-3.4082,-3.3867,-3.3535,-3.3086,-3.332,-3.3301,0.0,0.0,0.0,-3.3398,-3.3203,-3.3242,-3.3418,-3.3418,-3.3418,-3.3398,-3.3203,-3.3262,-3.3359,0.0,0.0,0.0,0.0,0.0,0.0,0.0,0.0,0.0,0.0,0.0,0.0,0.0,0.0,0.0,0.0,0.0,0.0,0.0,0.0,0.0,0.0,0.0,0.0,-1.2099,-1.0909,-1.1117,-1.3012,-1.3097,-1.3254,-1.3495,-1.3568,-1.2779,-1.1373,-1.0931,0.0,0.0,0.0,0.0,0.0,-0.9663,0.0,0.0,0.0,0.0,0.0,0.0,0.0,0.0,-1.1055,-1.1841,-1.2889,-1.316,0.0,0.0,0.0,0.0,0.0,-1.3774,-1.4175,-1.4549,-1.4122,-1.4269,-1.4756,-1.5618,-1.5738,-1.6041,-1.7155,-1.862,-1.9833,-2.0214,-2.1278,-2.2454,-2.3422,-2.4127,-2.5488,-2.8379,-3.0234,-3.1836,-3.334,-3.4336,0.0,0.0,0.0,0.0,0.0,0.0,0.0,0.0,-3.1318,-3.2322,-3.2533,-3.3918,-3.491,-3.5195,-3.4082,-3.3672,-3.3965,-3.3594,-3.3379,-3.332,-3.332,-3.3281,0.0,0.0,0.0,-3.3301,-3.2871,-3.2949,-3.332,-3.332,-3.3281,-3.3184,-3.291,-3.2988,-3.3144,0.0,0.0,0.0,0.0,0.0,0.0,0.0,0.0,0.0,0.0,0.0,0.0,0.0,0.0,0.0,0.0,0.0,0.0,0.0,0.0,0.0,0.0,0.0,-1.0913,-1.33,-1.2334,-1.2492,-1.3894,-1.4379,-1.4641,-1.4694,-1.5179,-1.4431,-1.2721,-1.2232,-1.1838,-1.1502,-1.2355,-1.2172,-1.134,-1.1008,0.0,0.0,0.0,0.0,0.0,0.0,0.0,0.0,-1.2119,-1.2629,-1.2916,-1.34,0.0,0.0,0.0,0.0,0.0,-1.4028,-1.4629,-1.5017,-1.3975,-1.4122,-1.4456,-1.4457,-1.509,-1.6102,-1.7564,-1.9085,-2.0232,-2.0544,-2.2183,-2.3313,-2.2908,0.0,-2.8398,0.0,0.0,-3.3262,-3.3887,0.0,0.0,0.0,0.0,0.0,0.0,0.0,0.0,0.0,-3.0513,-3.1208,-3.4162,-3.2805,-3.2787,-3.4277,-3.4082,-3.3828,-3.3516,-3.3457,-3.3242,-3.2891,-3.2891,-3.2695,0.0,0.0,-3.25,-3.2851,-3.2441,-3.2519,-3.2891,-3.2891,-3.2676,-3.2402,-3.2695,-3.2617,-3.2402,0.0,0.0,0.0,0.0,0.0,0.0,0.0,0.0,0.0,0.0,0.0,0.0,0.0,0.0,0.0,0.0,0.0,0.0,0.0,0.0,0.0,0.0,-1.1719,-1.2181,-1.3798,-1.3451,-1.3672,-1.4563,-1.499,-1.5284,-1.5431,-1.5551,-1.5009,-1.4015,-1.3635,-1.3294,-1.2997,-1.3264,-1.3118,-1.2675,0.0,0.0,0.0,0.0,0.0,0.0,0.0,0.0,0.0,0.0,-1.2929,-1.3066,-1.3507,0.0,0.0,0.0,0.0,0.0,-1.4282,-1.4736,-1.503,-1.4496,-1.4803,-1.5241,-1.5627,-1.644,-1.7202,-1.7204,-1.8803,-1.9865,-1.9239,0.0,-2.2188,-2.3116,0.0,-2.8182,-2.9905,-3.1577,-3.3066,0.0,0.0,0.0,0.0,0.0,0.0,0.0,0.0,0.0,0.0,0.0,-2.8219,-2.9419,-2.9791,-3.0538,-3.1715,-3.1941,-3.2473,-3.3418,-3.3184,-3.3105,-3.3125,-3.3125,-3.291,-3.25,0.0,-3.2285,-3.2422,-3.1992,-3.207,-3.2461,-3.2461,-3.2344,-3.2187,-3.2383,-3.2187,-3.1914,0.0,0.0,0.0,0.0,0.0,0.0,0.0,0.0,0.0,0.0,0.0,0.0,0.0,0.0,0.0,0.0,0.0,0.0,0.0,0.0,-1.1925,-1.2248,-1.2781,-1.3361,-1.3749,-1.4103,-1.4442,-1.4963,-1.5257,-1.5551,-1.5832,-1.5605,-1.5311,-1.495,-1.4723,-1.4456,-1.4175,-1.3868,-1.3788,-1.3814,0.0,0.0,0.0,0.0,0.0,0.0,0.0,0.0,0.0,0.0,0.0,0.0,0.0,0.0,0.0,-1.4148,-1.4188,-1.4269,-1.4629,-1.4937,-1.5255,-1.5527,-1.5629,-1.5886,-1.6693,-1.7568,-1.8103,-1.7522,-1.9216,-2.0231,-1.8422,-1.9341,0.0,-2.3569,-2.5707,-2.7375,-2.8641,-3.0351,0.0,0.0,0.0,0.0,0.0,0.0,0.0,0.0,0.0,0.0,0.0,0.0,-2.5531,-2.5819,-2.7153,-2.831,-2.9243,-2.9332,-3.0626,-3.3125,-3.2793,-3.2812,-3.3125,-3.3027,-3.2793,-3.2461,-3.2051,-3.1934,-3.1992,-3.1543,-3.1621,-3.2012,-3.2012,-3.2012,-3.2012,-3.1914,-3.1719,-3.1621,0.0,0.0,0.0,0.0,0.0,0.0,0.0,0.0,0.0,0.0,0.0,0.0,0.0,0.0,0.0,0.0,0.0,0.0,0.0,0.0,-1.3404,-1.2322,-1.3404,-1.3703,-1.2949,-1.3947,-1.4643,-1.4963,-1.5257,-1.5551,-1.5832,-1.5805,-1.5498,-1.4963,-1.4937,-1.4763,-1.4469,-1.4175,-1.4215,-1.4402,-1.3841,0.0,0.0,0.0,0.0,0.0,0.0,0.0,0.0,0.0,0.0,0.0,0.0,0.0,-1.3788,-1.4335,-1.4482,-1.4616,-1.5177,-1.5538,-1.6048,-1.7252,-1.6415,-1.5565,-1.6182,-1.7145,-1.8222,-1.942,-2.1456,-2.2244,-1.9785,-2.0031,-2.1464,-2.3845,-2.5506,-2.7018,-2.8478,0.0,0.0,0.0,0.0,0.0,0.0,0.0,0.0,0.0,0.0,0.0,0.0,0.0,0.0,-2.7867,-2.6277,-2.6106,-2.7844,-2.7177,-2.8659,-3.2266,-3.2226,-3.2226,-3.2246,-3.1836,-3.1641,-3.1582,-3.1172,-3.1211,-3.1523,-3.1113,-3.1191,-3.1562,-3.1562,-3.1562,-3.1523,-3.1133,-3.1211,-3.1582,0.0,0.0,0.0,0.0,0.0,0.0,0.0,0.0,0.0,0.0,0.0,0.0,0.0,0.0,0.0,0.0,0.0,0.0,0.0,0.0,-1.276,-1.2322,-1.3464,-1.3613,-1.2475,-1.3975,-1.4937,-1.5231,-1.5524,-1.5725,-1.5832,-1.5645,-1.5351,-1.495,-1.4776,-1.4629,-1.4496,-1.4215,-1.4362,-1.475,-1.4148,-1.3854,0.0,0.0,0.0,0.0,0.0,0.0,0.0,0.0,-1.2822,-1.2929,0.0,-1.4116,-1.4593,-1.4291,-1.5376,-1.6637,-1.6315,-1.6641,-1.7124,-1.7591,-1.6819,-1.6278,-1.7655,-1.9024,-1.9775,-1.8851,-2.0345,-2.1386,-2.0539,0.0,-2.0829,-2.3202,-2.4502,0.0,0.0,0.0,0.0,0.0,0.0,0.0,0.0,0.0,0.0,0.0,0.0,0.0,0.0,0.0,0.0,-2.4115,-2.3534,-2.3768,-2.5124,-2.5062,-2.6107,-2.8374,-2.864,-2.9382,-3.0605,-3.0456,-3.0755,-3.1504,-3.1348,-3.123,-3.1113,-3.0957,-3.0976,-3.1133,-3.1133,-3.1133,-3.1113,-3.0957,-3.1152,-3.1543,0.0,0.0,0.0,0.0,0.0,0.0,0.0,0.0,0.0,0.0,0.0,0.0,0.0,0.0,0.0,0.0,0.0,0.0,0.0,0.0,-1.2445,-1.2038,-1.322,-1.3329,-1.2204,-1.3796,-1.487,-1.5257,-1.5645,-1.5832,-1.5832,-1.5631,-1.5378,-1.5097,-1.4883,-1.4803,-1.4776,-1.4389,-1.4563,-1.5044,-1.4456,-1.4175,0.0,0.0,0.0,0.0,0.0,0.0,0.0,0.0,-1.3026,0.0,0.0,0.0,-1.5442,-1.5285,-1.6453,-1.7646,-1.7345,-1.7548,-1.7842,-1.8041,-1.7829,-1.7865,-1.9111,-1.9971,-2.0238,-1.9326,-1.9832,-2.0658,-2.1329,-2.041,0.0,0.0,-2.3148,0.0,0.0,0.0,0.0,0.0,0.0,0.0,0.0,0.0,0.0,0.0,0.0,0.0,0.0,0.0,0.0,0.0,-2.179,-2.2291,-2.2986,-2.3102,-2.3532,-2.4394,-2.5262,-2.6867,-2.9342,-2.9342,-3.0083,-3.1328,-3.1328,-3.1152,-3.0898,-3.0898,-3.0898,-3.0898,-3.0898,-3.0898,-3.0898,-3.0898,-3.1074,-3.1348,0.0,0.0,0.0,0.0,0.0,0.0,0.0,0.0,0.0,0.0,0.0,0.0,0.0,0.0,0.0,0.0,0.0,0.0,0.0,-1.3047,-1.267,-1.1595,-1.259,-1.276,-1.1934,-1.3323,-1.4376,-1.4963,-1.5538,-1.5818,-1.5818,-1.5818,-1.5671,-1.5391,-1.5391,-1.5391,-1.5351,-1.4763,-1.4856,-1.5351,-1.4763,-1.4349,-1.4095,0.0,0.0,0.0,0.0,0.0,0.0,0.0,-1.3641,-1.3845,0.0,0.0,0.0,-1.7363,-1.7466,-1.7351,-1.8055,-1.8251,-1.8349,-1.8692,-1.9592,-2.0375,-2.033,-1.9584,-1.9426,-2.1189,-2.0628,-2.0369,-2.2186,-2.0808,0.0,-2.0922,-2.1363,0.0,0.0,0.0,0.0,0.0,0.0,0.0,0.0,0.0,0.0,0.0,0.0,0.0,0.0,0.0,0.0,0.0,-2.1827,-2.1679,-2.1679,-2.1256,-2.1109,-2.1109,-2.2841,-2.5269,-2.8426,-2.8408,-2.9275,-3.0898,-3.0898,-3.0898,-3.0898,-3.0898,-3.0898,-3.0898,-3.0898,-3.0898,-3.0898,-3.0898,-3.0898,-3.0957,0.0,0.0,0.0,0.0,0.0,0.0,0.0,0.0,0.0,0.0,0.0,0.0,0.0,0.0,0.0,0.0,0.0,0.0,0.0,-1.2903,-1.283,-1.2657,-1.2857,-1.287,-1.2827,-1.3662,-1.4376,-1.4963,-1.5337,-1.5418,-1.5217,-1.5217,-1.5057,-1.479,-1.5003,-1.4977,-1.4763,-1.4589,-1.4856,-1.5351,-1.4763,-1.4723,-1.4937,0.0,0.0,0.0,0.0,0.0,0.0,0.0,0.0,0.0,0.0,0.0,0.0,-1.7629,-1.9064,-2.0708,-1.9876,-2.0132,-2.0849,-2.1327,-2.0621,-2.0043,-2.1175,-2.0972,-2.0695,-2.1484,-2.1109,-2.1163,-2.2369,-2.1712,0.0,-2.2313,-2.2332,0.0,0.0,0.0,0.0,0.0,0.0,0.0,0.0,0.0,0.0,0.0,0.0,0.0,0.0,0.0,0.0,0.0,-2.4719,-2.4673,-2.4673,-2.4579,-2.4517,-2.4517,-2.5008,-2.5741,-2.6712,-2.7931,-2.9275,-3.0898,-3.0898,-3.0898,-3.0898,-3.0898,-3.0898,-3.0898,-3.0898,-3.0898,-3.0898,-3.0898,-3.0898,-3.0918,0.0,0.0,0.0,0.0,0.0,0.0,0.0,0.0,0.0,0.0,0.0,0.0,0.0,0.0,0.0,0.0,0.0,0.0,0.0,0.0,-1.2719,-1.3001,-1.2866,-1.2946,-1.3373,-1.3961,-1.4376,-1.4616,-1.5017,-1.5137,-1.4963,-1.5084,-1.5044,-1.4883,-1.5177,-1.515,-1.4856,-1.475,-1.4963,-1.5351,-1.4883,-1.491,-1.5164,0.0,0.0,0.0,0.0,0.0,0.0,0.0,0.0,0.0,-1.7552,0.0,-1.9,-1.8522,-1.9789,-2.1283,-2.0599,-2.1118,-2.1946,-2.2299,-2.194,-2.1719,-2.2326,-2.2016,-2.17,-2.2119,-2.1657,-2.1551,-2.2483,-2.1874,0.0,-2.2608,0.0,0.0,0.0,0.0,0.0,0.0,0.0,0.0,0.0,0.0,0.0,0.0,0.0,0.0,0.0,0.0,0.0,0.0,-2.5902,-2.5984,-2.5984,-2.5984,-2.5902,-2.5753,-2.6371,-2.6662,-2.6508,-2.763,-2.9127,-3.0898,-3.0898,-3.0898,-3.0898,-3.0898,-3.0898,-3.0898,-3.0898,-3.0898,-3.0898,-3.0898,-3.0898,-3.0898,0.0,0.0,0.0,0.0,0.0,0.0,0.0,0.0,0.0,0.0,0.0,0.0,0.0,0.0,0.0,0.0,0.0,0.0,0.0,0.0,0.0,0.0,0.0,-1.3133,-1.3707,-1.4242,-1.4389,-1.4122,-1.4656,-1.491,-1.4897,-1.5204,-1.5337,-1.5324,-1.5645,-1.5618,-1.5297,-1.503,-1.507,-1.5297,-1.503,-1.4937,-1.4963,-1.4937,0.0,0.0,0.0,0.0,0.0,0.0,0.0,0.0,-1.8851,-1.9225,-1.9445,-1.9908,-2.0117,-2.0234,-2.0644,-2.1387,-2.2109,-2.2318,-2.3782,-2.4785,-2.3634,-2.3107,-2.2848,-2.2862,-2.2164,-2.1777,-2.2285,-2.1724,-2.1456,0.0,0.0,0.0,0.0,0.0,0.0,0.0,0.0,0.0,0.0,0.0,0.0,0.0,0.0,0.0,0.0,0.0,0.0,-2.5796,-2.6148,-2.6453,-2.6419,-2.6419,-2.6114,0.0,-2.7176,-2.7712,-2.7368,-2.7767,-2.9021,-3.0898,-3.0898,-3.0898,-3.0898,-3.0898,-3.0898,-3.0898,-3.0898,-3.0898,-3.0898,-3.0898,-3.0898,-3.0898,0.0,0.0,0.0,0.0,0.0,0.0,0.0,0.0,0.0,0.0,0.0,0.0,0.0,0.0,0.0,0.0,0.0,0.0,0.0,0.0,0.0,0.0,0.0,0.0,-1.4322,-1.4456,-1.4496,-1.4429,-1.4549,-1.4496,-1.4282,-1.4816,-1.4937,-1.4736,-1.5257,-1.5204,-1.4696,-1.4643,-1.4656,-1.4696,-1.4643,-1.4763,-1.4937,-1.471,-1.4536,0.0,0.0,0.0,0.0,0.0,0.0,0.0,-2.0675,-2.1216,-2.1742,-2.15,-2.1699,-2.1973,-2.207,-2.2734,-2.368,-2.5121,-2.6509,-2.7129,-2.6011,-2.5755,-2.5184,-2.2681,-2.2205,-2.2205,-2.2098,-2.1924,0.0,0.0,0.0,0.0,0.0,0.0,0.0,0.0,0.0,0.0,0.0,0.0,0.0,0.0,0.0,0.0,0.0,0.0,0.0,-2.9125,-2.9559,-2.9615,-2.9257,-2.9257,-2.9049,0.0,-2.9012,-2.9199,-2.9122,-2.9526,-3.0084,-3.0898,-3.0898,-3.0898,-3.0898,-3.0898,-3.0898,-3.0898,-3.0898,-3.0898,-3.0898,-3.0898,-3.0898,-3.0898,0.0,0.0,0.0,0.0,0.0,0.0,0.0,0.0,0.0,0.0,0.0,0.0,0.0,0.0,0.0,0.0,0.0,0.0,0.0,0.0,0.0,0.0,0.0,0.0,-1.4522,-1.4389,-1.4309,-1.4309,-1.4175,-1.4162,-1.4309,-1.475,-1.495,-1.495,-1.5257,-1.515,-1.4723,-1.4576,-1.4522,-1.4522,-1.4522,-1.4616,-1.4736,-1.4576,-1.4429,-1.4538,-1.5937,0.0,0.0,0.0,0.0,0.0,0.0,0.0,-2.2129,-2.1699,-2.1875,-2.2207,-2.2207,-2.2988,-2.4355,-2.6719,-2.7567,-2.7807,-2.7643,-2.7202,-2.6455,-2.4675,-2.3782,-2.3328,-2.3159,-2.249,0.0,0.0,0.0,0.0,0.0,0.0,0.0,0.0,0.0,0.0,0.0,0.0,0.0,0.0,0.0,0.0,0.0,-3.0,-3.0156,-2.9902,-3.0332,-3.0351,-2.9902,-2.9902,-2.9687,-2.9258,-2.9258,-2.9258,-2.9277,-2.9707,-3.0137,-3.0566,-3.0566,-3.0684,-3.0898,-3.0898,-3.0898,-3.0898,-3.0898,-3.0898,-3.0898,-3.0898,-3.0898,-3.0898,0.0,0.0,0.0,0.0,0.0,0.0,0.0,0.0,0.0,0.0,0.0,0.0,0.0,0.0,0.0,0.0,0.0,0.0,0.0,0.0,0.0,0.0,-1.4202,0.0,-1.4589,-1.4309,-1.4162,-1.4162,-1.3868,-1.4041,-1.4683,-1.487,-1.5124,-1.5391,-1.5391,-1.5231,-1.495,-1.4643,-1.4496,-1.4442,-1.4442,-1.4442,-1.4442,-1.4442,-1.4295,-1.4334,-1.6273,-1.7221,-1.7809,-2.0111,0.0,0.0,0.0,0.0,-2.2031,-2.166,-2.1758,-2.2012,-2.209,-2.3086,-2.4805,-2.7598,-2.8106,-2.8101,-2.8974,-2.8377,-2.7452,-2.752,-2.6056,-2.4698,-2.4698,0.0,0.0,0.0,0.0,0.0,0.0,0.0,0.0,0.0,0.0,0.0,0.0,0.0,0.0,0.0,0.0,0.0,-2.9877,-2.9643,-2.9531,-2.9453,-2.9863,-2.9883,-2.9453,-2.9453,-2.9238,-2.8809,-2.8809,-2.8848,-2.8926,-2.9219,-2.9629,-3.0098,-3.0156,-3.041,-3.0781,-3.0859,-3.0898,-3.0898,-3.0898,-3.0898,-3.0898,-3.0898,-3.0898,-3.0898,0.0,0.0,0.0,0.0,0.0,0.0,0.0,0.0,0.0,0.0,0.0,0.0,0.0,0.0,0.0,0.0,0.0,0.0,-1.3521,0.0,0.0,-1.3546,-1.4202,-1.4643,-1.4897,-1.4616,-1.4469,-1.4469,-1.4175,-1.4456,-1.5271,-1.507,-1.5124,-1.5391,-1.5391,-1.5231,-1.495,-1.4643,-1.4376,-1.4148,-1.4148,-1.4148,-1.4148,-1.4148,-1.4122,-1.425,-1.5462,-1.679,-1.8062,-1.9352,-2.0938,0.0,0.0,0.0,-2.2969,-2.291,-2.2676,-2.25,-2.2871,-2.4199,-2.5937,-2.7812,-2.8474,-2.908,-3.0316,-3.0219,-2.9852,0.0,-2.8114,-2.608,0.0,0.0,0.0,0.0,0.0,0.0,0.0,0.0,0.0,0.0,0.0,0.0,0.0,0.0,0.0,0.0,0.0,0.0,-3.0805,-3.0108,-2.9394,-2.9023,-2.9434,-2.9453,-2.9004,-2.9004,-2.8789,-2.8379,-2.8379,-2.8574,-2.8906,-2.8594,-2.8887,-2.9668,-3.0039,-3.0234,-3.0312,-3.0723,-3.0898,-3.0898,-3.0898,-3.0898,-3.0898,-3.0898,-3.0898,-3.0898,0.0,0.0,0.0,0.0,0.0,0.0,0.0,0.0,0.0,0.0,0.0,0.0,0.0,0.0,0.0,-1.3887,-1.3206,-1.2885,-1.3145,-1.3342,-1.3507,-1.3559,-1.4055,-1.4416,-1.471,-1.4269,-1.4108,-1.4282,-1.3988,-1.4295,-1.515,-1.519,-1.5538,-1.6112,-1.5778,-1.5565,-1.5418,-1.4963,-1.4696,-1.4576,-1.4576,-1.4482,-1.4349,-1.4509,-1.4469,-1.4521,-1.5762,-1.6682,-1.7525,-1.9519,-2.0778,-2.1644,-2.2515,0.0,0.0,0.0,-2.3008,-2.2949,-2.3379,-2.4238,-2.541,-2.7148,-2.7891,-2.8555,-2.9863,-3.0,-2.9902,-3.0117,-2.9085,0.0,0.0,0.0,0.0,0.0,0.0,0.0,0.0,0.0,0.0,0.0,0.0,0.0,0.0,0.0,0.0,0.0,0.0,-3.0442,-3.1377,-3.0209,-2.9375,-2.8926,-2.9355,-2.9258,-2.8574,-2.8574,-2.8476,-2.8301,-2.8301,-2.8398,-2.8555,-2.8379,-2.875,-2.957,-2.9512,-2.9609,-2.9883,-3.0312,-3.0508,-3.0527,-3.0781,-3.0898,-3.0898,-3.0898,-3.0898,-3.0898,0.0,0.0,0.0,0.0,0.0,0.0,0.0,0.0,0.0,0.0,0.0,0.0,0.0,0.0,0.0,0.0,-1.3534,-1.3106,-1.2879,-1.3347,-1.3559,-1.3559,-1.3935,-1.4188,-1.4402,-1.3975,-1.3868,-1.4082,-1.3868,-1.4202,-1.5084,-1.5378,-1.5979,-1.6794,-1.6286,-1.6005,-1.5912,-1.5404,-1.5177,-1.5164,-1.4856,-1.4656,-1.4536,-1.4683,-1.4603,-1.4542,-1.576,-1.6419,-1.6991,-1.9434,-2.0517,-2.1098,-2.2591,-2.3144,0.0,0.0,0.0,-2.3203,-2.3535,-2.3926,-2.4629,-2.6133,-2.6855,-2.7539,-2.8926,0.0,-2.9316,0.0,0.0,0.0,0.0,0.0,0.0,0.0,0.0,0.0,0.0,0.0,0.0,0.0,0.0,0.0,0.0,0.0,0.0,0.0,0.0,-3.0263,-3.1354,-3.0028,-2.9101,-2.8769,-2.9082,-2.8945,-2.8301,-2.8301,-2.8301,-2.8301,-2.8301,-2.8301,-2.8301,-2.8301,-2.8633,-2.9238,-2.9023,-2.9101,-2.9453,-2.998,-3.0195,-3.0234,-3.0703,-3.0898,-3.0898,-3.0898,-3.0898,-3.0898,0.0,0.0,0.0,0.0,0.0,0.0,0.0,0.0,0.0,0.0,0.0,0.0,-1.491,-1.4515,-1.4448,-1.4926,-1.3919,-1.32,-1.3186,-1.3467,-1.3559,-1.3559,-1.3935,0.0,-1.4108,-1.4082,-1.4068,-1.4082,-1.4068,-1.4509,-1.5378,-1.5671,-1.6286,-1.7114,-1.6794,-1.6513,-1.6233,-1.5912,-1.5792,-1.5685,-1.4576,-1.4295,-1.4496,-1.4229,-1.4122,-1.4188,-1.4851,-1.5828,-1.7079,-1.866,-2.0076,-2.1444,-2.2668,-2.3144,-2.3144,0.0,0.0,0.0,-2.3164,-2.3496,-2.4043,-2.4941,-2.5508,-2.6269,0.0,0.0,-2.8594,0.0,0.0,0.0,0.0,0.0,0.0,0.0,0.0,0.0,0.0,0.0,0.0,0.0,0.0,0.0,0.0,0.0,0.0,0.0,0.0,-2.9206,-3.1021,-2.9393,-2.8359,-2.832,-2.834,-2.834,-2.8301,-2.8301,-2.8301,-2.8301,-2.8301,-2.8301,-2.8301,-2.8301,-2.832,-2.8379,-2.875,-2.8926,-2.9023,-2.9863,-3.0195,-3.0234,-3.0703,-3.0898,-3.0898,-3.0898,-3.0898,-3.0898,0.0,0.0,0.0,0.0,0.0,0.0,0.0,0.0,0.0,0.0,0.0,0.0,0.0,-1.5861,-1.5906,-1.5381,-1.4756,-1.4175,-1.3801,-1.4041,-1.4041,-1.3585,-1.4108,-1.4282,-1.4095,-1.4269,-1.4269,0.0,0.0,-1.4349,-1.4843,-1.5324,-1.5725,-1.6046,-1.65,-1.6647,-1.6513,-1.6032,-1.5832,-1.5778,-1.5164,-1.4883,-1.479,-1.4683,-1.4536,-1.4416,-1.4816,-1.5431,-1.623,-1.8386,-1.9558,-2.0494,-2.2492,-2.3144,-2.3144,-2.3144,-2.3144,-2.3144,-2.3144,-2.3242,-2.3574,-2.4434,-2.4766,-2.5195,-2.6387,-2.6875,-2.7226,-2.7812,0.0,0.0,0.0,0.0,0.0,0.0,0.0,0.0,0.0,0.0,0.0,0.0,0.0,0.0,0.0,0.0,0.0,0.0,0.0,0.0,-3.0559,-2.9347,-2.8574,-2.8301,-2.8555,-2.8574,-2.8301,-2.8301,-2.8301,-2.8301,-2.8301,-2.8301,-2.8301,-2.8301,-2.8301,-2.8301,-2.8457,-2.8516,-2.8574,-2.9453,-2.9785,-2.9863,-3.0605,-3.0898,-3.0898,-3.0898,-3.0898,-3.0898,0.0,0.0,0.0,0.0,0.0,0.0,0.0,0.0,0.0,-1.5044,0.0,0.0,0.0,0.0,-1.6239,-1.5349,-1.507,-1.4803,-1.4402,-1.4563,-1.4496,-1.4108,-1.4456,-1.4536,-1.4242,-1.4522,0.0,0.0,0.0,0.0,0.0,-1.5124,-1.5444,-1.5565,-1.6259,-1.662,-1.6673,-1.6286,-1.6126,-1.6059,-1.5378,-1.5164,-1.5244,-1.515,-1.5044,-1.5017,-1.5404,-1.5551,-1.5896,-1.843,-1.9216,-1.9692,-2.2277,-2.3144,-2.3144,-2.3144,-2.3144,-2.3144,-2.3144,-2.3144,-2.3301,-2.4023,-2.4199,-2.4434,-2.5312,0.0,-2.6113,0.0,0.0,0.0,0.0,0.0,0.0,0.0,0.0,0.0,0.0,0.0,0.0,0.0,0.0,0.0,0.0,0.0,0.0,0.0,0.0,0.0,-2.9618,-2.9073,-2.8574,-2.8301,-2.8574,-2.8574,-2.8301,-2.8301,-2.8301,-2.8301,-2.8301,-2.8301,-2.8301,-2.8301,-2.8301,-2.8301,-2.8301,-2.8301,-2.8359,-2.9062,-2.9434,-2.9648,-3.0371,-3.0762,-3.0898,-3.0898,-3.0898,-3.0898,0.0,0.0,0.0,0.0,0.0,0.0,0.0,0.0,-1.507,-1.5351,0.0,0.0,0.0,0.0,0.0,-1.503,-1.499,-1.499,-1.4977,-1.4977,-1.4977,-1.4963,-1.4977,-1.4843,-1.4536,0.0,0.0,0.0,0.0,0.0,0.0,0.0,-1.5551,-1.5818,-1.6139,-1.642,-1.6673,-1.6673,-1.6687,-1.6567,-1.5124,-1.5057,-1.5792,-1.5498,-1.5565,-1.5872,-1.6446,-1.6299,-1.6183,-1.8656,-1.9159,-1.9301,-2.2202,-2.3144,-2.3144,-2.3144,-2.3144,-2.3144,0.0,0.0,0.0,-2.3672,-2.3769,0.0,-2.4824,0.0,-2.5273,0.0,0.0,0.0,0.0,0.0,0.0,0.0,0.0,0.0,0.0,0.0,0.0,0.0,0.0,0.0,0.0,0.0,0.0,0.0,0.0,-2.8301,-2.8301,-2.8301,-2.8301,-2.8301,-2.8301,-2.8301,-2.8301,-2.8301,-2.8301,-2.8301,-2.8301,-2.8301,-2.8301,-2.8301,-2.8301,-2.8301,-2.8301,-2.8301,-2.832,-2.875,-2.918,-2.9609,-3.0039,-3.0488,-3.0898,-3.0898,-3.0898,-3.0898,0.0,0.0,0.0,0.0,0.0,-1.5391,-1.5391,-1.515,-1.507,0.0,0.0,0.0,-1.5685,-1.5712,-1.5765,-1.5899,-1.5712,-1.5498,-1.5297,-1.5284,-1.5177,-1.4977,-1.5164,-1.5137,-1.4843,0.0,0.0,0.0,0.0,0.0,0.0,0.0,0.0,0.0,-1.6416,-1.6677,-1.7399,-1.6443,-1.6192,-1.6326,-1.5484,-1.5418,-1.5778,-1.5271,-1.5137,-1.5217,-1.5391,-1.5471,-1.5882,-1.8398,-1.9472,-2.0205,-2.282,-2.3398,-2.3144,-2.3144,-2.3144,-2.3144,-2.3144,0.0,0.0,0.0,0.0,0.0,0.0,0.0,0.0,0.0,0.0,0.0,0.0,0.0,0.0,0.0,0.0,0.0,0.0,0.0,0.0,0.0,0.0,0.0,0.0,0.0,0.0,0.0,-2.8301,-2.8301,-2.8301,-2.8301,-2.8301,-2.8301,-2.8301,-2.8301,-2.8301,-2.8301,-2.8301,-2.8301,-2.8301,-2.8301,-2.8301,-2.8301,-2.8301,-2.8301,-2.8301,-2.8301,-2.832,-2.875,-2.918,-2.9609,-3.0039,-3.0488,-3.0898,-3.0898,-3.0898,-3.0898,0.0,0.0,0.0,0.0,0.0,-1.5765,-1.5765,-1.5618,-1.5565,0.0,0.0,0.0,-1.5979,-1.6233,-1.6353,-1.6286,-1.6112,-1.5885,-1.5591,-1.5578,-1.5498,-1.5337,-1.5484,-1.5444,-1.515,-1.5431,-1.5378,0.0,0.0,0.0,0.0,0.0,0.0,-1.6478,0.0,0.0,0.0,0.0,0.0,0.0,-1.5578,0.0,0.0,-1.5645,-1.5658,-1.5872,-1.5872,-1.6608,-1.7775,-1.9236,-2.0651,-2.2077,-2.3166,-2.3477,-2.3418,-2.3418,-2.3281,-2.3144,-2.3144,-2.3262,-2.3418,-2.3418,0.0,0.0,-2.3184,-2.334,0.0,0.0,0.0,0.0,0.0,0.0,0.0,0.0,0.0,0.0,0.0,0.0,0.0,0.0,0.0,0.0,0.0,0.0,0.0,-2.8301,-2.8301,-2.8495,-2.9112,-2.9112,-2.9112,-2.9112,-2.9112,-2.89,-2.8301,-2.8301,-2.8301,-2.8301,-2.8301,-2.8301,-2.8301,-2.8301,-2.8301,-2.8301,-2.8301,-2.8301,-2.832,-2.875,-2.918,-2.9609,-3.0039,-3.0488,-3.0898,-3.0898,-3.0898,-3.0898,0.0,0.0,-1.5845,-1.5872,-1.6099,-1.6286,-1.6313,-1.6326,-1.6339,0.0,-1.6166,-1.6112,-1.6339,-1.6807,-1.6901,-1.6406,-1.6286,-1.6126,-1.5885,-1.5845,-1.5832,-1.5832,-1.5832,-1.5712,-1.5444,-1.5698,-1.5578,0.0,0.0,0.0,0.0,0.0,-1.5537,-1.5643,0.0,0.0,0.0,0.0,0.0,-1.5994,-1.5724,-1.5981,0.0,0.0,-1.6819,-1.7203,-1.7333,-1.8726,-2.045,-2.0818,-2.247,-2.4297,-2.3574,-2.3516,-2.373,-2.3769,-2.3477,-2.3144,-2.3203,-2.3496,-2.3809,-2.3848,-2.3887,0.0,-2.334,-2.3262,-2.3262,0.0,0.0,0.0,0.0,0.0,0.0,0.0,0.0,0.0,0.0,0.0,0.0,0.0,0.0,0.0,0.0,-2.8496,-2.8223,-2.8223,-2.8329,-2.8926,-2.9933,-3.0182,-3.0224,-3.012,-3.012,-2.9513,-2.8281,-2.8301,-2.8301,-2.8301,-2.8301,-2.8301,-2.8301,-2.8301,-2.8301,-2.8301,-2.8301,-2.8301,-2.832,-2.8789,-2.9219,-2.9609,-3.0039,-3.0488,-3.0898,-3.0898,-3.0898,-3.0898,-1.5765,-1.5832,-1.5899,-1.6139,-1.6233,-1.6353,-1.658,-1.662,-1.6714,-1.6954,-1.7128,-1.7168,-1.6994,-1.686,-1.6847,-1.6967,-1.6326,-1.5992,-1.6179,-1.5965,-1.5832,-1.5832,-1.5832,-1.5805,-1.5752,-1.5805,-1.5778,-1.5658,0.0,0.0,0.0,-1.5712,-1.6303,-1.7223,0.0,0.0,0.0,0.0,0.0,-1.7311,-1.7252,0.0,-1.8243,-1.7882,-1.7358,-1.7022,-1.8455,-1.9388,-2.0308,-2.2529,-2.3821,-2.4453,-2.4629,-2.4043,-2.334,-2.3691,-2.3477,-2.3223,-2.3574,-2.373,-2.3867,-2.4219,-2.4551,0.0,-2.3848,-2.3926,-2.3965,0.0,0.0,0.0,0.0,0.0,0.0,0.0,0.0,0.0,0.0,0.0,0.0,0.0,0.0,0.0,0.0,-2.8242,-2.7793,-2.7793,-2.8776,-2.9085,-2.8296,-2.9517,-2.9807,-2.8688,-2.8708,-2.8601,-2.8301,-2.8301,-2.8301,-2.8301,-2.8301,-2.8301,-2.8301,-2.8301,-2.8301,-2.8301,-2.8301,-2.8301,-2.8359,-2.9121,-2.9492,-2.9609,-3.0039,-3.0488,-3.0898,-3.0898,-3.0898,-3.0898,-1.5805,-1.5832,-1.5925,-1.6219,-1.6393,-1.6593,-1.6887,-1.6927,-1.6981,-1.7128,-1.7395,-1.7475,-1.7181,-1.7288,-1.7248,-1.6954,-1.6526,-1.6206,-1.6059,-1.5912,-1.5832,-1.5832,-1.5832,-1.5832,-1.5832,-1.5832,-1.5832,-1.5832,0.0,0.0,0.0,-1.5832,-1.6035,-1.6536,-1.6048,-1.6103,0.0,0.0,-1.8156,-1.9415,-1.9083,0.0,-1.9099,-1.9099,-1.9028,-1.9124,-2.0263,-2.1436,-2.2585,-2.3842,-2.4362,-2.438,-2.3172,-2.3052,-2.328,-2.3374,-2.3553,-2.3828,-2.4043,-2.4258,-2.4434,-2.4414,-2.4258,0.0,0.0,-2.3074,-2.3186,-2.2588,-2.3166,0.0,0.0,0.0,0.0,0.0,0.0,0.0,0.0,0.0,0.0,0.0,0.0,0.0,0.0,-2.7598,-2.7732,-2.8634,-2.9351,-2.974,-2.9971,-3.0799,-3.0721,-2.9303,-2.9303,-2.9106,-2.8594,-2.8398,-2.8398,-2.8594,-2.8398,-2.8301,-2.8301,-2.8301,-2.8301,-2.8301,-2.8301,-2.8418,-2.8633,-2.9062,-2.9492,-2.9922,-3.0371,-3.0684,-3.0898,-3.0898,-3.0898,-3.0898,-1.5818,-1.5832,-1.5925,-1.6219,-1.6513,-1.6807,-1.7101,-1.7194,-1.7248,-1.7315,-1.7622,-1.7729,-1.7435,-1.7729,-1.7756,-1.7261,-1.6794,-1.6486,-1.6353,-1.6019,-1.5832,-1.5832,-1.5832,-1.5805,-1.5752,-1.5805,-1.5832,-1.5832,0.0,0.0,0.0,0.0,-1.5738,-1.5578,-1.5752,-1.5885,-1.6019,0.0,0.0,-2.0557,0.0,-2.0085,-1.9919,-2.0406,-2.0636,-2.0564,-2.142,-2.2927,-2.4595,-2.4307,-2.4275,-2.4017,-2.1661,-2.1841,-2.2927,-2.2779,-2.3404,-2.4066,-2.3862,-2.4393,-2.4756,-2.4184,-2.3487,-2.2726,0.0,0.0,0.0,0.0,0.0,0.0,0.0,0.0,0.0,0.0,0.0,0.0,0.0,0.0,0.0,0.0,0.0,0.0,0.0,-2.707,-2.758,-2.8835,-2.9387,-3.0168,-3.1236,-3.1737,-3.1316,-2.9911,-2.9911,-2.957,-2.8789,-2.8535,-2.8535,-2.8789,-2.8535,-2.8379,-2.8301,-2.8301,-2.8301,-2.8301,-2.8301,-2.8535,-2.8926,-2.8926,-2.9414,-3.0234,-3.0605,-3.082,-3.0898,-3.0898,-3.0898,-3.0898,-1.5778,-1.5832,-1.5925,-1.6219,-1.6513,-1.6807,-1.7101,-1.7368,-1.7635,-1.7903,-1.8424,-1.8664,-1.837,-1.7916,-1.8023,-1.8985,-1.7141,-1.6567,-1.809,-1.6714,-1.5832,-1.5832,-1.5832,-1.5712,-1.5444,-1.5698,-1.5832,-1.5832,-1.5832,0.0,0.0,-1.5832,-1.5952,-1.6166,-1.5939,-1.6112,-1.6706,0.0,-1.8476,0.0,-1.9942,-2.0765,0.0,-2.225,-2.0748,-1.8213,-2.0163,-2.2021,-2.3503,0.0,-2.2822,-2.2716,-2.2339,-2.1788,-2.123,-2.1611,-2.2339,-2.2991,-2.2045,-2.3007,-2.4003,-2.2959,-2.2745,-2.2474,-2.1744,0.0,-2.334,-2.2506,0.0,0.0,0.0,0.0,0.0,0.0,0.0,0.0,0.0,0.0,0.0,0.0,0.0,0.0,0.0,0.0,-2.6719,-2.6192,-2.8366,-2.9104,-2.766,-2.9477,-2.9911,-2.8601,-2.8495,-2.8514,-2.8359,-2.8691,-2.8691,-2.8359,-2.8691,-2.8652,-2.8301,-2.8301,-2.8301,-2.8301,-2.8301,-2.8535,-2.8926,-2.8926,-2.9414,-3.0195,-3.0254,-3.0527,-3.0898,-3.0898,-3.0898,-3.0898,-1.5484,-1.5712,-1.5925,-1.6219,-1.638,-1.6607,-1.7074,-1.7542,-1.7889,-1.8023,-1.841,-1.8691,-1.8731,-1.8517,-1.849,-1.8824,-1.7782,-1.7288,-1.7689,-1.6847,-1.642,-1.6593,-1.6433,-1.6273,-1.6166,-1.6112,-1.6005,-1.5832,-1.5832,-1.5912,0.0,-1.6086,-1.6152,-1.6273,-1.6139,0.0,-1.646,0.0,-1.7995,0.0,0.0,0.0,0.0,-2.126,-2.108,-2.0496,-2.1597,-2.2419,-2.2914,0.0,-2.154,0.0,0.0,-2.0091,-2.077,-2.0327,-2.1241,-2.2401,-2.194,-2.2398,-2.2876,-2.2402,-2.1857,-2.1339,-2.0856,-2.1306,-2.1996,-2.252,0.0,0.0,0.0,0.0,0.0,0.0,-2.6016,0.0,0.0,0.0,0.0,0.0,0.0,0.0,0.0,0.0,0.0,0.0,0.0,-2.937,-2.8574,-2.9663,-2.9723,-2.8281,-2.8301,-2.8418,-2.8652,-2.8594,-2.8594,-2.8652,-2.8594,-2.8457,-2.8301,-2.8301,-2.8301,-2.8301,-2.8555,-2.8906,-2.9297,-2.9297,-2.9805,-3.0566,-3.0293,-3.0488,-3.0898,-3.0898,-3.0898,-3.0898,-1.5297,-1.5565,-1.5805,-1.6099,-1.6219,-1.65,-1.7168,-1.7622,-1.7996,-1.825,-1.8477,-1.8784,-1.9239,-1.9145,-1.9158,-1.9426,-1.8744,-1.8196,-1.8009,-1.7422,-1.7061,-1.7034,-1.6967,-1.6834,-1.6593,-1.654,-1.6366,-1.6072,-1.6072,-1.6219,0.0,-1.6433,-1.6473,-1.6633,-1.6553,-1.6513,-1.6526,0.0,-1.7452,-1.8396,-1.8484,-1.8702,-1.9038,-1.9453,-2.048,-2.157,-2.1401,-2.138,-2.1399,-2.0104,-1.9968,0.0,-1.8208,0.0,-1.986,-1.9051,-2.0025,-2.1362,-2.1055,0.0,0.0,0.0,0.0,0.0,0.0,0.0,0.0,-2.1894,0.0,0.0,0.0,0.0,-2.5887,-2.6443,0.0,-2.5781,0.0,0.0,0.0,0.0,0.0,0.0,0.0,0.0,0.0,-2.7455,-2.8384,-2.8899,-2.8796,-2.9332,-2.9181,-2.8281,-2.8301,-2.8437,-2.875,-2.8555,-2.8555,-2.875,-2.8555,-2.8398,-2.8301,-2.8301,-2.8301,-2.832,-2.8613,-2.9062,-2.9551,-2.9434,-2.998,-3.084,-3.0371,-3.0488,-3.0898,-3.0898,-3.0957,-3.1055,-1.5337,-1.5404,-1.5498,-1.5792,-1.6086,-1.6567,-1.7435,-1.7582,-1.7903,-1.8784,-1.8905,-1.9239,-2.0094,-1.9693,-2.0027,-2.1724,-2.004,-1.9252,-2.008,-1.8798,-1.7622,-1.6754,-1.7261,-1.7154,-1.6299,-1.6834,-1.6981,-1.6673,-1.6673,-1.6834,0.0,-1.6834,-1.6994,-1.7528,-1.7248,-1.7114,-1.7114,-1.7128,-1.6908,-1.6424,-1.6706,-1.7002,-1.7257,0.0,-1.8334,-1.9494,-1.7894,0.0,0.0,-1.805,-1.825,0.0,0.0,0.0,0.0,0.0,0.0,0.0,0.0,0.0,0.0,-1.9814,0.0,0.0,0.0,0.0,-2.0505,0.0,-2.1679,-2.3051,-2.4542,-2.4548,-2.4812,-2.671,-2.6289,0.0,0.0,0.0,0.0,0.0,0.0,0.0,0.0,0.0,0.0,-2.529,-2.6408,-2.6957,-2.6545,-2.7329,-2.7976,-2.8281,-2.8301,-2.8301,-2.832,-2.8711,-2.8711,-2.832,-2.8711,-2.8691,-2.8301,-2.8301,-2.8301,-2.8301,-2.8301,-2.8789,-2.9531,-2.9121,-2.9707,-3.084,-3.0371,-3.0488,-3.0898,-3.0898,-3.1152,-3.1504,-1.5591,-1.5524,-1.5484,-1.5778,-1.5912,-1.6273,-1.7168,-1.7969,0.0,0.0,-1.996,-2.0494,-2.1563,-2.1496,-2.163,-2.2218,-2.1283,-2.0628,-2.0535,-1.9693,-1.9065,-1.8771,-1.8758,-1.8531,-1.8036,-1.7836,-1.7502,-1.6994,-1.6807,-1.686,-1.7244,-1.7048,-1.7208,-1.7569,-1.7275,-1.7034,0.0,0.0,0.0,0.0,0.0,-1.7301,-1.7702,0.0,0.0,-1.8185,-1.7671,-1.7569,0.0,-1.7983,-1.8116,-1.8156,-1.7956,-1.8023,-1.8063,-1.7475,-1.8126,0.0,0.0,0.0,-1.9597,-1.9166,0.0,0.0,0.0,0.0,0.0,0.0,0.0,-2.2245,-2.3897,-2.381,-2.3946,-2.5326,-2.5274,-2.5282,0.0,-2.6074,0.0,0.0,0.0,0.0,0.0,0.0,0.0,-2.5137,-2.5762,-2.6113,0.0,-2.6777,-2.7441,-2.7871,-2.8144,-2.8301,-2.8301,-2.8437,-2.8437,-2.8301,-2.8437,-2.8437,-2.8301,-2.8301,-2.8437,-2.873,-2.9004,-2.9297,-2.9609,-3.0039,-3.0312,-3.0449,-3.0586,-3.0762,-3.0918,-3.1211,-3.1406,-3.1562,-1.5752,-1.5671,-1.5605,-1.5792,0.0,0.0,0.0,0.0,0.0,0.0,-2.0828,0.0,-2.2472,-2.2672,-2.2832,-2.3033,-2.2619,-2.2004,-2.1189,-2.0788,-2.0347,-1.9826,-1.9826,-1.9599,-1.9092,-1.8811,-1.833,-1.7622,-1.7542,-1.7542,-1.7622,-1.7515,-1.7569,-1.7742,-1.7542,-1.7181,-1.6714,-1.682,-1.658,0.0,0.0,-1.7261,0.0,0.0,-1.7462,-1.7862,0.0,-1.7502,-1.7609,-1.7809,-1.7876,-1.7849,-1.7649,-1.7849,-1.8036,-1.7355,-1.7716,-1.833,-1.8317,-1.8611,0.0,-1.9052,-1.9225,0.0,-1.9118,0.0,-1.9938,0.0,0.0,0.0,-2.2544,-2.2466,-2.2657,-2.3774,-2.4221,-2.4684,0.0,-2.6113,0.0,0.0,0.0,-2.6836,0.0,0.0,-2.6055,-2.4707,-2.5156,-2.5508,0.0,0.0,-2.707,-2.7656,-2.8066,-2.8301,-2.8301,-2.8301,-2.8301,-2.8301,-2.8437,-2.8516,-2.8516,-2.8672,-2.8887,-2.916,-2.9453,-2.9648,-2.9824,-3.0254,-3.043,-3.0449,-3.0586,-3.0742,-3.0937,-3.1367,-3.1719,-3.2031,-1.5832,-1.5845,-1.5885,0.0,-1.638,0.0,0.0,0.0,-2.004,0.0,-2.151,-2.2285,-2.2899,-2.322,-2.3621,-2.4195,-2.3968,-2.33,-2.2151,-2.2044,-2.1403,-1.9987,-2.0454,-2.0334,-1.9466,-1.9693,-1.9412,-1.8557,-1.8771,-1.8744,-1.8477,-1.817,-1.8023,-1.8023,-1.7996,0.0,-1.6727,-1.7007,-1.6647,-1.5899,-1.6179,-1.6834,-1.7595,-1.7288,-1.7716,-1.837,-1.7488,-1.7341,-1.7582,-1.7582,-1.7582,-1.7582,-1.7582,-1.7595,-1.7555,-1.7261,-1.7609,-1.809,-1.805,-1.849,-1.9011,-1.9292,0.0,0.0,0.0,0.0,-1.9386,0.0,0.0,0.0,-2.0847,-2.0758,-2.0863,-2.1989,-2.3045,-2.4097,-2.5528,-2.6014,-2.6443,0.0,0.0,-2.7324,-2.6523,-2.6777,-2.6113,-2.4004,-2.459,-2.5039,0.0,0.0,-2.6777,-2.7617,-2.8066,-2.8301,-2.8301,-2.8301,-2.8301,-2.8301,-2.8711,-2.8926,-2.8945,-2.9375,-2.959,-2.959,-2.959,-2.9824,-3.0176,-2.9785,-3.0117,-3.082,-3.0391,-3.0527,-3.0996,-3.1406,-3.207,-3.2851,-1.5872,-1.6179,-1.662,0.0,-1.7261,-1.7582,0.0,0.0,0.0,0.0,-2.2432,-2.338,-2.4396,-2.4382,-2.4449,-2.4823,-2.4382,-2.3875,-2.3354,-2.2886,-2.2378,-2.1777,-2.1683,-2.1336,-2.0681,-2.0307,-1.9907,-1.9466,-1.8664,-1.8343,-1.8477,-1.7943,-1.7702,-1.7702,-1.7702,-1.7328,-1.6714,-1.678,-1.6687,-1.6486,-1.6567,-1.7261,0.0,0.0,-1.7889,-1.8397,-1.7716,-1.7515,-1.7582,-1.7582,-1.7582,-1.7582,-1.7582,-1.7742,-1.7862,-1.7555,-1.805,-1.8651,-1.8424,-1.8798,-1.9265,-1.9345,-1.9372,-1.9372,0.0,0.0,0.0,0.0,0.0,0.0,0.0,0.0,-1.9963,-2.0786,-2.1658,-2.3067,-2.5333,-2.5164,-2.5376,-2.6851,-2.7109,-2.7226,-2.7324,-2.6855,-2.6055,-2.4824,-2.4648,0.0,0.0,0.0,0.0,-2.7168,-2.791,-2.8301,-2.8301,-2.8301,-2.8301,-2.8301,-2.8711,-2.8926,-2.8945,-2.9375,-2.9746,-3.0039,-3.0039,-3.0098,-3.0215,-3.0449,-3.0488,-3.0391,-3.0625,-3.1172,-3.1855,-3.1953,-3.2344,-3.2851,-1.6246,0.0,0.0,-1.7916,0.0,0.0,-1.9011,-1.984,0.0,-2.1683,-2.2686,0.0,-2.4235,-2.4623,-2.4903,-2.5064,-2.4783,-2.4409,-2.3981,-2.3634,-2.3193,-2.2632,-2.2458,-2.2031,-2.1323,-2.0735,-2.0227,-1.98,-1.8878,-1.845,-1.8477,-1.8009,-1.7716,-1.7582,0.0,-1.7328,-1.6887,-1.6767,-1.686,-1.7074,-1.6954,0.0,0.0,-1.7716,-1.7796,-1.805,-1.7702,-1.7582,-1.7582,-1.7582,-1.7582,-1.7582,-1.7582,-1.7889,-1.8183,-1.7876,-1.833,-1.8865,-1.8571,-1.8824,-1.9172,-1.9172,-1.9265,-1.9372,-1.9372,-1.9492,-1.9559,0.0,0.0,0.0,0.0,0.0,-1.9453,-2.0376,-2.0924,-2.2121,-2.4931,-2.4959,-2.5411,-2.7059,-2.7461,-2.7676,-2.791,-2.6992,-2.6113,-2.541,-2.4941,0.0,0.0,0.0,0.0,-2.7012,-2.8027,-2.8476,-2.8301,-2.8476,-2.8574,-2.8574,-2.9004,-2.9297,-2.9492,-2.9941,-3.0273,-3.0508,-3.0508,-3.0508,-3.0508,-3.0566,-3.0547,-3.0527,-3.0781,-3.1191,-3.166,-3.2031,-3.2559,-3.3105,-1.6874,0.0,0.0,0.0,0.0,0.0,0.0,-2.0521,0.0,-2.171,0.0,-2.3514,-2.3554,-2.4436,-2.5037,-2.5077,-2.5037,-2.4783,-2.4235,-2.4168,-2.3781,-2.2966,-2.2846,-2.2432,-2.163,-2.1002,-2.0401,-1.9853,-1.9185,-1.8744,-1.8477,-1.8143,-1.7836,-1.7582,0.0,0.0,0.0,-1.682,-1.7007,-1.7448,-1.7235,-1.7328,-1.7582,-1.7582,-1.7582,-1.7582,-1.7582,-1.7582,-1.7582,-1.7582,-1.7582,-1.7582,-1.7582,-1.7969,-1.837,-1.8076,-1.8437,-1.8865,-1.8571,-1.8731,-1.8985,-1.8985,-1.9172,-1.9372,-1.9372,-1.9372,-1.9372,-1.9372,-1.9372,-1.9292,0.0,0.0,0.0,-2.0391,-2.0426,-2.1248,-2.4123,-2.4827,-2.5609,-2.7218,-2.7824,0.0,-2.8281,-2.7246,-2.6367,-2.5937,0.0,0.0,0.0,0.0,0.0,-2.7012,-2.8203,0.0,-2.8379,0.0,-2.8945,-2.9004,-2.9453,-2.9844,-3.0215,-3.0684,-3.0898,-3.0898,-3.0898,-3.0898,-3.0859,-3.0449,-3.0527,-3.0898,-3.0898,-3.0918,-3.1055,-3.1816,-3.2617,-3.334,0.0,0.0,0.0,0.0,0.0,-2.0681,-2.1176,-2.1737,-2.2338,-2.2939,-2.3834,-2.4502,-2.4743,-2.4743,-2.481,-2.5064,-2.485,0.0,-2.4222,-2.3981,-2.3661,-2.326,-2.2766,-2.2311,-2.1924,-2.1096,-2.0508,-2.016,-1.9092,-1.8544,-1.8477,-1.7929,-1.7635,-1.7582,0.0,0.0,-1.678,-1.6727,0.0,-1.6874,-1.7074,-1.7328,-1.7582,-1.7582,-1.7582,-1.7582,-1.7582,-1.7582,-1.7582,-1.7582,-1.7582,-1.7582,-1.7582,-1.7836,-1.8063,-1.7756,-1.8263,-1.8865,-1.8571,-1.8878,-1.9292,-1.9292,-1.9332,-1.9372,-1.9372,-1.9372,-1.9372,-1.9372,-1.9372,-1.9359,-1.9305,0.0,0.0,0.0,0.0,0.0,0.0,-2.3011,-2.3802,-2.5627,-2.6636,-2.7519,-2.8223,-2.7773,-2.7266,0.0,0.0,0.0,0.0,0.0,0.0,0.0,0.0,0.0,0.0,0.0,-2.9101,-2.9453,-2.9883,-3.0117,-3.0215,-3.0684,-3.0898,-3.0898,-3.0898,-3.0898,-3.0879,-3.0801,-3.082,-3.0898,-3.0898,-3.1094,-3.1426,-3.1582,-3.2168,-3.2949,0.0,0.0,-1.9653,0.0,0.0,0.0,0.0,-2.2632,0.0,-2.3086,-2.3594,-2.4008,-2.4155,-2.4449,-2.4636,-2.4623,-2.4489,-2.4289,-2.3995,-2.3848,-2.3634,-2.334,-2.2886,-2.2445,-2.1991,-2.0975,-2.0374,-2.0227,-1.8905,-1.8343,-1.8477,-1.7862,-1.7582,-1.7569,0.0,-1.7288,0.0,0.0,0.0,-1.7168,-1.7315,-1.7462,-1.7582,-1.7582,-1.7689,-1.7809,-1.7635,-1.7689,-1.7796,-1.7635,-1.7582,-1.7582,-1.7582,-1.7796,-1.8023,-1.7862,-1.8237,-1.8664,-1.8531,-1.8811,-1.9132,-1.9132,-1.9252,-1.9372,-1.9372,-1.9372,-1.9372,-1.9372,-1.9372,-1.9372,-1.9372,-1.9252,0.0,0.0,0.0,0.0,0.0,0.0,-2.4122,-2.6616,-2.7179,-2.7598,-2.8223,0.0,0.0,0.0,0.0,0.0,0.0,0.0,0.0,0.0,0.0,0.0,0.0,0.0,0.0,-2.9902,-3.0098,-3.0332,-3.0566,-3.0781,-3.0898,-3.0898,-3.0898,-3.0898,-3.0898,-3.0898,-3.0898,-3.0898,-3.0898,-3.1016,-3.1211,-3.1445,-3.1914,-3.2519,0.0,-2.0227,0.0,0.0,-2.1309,0.0,-2.2352,-2.3193,-2.3594,-2.3113,-2.338,-2.3554,-2.3434,-2.4088,-2.4422,-2.4142,-2.4115,-2.3981,-2.3701,-2.3621,-2.3447,-2.314,-2.2779,-2.2365,-2.1897,-2.0802,-2.0147,-1.9947,-1.8731,-1.817,-1.8196,-1.7782,-1.7555,0.0,0.0,0.0,0.0,0.0,-1.7288,-1.7502,-1.7555,-1.7622,-1.7689,-1.7689,-1.7876,-1.8116,-1.7862,-1.7929,-1.8103,-1.7862,-1.7689,-1.7595,-1.7662,-1.7849,-1.8063,-1.8116,-1.8343,-1.8584,-1.8584,-1.8798,-1.9025,-1.9025,-1.9199,-1.9372,-1.9372,-1.9372,-1.9372,-1.9372,-1.9372,-1.9372,-1.9372,-1.9372,0.0,0.0,0.0,0.0,0.0,0.0,-2.4889,-2.7397,-2.7796,-2.7949,-2.8008,0.0,0.0,0.0,0.0,0.0,0.0,0.0,0.0,0.0,0.0,-2.8926,-2.8926,0.0,-2.9726,0.0,-3.0156,-3.0391,-3.0742,-3.084,-3.0898,-3.0898,-3.0898,-3.0898,-3.0898,-3.0898,-3.0898,-3.0898,-3.0898,-3.0898,-3.0937,-3.1367,-3.1797,-3.2226,0.0,0.0,0.0,0.0,0.0,0.0,-2.2405,-2.3193,-2.3754,-2.3688,-2.4168,-2.4315,-2.3794,-2.4035,-2.4128,-2.3834,-2.3808,-2.3688,-2.3394,-2.31,-2.2819,-2.2512,-2.1977,-2.1657,-2.159,-2.0695,-1.984,-1.9052,-1.8651,-1.805,0.0,-1.7488,0.0,0.0,0.0,0.0,0.0,-1.7048,-1.7168,-1.7208,-1.7475,-1.7756,-1.8009,-1.8009,-1.8183,-1.845,-1.8424,-1.8424,-1.845,-1.841,-1.8036,-1.7635,-1.7916,-1.8023,-1.8103,-1.837,-1.8651,-1.8878,-1.8878,-1.9092,-1.9332,-1.9332,-1.9345,-1.9372,-1.9372,-1.9372,-1.9372,-1.9372,-1.9372,-1.9372,-1.9372,-1.9372,-1.9372,0.0,0.0,0.0,0.0,0.0,-2.4743,-2.5595,-2.7568,-2.8359,-2.7246,-2.7793,0.0,0.0,-2.7402,0.0,0.0,0.0,0.0,-2.7031,0.0,-2.8926,-2.8926,-2.9355,0.0,-2.9629,-3.0019,-3.0215,-3.0273,-3.0703,-3.0898,-3.0898,-3.0898,-3.0898,-3.0898,-3.0898,-3.0898,-3.0898,-3.0898,-3.0898,-3.0937,-3.1367,-3.1797,-3.2226,0.0,0.0,0.0,0.0,0.0,0.0,0.0,-2.3153,-2.3434,-2.3247,-2.3741,-2.4022,-2.3794,-2.3875,-2.3821,-2.3527,-2.35,-2.33,-2.2819,-2.2659,-2.2458,-2.2164,-2.1764,-2.155,-2.155,-2.0855,-2.0241,-1.9706,-1.9239,-1.8744,0.0,0.0,0.0,0.0,0.0,-1.6914,-1.6981,-1.7101,-1.7154,-1.7194,-1.7675,-1.7929,-1.8063,-1.825,-1.849,-1.8731,-1.8557,-1.8597,-1.8731,-1.8544,-1.833,-1.8143,-1.8277,-1.8317,-1.833,-1.8464,-1.8691,-1.8918,-1.8918,-1.9145,-1.9372,-1.9372,-1.9372,-1.9372,-1.9372,-1.9506,-1.9573,-1.9399,-1.9372,-1.9426,-1.9599,-1.9626,-1.9679,0.0,0.0,0.0,0.0,0.0,0.0,-2.6517,-2.74,-2.7578,-2.707,-2.7324,0.0,0.0,0.0,0.0,0.0,0.0,0.0,-2.7793,0.0,-2.916,-2.9687,-2.9863,-3.0078,-3.0371,-3.0527,-3.0605,-3.0625,-3.0801,-3.0898,-3.0898,-3.0898,-3.0898,-3.0918,-3.1172,-3.1113,-3.0918,-3.1172,-3.1269,-3.1289,-3.1445,-3.1953,-3.2559,-2.1537,0.0,-2.1844,0.0,-2.2325,-2.2378,-2.2806,-2.3046,-2.3113,-2.2886,-2.3233,-2.35,-2.35,-2.3581,-2.3487,-2.31,-2.306,-2.2846,-2.2325,-2.2218,-2.2071,-2.1871,-2.1577,0.0,-2.143,-2.0935,-2.0441,-1.9973,-1.9573,0.0,0.0,0.0,0.0,0.0,-1.6967,-1.6954,-1.7257,-1.7235,-1.7328,-1.7462,-1.7969,-1.8223,-1.833,-1.8544,-1.8798,-1.9025,-1.8824,-1.8878,-1.9025,-1.8824,-1.8744,-1.8731,-1.8651,-1.8624,-1.8637,-1.8731,-1.8891,-1.9052,-1.9052,-1.9212,-1.9372,-1.9372,-1.9372,-1.9386,-1.9479,-1.9653,-1.9773,-1.9639,-1.9626,-1.9679,-1.9893,-1.992,-2.0,-2.0201,0.0,0.0,0.0,-2.4234,0.0,-2.7419,-2.7617,-2.7422,-2.7051,-2.7246,0.0,0.0,0.0,0.0,0.0,0.0,0.0,0.0,0.0,0.0,0.0,-3.0137,-3.0293,-3.0508,-3.0625,-3.0684,-3.0703,-3.082,-3.0898,-3.0898,-3.0898,-3.0957,-3.1094,-3.1406,-3.1426,-3.1289,-3.1601,-3.1699,-3.1719,-3.1855,-3.1899,-3.2028,-2.1496,-2.1777,-2.2071,-2.2365,-2.2659,-2.2859,-2.2859,-2.2859,-2.2859,-2.2859,-2.2873,-2.2873,-2.2873,-2.3153,-2.3086,-2.2485,-2.2432,-2.2298,-2.2004,-2.1724,-2.1563,0.0,0.0,-2.1109,-2.1109,-2.0828,-2.0254,-1.9372,0.0,0.0,-1.7595,0.0,-1.7582,-1.7569,-1.7275,-1.7244,-1.7271,-1.7462,-1.7756,-1.8063,-1.837,-1.8651,-1.8918,-1.8918,-1.9105,-1.9359,-1.9359,-1.9359,-1.9359,-1.9359,-1.9359,-1.9305,-1.9011,-1.8918,-1.8971,-1.9265,-1.9359,-1.9359,-1.9359,-1.9359,-1.9372,-1.9372,-1.9372,-1.9439,-1.9733,-1.98,-1.988,-2.016,-2.0227,-2.0227,-2.0227,-2.0227,-2.0227,-2.0227,0.0,0.0,0.0,-2.4664,0.0,-2.7477,-2.8398,-2.8398,-2.7129,-2.7773,0.0,0.0,0.0,0.0,0.0,0.0,0.0,-2.8301,-2.9531,0.0,-2.959,-3.0,-3.0,-2.959,-3.0,-3.0195,-3.0215,-3.0684,-3.0898,-3.0898,-3.0898,-3.1133,-3.1504,-3.1523,-3.1758,-3.2148,-3.2148,-3.2168,-3.2207,-3.2617,-3.174,-3.0248,-2.179,-2.2084,-2.2311,-2.2405,-2.2672,-2.2792,-2.2592,-2.2726,-2.2859,-2.2859,-2.2859,-2.2859,-2.2859,-2.2766,-2.2632,0.0,-2.2231,-2.2004,0.0,-2.1603,-2.147,-2.1256,-2.1162,-2.1109,-2.1109,-2.1015,-2.0735,-2.0254,0.0,0.0,0.0,-1.8196,-1.809,-1.7903,-1.7809,-1.7756,-1.7782,-1.8076,-1.8143,-1.809,-1.8584,-1.8838,-1.8945,-1.9145,-1.9292,-1.9372,-1.9372,-1.9372,-1.9372,-1.9372,-1.9372,-1.9359,-1.9252,-1.9225,-1.9279,-1.9573,-1.9519,-1.9412,-1.9613,-1.9519,-1.9412,-1.9613,-1.9666,-1.9733,-2.0027,-2.0094,-2.0174,-2.0468,-2.0374,-2.0294,-2.0494,-2.0535,-2.0601,-2.0802,-2.1628,0.0,0.0,0.0,-2.6514,-2.7563,-2.791,-2.7793,0.0,-2.7539,0.0,0.0,0.0,0.0,0.0,0.0,0.0,0.0,-2.9844,0.0,-3.0469,-3.0605,-3.0605,-3.0469,-3.0605,-3.0664,-3.0684,-3.082,-3.0898,-3.0898,-3.0898,-3.1133,-3.1543,-3.1836,-3.2051,-3.2207,-3.248,-3.2598,-3.2474,-3.1452,-3.0882,-3.0516,-2.1617,-2.1897,-2.2098,-2.2098,-2.2432,-2.2632,-2.2445,-2.2672,-2.2859,-2.2859,-2.2859,-2.2859,-2.2859,-2.2592,0.0,-2.2271,-2.1991,-2.1697,-2.1403,-2.139,-2.1309,-2.1122,-2.1109,-2.1109,-2.1109,0.0,0.0,-2.0681,-2.016,-1.9586,-1.8971,-1.8637,-1.845,-1.837,-1.8263,-1.821,-1.8237,-1.8531,-1.8544,-1.8424,-1.8891,-1.9092,-1.9118,-1.9292,-1.9372,-1.9372,-1.9372,-1.9372,-1.9372,-1.9372,-1.9372,-1.9372,-1.9372,-1.9372,-1.9426,-1.972,-1.9666,-1.9573,-1.9746,-1.9746,-1.9706,-1.9786,-1.988,-2.004,-2.0334,-2.0481,-2.0615,-2.0802,-2.0695,-2.0615,-2.0802,-2.0842,-2.0895,-2.1082,-2.2295,-2.3581,-2.4626,0.0,-2.716,0.0,0.0,0.0,0.0,-2.8125,0.0,0.0,0.0,0.0,0.0,0.0,0.0,-2.9785,-3.0234,0.0,-3.0898,-3.0898,-3.0898,-3.0898,-3.0898,-3.0898,-3.0898,-3.0898,-3.0898,-3.0898,-3.1055,-3.1367,-3.1797,-3.2226,-3.25,-3.2656,-3.2142,-3.2112,-3.1841,-3.0027,-2.9137,-2.8723,-2.1162,-2.1376,0.0,0.0,-2.2058,0.0,-2.2418,-2.2672,-2.2859,-2.2859,-2.2859,-2.2859,-2.2859,-2.2579,-2.2285,-2.2004,0.0,0.0,0.0,-2.1109,-2.1109,-2.1109,-2.1109,-2.1109,-2.1109,-2.1109,-2.0962,-2.0641,-1.9826,-1.9546,-1.9746,-1.8931,-1.8691,-1.8945,-1.8677,-1.8544,-1.8544,-1.8824,-1.8945,-1.8945,-1.9252,-1.9372,-1.9372,-1.9372,-1.9372,-1.9372,-1.9372,-1.9372,-1.9372,-1.9372,-1.9386,-1.9399,-1.9372,-1.9399,-1.9479,-1.9733,-1.98,-1.98,-1.9826,-2.0027,-2.0174,-1.992,-2.008,-2.0361,-2.0641,-2.0909,-2.1109,-2.1109,-2.1109,-2.1109,-2.1109,-2.1109,-2.1109,-2.1109,-2.2563,-2.3917,-2.4659,0.0,-2.7492,0.0,0.0,0.0,0.0,-2.9297,-2.9394,0.0,0.0,0.0,0.0,0.0,-2.9785,-3.0176,-3.0644,-3.0898,-3.0898,-3.0898,-3.0898,-3.0898,-3.0898,-3.0898,-3.0898,-3.0898,-3.0898,-3.0918,-3.121,-3.1618,-3.2027,-3.2351,-3.2633,-3.2854,-3.1286,-3.0642,-3.0384,-2.8689,-2.6988,-2.5592,0.0,0.0,-2.1697,-2.2138,-2.2325,-2.2418,-2.2418,-2.2672,-2.2859,-2.2859,-2.2859,-2.2859,-2.2859,-2.2392,-2.2058,-2.1991,-2.1724,-2.143,-2.1122,-2.1109,-2.1109,-2.1109,-2.1109,-2.1109,-2.1109,-2.1109,-2.0855,-2.0334,-2.0134,-1.984,-1.9466,-1.9252,-1.9199,-1.9265,-1.9199,-1.9038,-1.8838,-1.9132,-1.9132,-1.8945,-1.9252,-1.9372,-1.9372,-1.9372,-1.9372,-1.9372,-1.9372,-1.9372,-1.9372,-1.9372,-1.9519,-1.9653,-1.9439,-1.9666,-2.0,-1.984,-1.98,-1.984,-2.0067,-2.0174,-2.0267,-2.0428,-2.0695,-2.0922,-2.0989,-2.1056,-2.1109,-2.1109,-2.1109,-2.1109,-2.1109,-2.1109,-2.1109,-2.1109,-2.3212,-2.4811,-2.4727,-2.6852,0.0,0.0,-2.8672,-2.8789,-2.8476,-2.9121,-2.9394,0.0,0.0,0.0,0.0,-3.0,-3.0098,-3.0195,-3.0644,-3.0898,-3.0898,-3.0898,-3.0898,-3.0898,-3.0898,-3.0898,-3.0898,-3.0898,-3.0898,-3.0801,-2.9961,-2.9702,-2.9849,-2.9025,-2.8828,-2.9077,-2.885,-2.8821,-2.8558,-2.6839,-2.6072,-2.5677,-2.1523,-2.1456,-2.1496,-2.1951,-2.2138,-2.2218,-2.2218,-2.2592,-2.2819,-2.2672,-2.2779,-2.2806,-2.2672,-2.2378,-2.2071,-2.1817,-2.1523,-2.1283,-2.1122,-2.1109,-2.1109,-2.1109,-2.1109,-2.1109,-2.1109,-2.1109,-2.0882,-2.0441,-2.0294,-2.0,-1.9559,-1.9426,-1.9372,-1.9372,-1.9372,-1.9345,-1.9332,-1.9492,-1.9479,-1.9345,-1.9506,-1.9492,-1.9372,-1.9372,-1.9372,-1.9372,-1.9372,-1.9372,-1.9386,-1.9519,-1.9666,-1.98,-1.9773,-1.9987,-2.0201,-2.004,-2.0094,-2.0227,-2.0388,-2.0535,-2.0668,-2.0828,-2.0989,-2.1109,-2.1109,-2.1109,-2.1109,-2.1109,-2.1109,-2.1109,-2.1109,-2.1109,-2.1069,-2.0935,-2.3414,-2.514,-2.4614,-2.7286,0.0,-2.8633,-2.9121,-2.9414,-2.918,-2.9785,-2.998,-2.9531,0.0,0.0,-3.0195,-3.0391,-3.0508,-3.0508,-3.0762,-3.0976,-3.1172,-3.1387,-3.1387,-3.1172,-3.1172,-3.1172,-3.1172,-3.0976,-3.0721,-3.0231,-2.9446,-2.9382,-2.9475,-2.828,-2.8387,-2.8922,-2.7554,-2.6972,-2.6722,-2.5169,-2.4659,-2.4734,-2.1162,-2.1176,-2.1283,-2.163,-2.1884,-2.2044,-2.2044,-2.2472,-2.2699,-2.2458,-2.2605,-2.2645,-2.2445,-2.2338,-2.2084,-2.159,-2.1283,-2.1109,-2.1109,-2.1109,-2.1109,-2.1109,-2.1109,-2.1109,-2.1109,-2.1109,-2.0962,-2.0681,-2.0374,-2.008,-1.9786,-1.9506,-1.9372,-1.9372,-1.9412,-1.9573,-1.98,-1.984,-1.9867,-1.9867,-1.9813,-1.9653,-1.9426,-1.9386,-1.9372,-1.9372,-1.9372,-1.9372,-1.9412,-1.9706,-1.9826,-1.9907,-2.0147,-2.0294,-2.0361,-2.0307,-2.0508,-2.0735,-2.0681,-2.0895,-2.1109,-2.1109,-2.1109,-2.1109,-2.1109,-2.1109,-2.1109,-2.1109,-2.1109,-2.1109,-2.1109,-2.1109,-2.1029,-2.0775,-2.3293,-2.5025,-2.4417,0.0,-2.9336,-2.8965,-2.9668,-3.0176,-3.0098,-3.0586,-3.0703,-3.0234,-3.0625,-3.0723,0.0,-3.0742,-3.0996,-3.0996,-3.0996,-3.1191,-3.1621,-3.1992,-3.1992,-3.1621,-3.1621,-3.1621,-3.1601,-3.0994,-3.0212,-2.9475,-2.903,-2.8955,-2.9235,-2.7982,-2.8245,-2.9241,-2.6275,-2.5113,-2.5022,-2.3748,-2.3354,-2.3474,-2.143,-2.1483,-2.1657,-2.2191,-2.2325,-2.2352,-2.2352,-2.2432,-2.2472,-2.2432,-2.2245,-2.2191,-2.2392,-2.1977,-2.1657,-2.1563,-2.1283,-2.1109,-2.1109,-2.1109,-2.1109,-2.1109,-2.1109,-2.1109,-2.1109,-2.1109,-2.0962,-2.0681,-2.0374,-2.008,-1.9786,-1.9506,-1.9372,-1.9372,-1.9626,-1.976,-1.9813,-2.0067,-2.016,-2.0147,-1.9893,-1.9773,-1.9706,-1.9466,-1.9372,-1.9372,-1.9372,-1.9372,-1.9412,-1.9706,-1.996,-2.0174,-2.0214,-2.0575,-2.0922,-2.0681,-2.0815,-2.0989,-2.0735,-2.0895,-2.1109,-2.1109,-2.1109,-2.1109,-2.1109,-2.1109,-2.1109,-2.1109,-2.1109,-2.1109,-2.1109,-2.1109,-2.1096,-2.1042,-2.3127,-2.4711,-2.4596,0.0,-2.9004,-2.8926,-2.9668,-3.0059,-2.9707,-3.041,-3.0703,-3.0234,-3.0625,-3.0859,-3.0781,-3.1191,-3.1426,-3.1426,-3.1426,-3.1621,-3.207,-3.2129,-3.2129,-3.207,-3.207,-3.207,-3.207,-3.0456,-2.9614,-2.9368,-2.6761,-2.5467,-2.5169,-2.4223,-2.377,-2.3694,-2.3433,-2.3256,-2.3297,-2.3346,-2.3487,-2.3754,-2.1283,-2.1309,-2.1443,-2.1871,-2.1951,-2.1951,-2.1951,-2.2084,-2.2124,-2.1977,-2.1977,-2.1977,-2.1951,-2.171,-2.1496,-2.1323,-2.1189,-2.1109,-2.1109,-2.1109,-2.1109,-2.1109,-2.1109,-2.1042,-2.0882,-2.0869,-2.0735,-2.0441,-2.0147,-2.0013,-2.0027,-1.9573,-1.9452,-1.9599,-1.9733,-1.988,-2.0054,-2.0347,-2.0468,-2.0441,-2.0147,-1.9947,-1.9773,-1.9479,-1.9372,-1.9372,-1.9372,-1.9372,-1.9412,-1.9706,-1.9987,-2.0267,-2.0414,-2.0762,-2.1082,-2.0949,-2.1002,-2.1082,-2.0949,-2.1002,-2.1109,-2.1109,-2.1109,-2.1109,-2.1109,-2.1109,-2.1109,-2.1109,-2.1109,-2.1109,-2.1109,-2.1109,-2.1056,-2.0895,-2.3157,0.0,0.0,-2.7596,-2.9609,-2.9609,-3.0176,-3.0488,-3.0293,-3.0859,-3.1035,-3.0605,-3.1191,-3.1484,-3.125,-3.1641,-3.1875,-3.1875,-3.209,-3.2305,-3.25,-3.2734,-3.2734,-3.25,-3.25,-3.1988,-3.1084,-2.9956,-2.8685,-2.7263,-2.5565,-2.4907,-2.4819,-2.3541,-2.3406,-2.4224,-2.327,-2.2966,-2.3153,-2.346,-2.3647,-2.3834,-2.1109,-2.1162,-2.1283,-2.151,-2.1603,-2.163,-2.1563,-2.1737,-2.1804,-2.1577,-2.1683,-2.1724,-2.1577,-2.1496,-2.1363,-2.1122,-2.1109,-2.1109,-2.1109,-2.1109,-2.1109,-2.1109,-2.1042,-2.0869,-2.0575,-2.0575,-2.0494,-2.0334,-2.004,-2.0054,-2.0321,-1.9813,-1.9693,-1.9907,-1.9973,-2.0094,-2.0254,-2.0548,-2.0681,-2.0655,-2.0347,-2.0134,-1.9973,-1.9679,-1.9533,-1.9466,-1.9466,-1.9426,-1.9426,-1.9773,-2.0054,-2.0294,-2.0668,-2.0922,-2.1109,-2.1109,-2.1109,-2.1109,-2.1109,-2.1109,-2.1109,-2.1109,-2.1109,-2.1109,-2.1109,-2.1109,-2.1109,-2.1109,-2.1162,-2.1216,-2.1216,-2.1216,-2.1136,-2.0922,0.0,0.0,0.0,-2.8053,-3.0351,-3.0351,-3.0859,-3.1191,-3.1191,-3.1484,-3.1543,-3.1211,-3.1797,-3.1891,-3.106,-3.1443,-3.1589,-3.1313,-3.2285,-3.2832,-3.293,-3.3262,-3.2991,-3.2286,-3.2286,-3.1369,-2.9683,-2.8985,-2.7489,-2.5502,-2.4818,-2.4698,-2.4873,-2.3557,-2.3928,-2.5085,-2.3639,-2.318,-2.3367,-2.3741,-2.3875,-2.3941,-2.1109,-2.1336,-2.1523,-2.155,-2.1777,-2.1857,-2.159,-2.1577,-2.1577,-2.155,-2.1336,-2.1269,-2.1523,-2.1309,-2.1136,-2.1109,-2.1109,-2.1109,-2.1109,-2.1109,-2.1109,-2.1109,-2.0855,-2.0575,-2.0267,-2.0267,-2.0388,-2.0641,-2.0347,-2.0347,-2.0641,-2.0321,-2.0174,-2.0214,-2.0494,-2.0468,-2.0254,-2.0548,-2.0681,-2.0655,-2.0347,-2.0388,-2.0588,-2.0281,-2.0,-1.9773,-1.9773,-1.9599,-1.9452,-2.0013,-2.0214,-2.0334,-2.0895,-2.1096,-2.1109,-2.1109,-2.1109,-2.1109,-2.1109,-2.1109,-2.1109,-2.1109,-2.1109,-2.1109,-2.1109,-2.1109,-2.1109,-2.1109,-2.1323,-2.1523,-2.1523,-2.1523,-2.151,-2.1496,0.0,0.0,-2.5271,-2.8491,-3.084,-3.084,-3.1562,-3.207,-3.207,-3.2109,-3.2109,-3.207,-3.2129,-3.1501,-2.9686,-3.0067,-2.9811,-2.8474,-3.1299,-3.2988,-3.3379,-3.3398,-3.26,-3.0992,-3.0992,-3.0072,-2.8262,-2.6643,-2.5725,-2.5398,-2.408,-2.3238,-2.3174,-2.3614,-2.352,-2.3214,-2.3628,-2.3554,-2.3394,-2.3968,-2.4168,-2.4222,-2.1109,-2.1203,-2.1283,-2.1283,-2.1363,-2.1403,-2.1296,-2.1283,-2.1283,-2.1283,-2.1176,-2.1149,-2.1269,-2.1176,-2.1109,-2.1109,-2.1109,-2.1109,-2.1109,-2.1109,-2.1109,-2.1109,-2.0828,-2.0535,-2.0241,-2.0054,-2.0107,-2.0401,-2.0107,-2.0307,-2.0922,-2.0267,-2.0054,-2.0227,-2.016,-2.0174,-2.0241,-2.0361,-2.0615,-2.0909,-2.0428,-2.0414,-2.0641,-2.0347,-2.016,-2.0067,-2.0067,-1.988,-1.9693,-2.0094,-2.0227,-2.0307,-2.0708,-2.17,-2.2591,-2.2591,-2.2591,-2.2466,-2.1362,-2.1109,-2.1109,-2.1109,-2.1109,-2.1109,-2.1109,-2.1109,-2.1162,-2.1349,-2.147,-2.1603,-2.179,-2.1817,-2.1817,-2.1817,0.0,-2.5094,-2.6215,-2.8447,-3.0419,-3.156,-3.1973,-3.2168,-3.2168,-3.2402,-3.2441,-3.2187,-3.1607,-3.088,-2.9978,-2.9317,-2.8787,-2.8494,-2.955,-3.0206,-3.0346,-3.0248,-2.9987,-2.9423,-2.9423,-2.8494,-2.6765,-2.6299,-2.5455,-2.4386,-2.3823,-2.3541,-2.3447,-2.3674,-2.3741,-2.3701,-2.3754,-2.3808,-2.3901,-2.4115,-2.4209,-2.4249,-2.1109,-2.1109,-2.1109,-2.1109,-2.1109,-2.1109,-2.1109,-2.1109,-2.1109,-2.1109,-2.1109,-2.1109,-2.1109,-2.1109,-2.1109,-2.1109,-2.1109,-2.1109,-2.1109,-2.1109,-2.1069,-2.0975,-2.0775,-2.0494,-2.0107,-1.9907,-1.9893,-2.0094,-1.9893,-2.016,-2.0815,-2.0214,-2.004,-2.0227,-2.0027,-2.004,-2.0227,-2.0227,-2.0521,-2.0935,-2.0535,-2.0548,-2.0788,-2.0588,-2.0454,-2.0374,-2.0374,-2.0187,-2.0093,-2.086,-2.0727,-2.0537,-2.1916,-2.3256,-2.4301,-2.3698,-2.3574,-2.3201,-2.1601,-2.1176,-2.1229,-2.1136,-2.1176,-2.1256,-2.1256,-2.1323,-2.1443,-2.1643,-2.1764,-2.1884,-2.2084,-2.2191,-2.2258,-2.2258,-2.4203,-2.6002,-2.7309,-2.933,-3.0997,-3.1656,-3.1779,-3.1531,-3.1015,-3.1262,-3.1373,-3.1095,-3.0513,-2.9778,-2.8878,-2.7515,-2.6842,-2.6951,-2.7059,-2.7168,-2.7276,-2.8019,-2.8109,-2.7605,-2.7813,-2.6923,-2.5215,-2.5394,-2.5003,-2.3768,-2.3875,-2.3848,-2.3781,-2.3968,-2.4048,-2.4062,-2.4048,-2.4115,-2.4209,-2.4302,-2.4342,-2.4369,-2.1109,-2.1109,-2.1109,-2.1109,-2.1109,-2.1109,-2.1109,-2.1109,-2.1109,-2.1109,-2.1109,-2.1109,-2.1109,-2.1109,-2.1109,-2.1109,-2.1109,-2.1109,-2.1109,-2.1109,-2.0975,-2.0695,-2.0681,-2.0401,-1.9813,-1.98,-1.98,-1.98,-1.98,-1.9947,-2.0227,-2.0227,-2.0227,-2.0227,-2.0227,-2.0227,-2.0227,-2.0227,-2.0401,-2.0681,-2.0681,-2.0855,-2.1109,-2.1109,-2.0922,-2.0681,-2.0681,-2.0494,-2.0524,-2.2491,-2.1996,-2.1328,-2.4897,-2.5984,-2.5619,-2.4054,-2.3574,-2.3201,-2.1614,-2.1336,-2.1483,-2.1189,-2.1336,-2.155,-2.155,-2.1777,-2.1991,-2.1991,-2.2218,-2.2418,-2.2432,-2.2672,-2.2859,-2.2873,-2.592,-2.818,-2.818,-3.1194,-3.2765,-3.1047,-3.0771,-3.0125,-2.8427,-2.8494,-2.8574,-2.8574,-2.8903,-2.8132,-2.6025,-2.4567,-2.3634,-2.334,-2.3621,-2.3915,-2.4195,-2.7354,-2.7788,-2.5532,-2.6052,-2.524,-2.334,-2.3647,-2.3781,-2.3794,-2.4075,-2.4048,-2.3821,-2.4396,-2.4302,-2.3834,-2.4409,-2.4462,-2.4249,-2.4529,-2.4636,-2.4636,-2.1109,-2.1109,-2.1109,-2.1109,-2.1109,-2.1109,-2.1109,-2.1109,-2.1109,-2.1109,-2.1109,-2.1109,-2.1109,-2.1109,-2.1109,-2.1109,-2.1109,-2.1109,-2.1109,-2.1109,-2.1069,-2.0989,-2.0788,-2.0601,-2.0414,-2.0013,-1.9907,-2.0107,-1.9907,-1.9947,-2.0227,-2.0027,-1.9933,-1.992,-1.972,-1.9733,-1.9933,-1.9933,-2.0214,-2.0681,-2.0681,-2.0855,-2.1109,-2.1109,-2.1056,-2.0975,-2.0975,-2.0788,-2.0835,-2.2828,-2.2181,-2.1328,-2.4897,-2.5253,-2.4456,-2.531,-2.4766,-2.3583,-2.2175,-2.179,-2.179,-2.1496,-2.1643,-2.1857,-2.1857,-2.1924,-2.2044,-2.2245,-2.2352,-2.2552,-2.2979,-2.3126,-2.326,-2.346,-2.5528,-2.7563,-2.8771,-2.985,-3.0698,-3.1109,-3.0004,-2.8975,-2.8328,-2.8494,-2.8574,-2.8574,-2.7673,-2.6319,-2.4595,-2.3998,-2.3821,-2.3941,-2.4035,-2.4115,-2.4209,-2.503,-2.5158,-2.4634,-2.4814,-2.4583,-2.3955,-2.4249,-2.4382,-2.4382,-2.4476,-2.4462,-2.4396,-2.4569,-2.4529,-2.4396,-2.4569,-2.4583,-2.4516,-2.4609,-2.4636,-2.4636,-2.1235,-2.1109,-2.1109,-2.1109,-2.1109,-2.1109,-2.1109,-2.1109,-2.1109,-2.1109,-2.1109,-2.1109,-2.1109,-2.1109,-2.1109,-2.1109,-2.1109,-2.1056,-2.0949,-2.1042,-2.1056,-2.0949,-2.0775,-2.0681,-2.0681,-2.0334,-2.012,-2.0067,-1.988,-1.9826,-1.988,-1.9706,-1.9626,-1.9626,-1.9452,-1.9586,-1.9973,-1.9973,-2.0307,-2.0842,-2.0842,-2.0949,-2.1109,-2.1109,-2.1109,-2.1109,-2.1109,-2.1002,-2.1118,-2.3018,-2.3192,-2.3167,-2.531,-2.5375,-2.4841,-2.6042,-2.5282,-2.376,-2.2421,-2.2071,-2.2111,-2.1937,-2.2031,-2.2151,-2.2151,-2.2245,-2.2378,-2.2552,-2.2592,-2.2739,-2.3233,-2.342,-2.3594,-2.3888,-2.5698,-2.7302,-2.8427,-2.8996,-2.9506,-2.9698,-2.8461,-2.7348,-2.6481,-2.6756,-2.6861,-2.6998,-2.6222,-2.517,-2.4085,-2.4048,-2.4142,-2.4195,-2.4315,-2.4369,-2.4369,-2.4195,-2.4088,-2.4035,-2.4262,-2.4315,-2.4209,-2.4502,-2.4636,-2.4636,-2.4636,-2.4636,-2.4636,-2.4636,-2.4636,-2.4636,-2.4636,-2.4636,-2.4636,-2.4636,-2.4636,-2.4636,-2.1601,-2.1362,-2.1362,-2.1362,-2.1235,-2.1109,-2.1109,-2.1109,-2.1109,-2.1109,-2.1109,-2.1096,-2.1069,-2.1096,-2.1096,-2.1069,-2.1096,-2.0989,-2.0695,-2.0922,-2.0935,-2.0655,-2.0641,-2.0641,-2.0641,-2.0641,-2.0388,-1.988,-1.9826,-1.9666,-1.9412,-1.9372,-1.9372,-1.9372,-1.9399,-1.9679,-2.016,-2.0241,-2.0561,-2.1029,-2.1082,-2.1109,-2.1109,-2.1109,-2.1109,-2.1109,-2.1109,-2.1109,-2.1362,-2.2827,-2.4409,-2.5741,-2.5741,-2.5757,-2.5733,-2.6091,-2.5109,-2.3577,-2.2372,-2.2258,-2.2458,-2.2458,-2.2458,-2.2458,-2.2458,-2.2672,-2.2873,-2.2899,-2.2899,-2.3006,-2.334,-2.3621,-2.3901,-2.4195,-2.6025,-2.7505,-2.7505,-2.8775,-2.9115,-2.7251,-2.6713,-2.5707,-2.391,-2.4035,-2.4329,-2.4609,-2.4636,-2.4516,-2.4262,-2.4489,-2.4516,-2.4249,-2.4502,-2.4636,-2.4636,-2.4636,-2.4369,-2.3848,-2.4382,-2.4502,-2.4249,-2.4516,-2.4636,-2.4636,-2.4636,-2.4636,-2.4636,-2.4636,-2.4636,-2.4636,-2.4636,-2.4636,-2.4636,-2.4636,-2.4636,-2.4636,-2.3325,-2.3076,-2.3076,-2.3076,-2.1978,-2.1109,-2.1109,-2.1109,-2.1109,-2.1109,-2.1109,-2.1029,-2.0802,-2.0975,-2.1015,-2.0788,-2.0975,-2.0989,-2.0695,-2.0735,-2.0641,-2.0347,-2.0334,-2.0334,-2.0334,-2.0334,-2.0374,-2.0481,-2.0027,-1.9773,-1.9706,-1.9466,-1.9372,-1.9372,-1.9599,-1.9653,-1.9599,-2.0294,-2.0521,-2.0468,-2.0922,-2.1109,-2.1109,-2.1109,-2.1109,-2.1109,-2.1109,-2.1109,-2.1109,-2.1475,-2.2702,-2.4178,-2.4178,-2.3377,-2.2893,-2.4336,-2.384,-2.2685,-2.2727,-2.2726,-2.2766,-2.2766,-2.2766,-2.2766,-2.2766,-2.2819,-2.2926,-2.318,-2.322,-2.3394,-2.3915,-2.4062,-2.4209,-2.4489,-2.6168,-2.7505,-2.7505,-2.898,-2.9389,-2.7281,-2.6907,-2.6081,-2.4066,-2.4035,-2.4329,-2.4609,-2.4636,-2.4609,-2.4543,-2.4609,-2.4609,-2.4543,-2.4609,-2.4636,-2.4636,-2.4636,-2.4569,-2.4449,-2.4569,-2.4609,-2.4543,-2.4609,-2.4636,-2.4636,-2.4636,-2.4636,-2.4636,-2.4636,-2.4636,-2.4636,-2.4636,-2.4636,-2.4636,-2.4636,-2.4636,-2.4636,-2.477,-2.3947,-2.3574,-2.3574,-2.2215,-2.1109,-2.1109,-2.1109,-2.1109,-2.1109,-2.1109,-2.1056,-2.0895,-2.1015,-2.1042,-2.0895,-2.0895,-2.0775,-2.0481,-2.0468,-2.0334,-2.004,-2.0027,-2.0094,-2.0227,-2.0227,-2.0307,-2.0468,-2.016,-1.9933,-1.9786,-1.9506,-1.9372,-1.9372,-1.9533,-1.9666,-1.9813,-2.0267,-2.0535,-2.0681,-2.0989,-2.1601,-2.2215,-2.1362,-2.1601,-2.2215,-2.1348,-2.1109,-2.1109,-2.1109,-2.1727,-2.2591,-2.3325,-2.268,-2.1991,-2.381,-2.3473,-2.2485,-2.2779,-2.2859,-2.2859,-2.2859,-2.2859,-2.2859,-2.2859,-2.2979,-2.3126,-2.33,-2.3447,-2.3674,-2.4115,-2.4209,-2.4302,-2.4596,-2.5492,-2.6502,-2.736,-2.8341,-2.8837,-2.8633,-2.8617,-2.7717,-2.5741,-2.4884,-2.4476,-2.4623,-2.4636,-2.4636,-2.4636,-2.4636,-2.4636,-2.4636,-2.4636,-2.4636,-2.4636,-2.4783,-2.485,-2.485,-2.485,-2.485,-2.485,-2.485,-2.4917,-2.5037,-2.4756,-2.4716,-2.4836,-2.469,-2.4636,-2.4636,-2.4636,-2.4636,-2.4636,-2.4636,-2.4636,-2.4636,-2.6033,-2.477,-2.4054,-2.4054,-2.2341,-2.1109,-2.1109,-2.1069,-2.1056,-2.1096,-2.1069,-2.1029,-2.1029,-2.0989,-2.1074,-2.1325,-2.1148,-2.0903,-2.0604,-2.0591,-2.0334,-1.9813,-1.976,-1.984,-2.008,-2.0134,-2.0214,-2.0307,-2.0254,-2.0107,-1.9867,-1.9533,-1.9372,-1.9372,-1.9412,-1.9706,-2.016,-2.0267,-2.0588,-2.1042,-2.1335,-2.2215,-2.3076,-2.2215,-2.2577,-2.345,-2.1964,-2.1348,-2.1109,-2.1109,-2.1109,-2.1362,-2.2774,-2.2511,-2.193,-2.3638,-2.3308,-2.2552,-2.2792,-2.2859,-2.2859,-2.2859,-2.2859,-2.2873,-2.2926,-2.314,-2.3354,-2.346,-2.3674,-2.3928,-2.4222,-2.4275,-2.4356,-2.4596,-2.4636,-2.5212,-2.7215,-2.778,-2.8629,-3.0168,-3.0075,-2.925,-2.765,-2.5884,-2.477,-2.4716,-2.4716,-2.4716,-2.4716,-2.4663,-2.4663,-2.4716,-2.4716,-2.473,-2.4783,-2.5024,-2.5157,-2.5157,-2.5211,-2.5197,-2.5157,-2.5157,-2.5291,-2.5478,-2.4943,-2.485,-2.5064,-2.4756,-2.4636,-2.4636,-2.4636,-2.4636,-2.4636,-2.4636,-2.4636,-2.4636,-2.7831,-2.6457,-2.5741,-2.5741,-2.3186,-2.1109,-2.1109,-2.0895,-2.0828,-2.1082,-2.0895,-2.0735,-2.0735,-2.0508,-2.0821,-2.2137,-2.2583,-2.2583,-2.2259,-2.2245,-2.1622,-1.9813,-1.9559,-1.9439,-1.9479,-1.9733,-2.0107,-2.0615,-2.0361,-2.0214,-2.016,-1.9626,-1.9372,-1.9372,-1.9626,-1.9786,-1.9893,-2.0401,-2.0655,-2.0873,-2.2601,-2.2591,-2.1727,-2.4394,-2.4655,-2.3574,-2.3325,-2.2341,-2.1109,-2.1109,-2.1109,-2.1149,-2.1659,-2.1943,-2.1977,-2.2538,-2.27,-2.2806,-2.2846,-2.2859,-2.2859,-2.2859,-2.2859,-2.2939,-2.3207,-2.33,-2.3474,-2.3981,-2.4115,-2.4235,-2.4529,-2.4583,-2.4596,-2.4623,-2.4636,-2.5212,-2.7215,-2.89,-3.0026,-3.031,-2.9023,-2.8097,-2.7535,-2.6262,-2.5291,-2.5037,-2.5024,-2.5024,-2.5024,-2.4783,-2.4756,-2.501,-2.5024,-2.5144,-2.5398,-2.5438,-2.5451,-2.5464,-2.5718,-2.5705,-2.5451,-2.5451,-2.5478,-2.5491,-2.5157,-2.5037,-2.5064,-2.4756,-2.4636,-2.4636,-2.4636,-2.4636,-2.4636,-2.4636,-2.4636,-2.4636,-2.747,-2.5796,-2.4421,-2.4624,-2.2558,-2.0869,-2.0869,-2.0615,-2.0713,-2.1803,-2.0985,-2.1025,-2.2797,-2.2781,-2.3047,-2.3638,-2.4,-2.3676,-2.2602,-2.2602,-2.1947,-2.004,-1.976,-1.9613,-1.9613,-1.9733,-2.0,-2.0428,-2.0294,-2.0227,-2.0227,-1.98,-1.9519,-1.9372,-1.9506,-1.9733,-2.0054,-2.0321,-2.0615,-2.1047,-2.1923,-2.2827,-2.3915,-2.4409,-2.5391,-2.6001,-2.4301,-2.2466,-2.1109,-2.1109,-2.1109,-2.1162,-2.1456,-2.175,-2.2044,-2.2338,-2.2632,-2.2859,-2.2859,-2.2859,-2.2859,-2.2859,-2.2859,-2.2993,-2.346,-2.3581,-2.3701,-2.4115,-2.4329,-2.4489,-2.4609,-2.4502,-2.4449,-2.4609,-2.4502,-2.5444,-2.8598,-2.9741,-3.1017,-3.3291,-3.1069,-2.9502,-2.936,-2.7015,-2.5398,-2.5104,-2.5077,-2.501,-2.4836,-2.4863,-2.4943,-2.5077,-2.5237,-2.5384,-2.5518,-2.5678,-2.5758,-2.5758,-2.6066,-2.6039,-2.5758,-2.5758,-2.5852,-2.5972,-2.5344,-2.517,-2.5291,-2.4823,-2.4636,-2.4636,-2.4636,-2.4636,-2.4636,-2.4636,-2.4636,-2.4636]},{"header":{"parameterUnit":"m.s-1","parameterCategory":1,"la1":30.6,"la2":28.766,"lo1":-90.7593,"lo2":-88.6598,"dy":0.0162,"dx":0.0183,"nx":116,"ny":114,"refTime":"2023-06-20T06:00:00:Z","depth":0,"parameterNumber":3,"parameterNumberName":"V-component_of_WINDS"},"data":[0.0,0.0,0.0,0.0,0.0,0.0,0.0,0.0,0.0,0.0,0.0,0.0,0.0,0.0,0.0,0.0,0.0,0.0,0.0,0.0,0.0,0.0,0.0,0.0,0.0,0.0,0.0,0.0,0.0,0.0,0.0,0.0,0.0,0.0,0.0,0.0,0.0,0.0,0.0,0.0,0.0,0.0,0.0,0.0,0.0,0.0,0.0,0.0,0.0,0.0,0.0,0.0,0.0,0.0,0.0,0.0,0.0,0.0,0.0,0.0,0.0,0.0,0.0,0.0,0.0,0.0,0.0,0.0,0.0,0.0,0.0,0.0,0.0,0.0,0.0,0.0,0.0,0.0,0.0,0.0,0.0,0.0,0.0,0.0,0.0,0.0,0.0,0.0,0.0,0.0,0.0,0.0,0.0,0.0,0.0,0.0,0.0,0.0,0.0,0.0,0.0,0.0,0.0,0.0,0.0,0.0,0.0,0.0,0.0,0.0,0.0,0.0,0.0,0.0,0.0,0.0,0.0,0.0,0.0,0.0,0.0,0.0,0.0,0.0,0.0,0.0,0.0,0.0,0.0,0.0,0.0,0.0,0.0,0.0,0.0,0.0,0.0,0.0,0.0,0.0,0.0,0.0,0.0,0.0,0.0,0.0,0.0,0.0,0.0,0.0,0.0,0.0,0.0,0.0,0.0,0.0,0.0,0.0,0.0,0.0,0.0,0.0,0.0,0.0,0.0,0.0,0.0,0.0,0.0,0.0,0.0,0.0,0.0,0.0,0.0,0.0,0.0,0.0,0.0,0.0,0.0,0.0,0.0,0.0,0.0,0.0,0.0,0.0,0.0,0.0,0.0,0.0,0.0,0.0,0.0,0.0,0.0,0.0,0.0,0.0,0.0,0.0,0.0,0.0,0.0,0.0,0.0,0.0,0.0,0.0,0.0,0.0,0.0,0.0,0.0,0.0,0.0,0.0,0.0,0.0,0.0,0.0,0.0,0.0,0.0,0.0,0.0,0.0,0.0,0.0,0.0,0.0,0.0,0.0,0.0,0.0,0.0,0.0,0.0,0.0,0.0,0.0,0.0,0.0,0.0,0.0,0.0,0.0,0.0,0.0,0.0,0.0,0.0,0.0,0.0,0.0,0.0,0.0,0.0,0.0,0.0,0.0,0.0,0.0,0.0,0.0,0.0,0.0,0.0,0.0,0.0,0.0,0.0,0.0,0.0,0.0,0.0,0.0,0.0,0.0,0.0,0.0,0.0,0.0,0.0,0.0,0.0,0.0,0.0,0.0,0.0,0.0,0.0,0.0,0.0,0.0,0.0,0.0,0.0,0.0,0.0,0.0,0.0,0.0,0.0,0.0,0.0,0.0,0.0,0.0,0.0,0.0,0.0,0.0,0.0,0.0,0.0,0.0,0.0,0.0,0.0,0.0,0.0,0.0,0.0,0.0,0.0,0.0,0.0,0.0,0.0,0.0,0.0,0.0,0.0,0.0,0.0,0.0,0.0,0.0,0.0,0.0,0.0,0.0,0.0,0.0,0.0,0.0,0.0,0.0,0.0,0.0,0.0,0.0,0.0,0.0,0.0,0.0,0.0,0.0,0.0,0.0,0.0,0.0,0.0,0.0,0.0,0.0,0.0,0.0,0.0,0.0,0.0,0.0,0.0,0.0,0.0,0.0,0.0,0.0,0.0,0.0,0.0,0.0,0.0,0.0,0.0,0.0,0.0,0.0,0.0,0.0,0.0,0.0,0.0,0.0,0.0,0.0,0.0,0.0,0.0,0.0,0.0,0.0,0.0,0.0,0.0,0.0,0.0,0.0,0.0,0.0,0.0,0.0,0.0,0.0,0.0,0.0,0.0,0.0,0.0,0.0,0.0,0.0,0.0,0.0,0.0,0.0,0.0,0.0,0.0,0.0,0.0,0.0,0.0,0.0,0.0,0.0,0.0,0.0,0.0,0.0,0.0,0.0,0.0,0.0,0.0,0.0,0.0,0.0,0.0,0.0,0.0,0.0,0.0,0.0,0.0,0.0,0.0,0.0,0.0,0.0,0.0,0.0,0.0,0.0,0.0,0.0,0.0,0.0,0.0,0.0,0.0,0.0,0.0,0.0,0.0,0.0,0.0,0.0,0.0,0.0,0.0,0.0,0.0,0.0,0.0,0.0,0.0,0.0,0.0,0.0,0.0,0.0,0.0,0.0,0.0,0.0,0.0,0.0,0.0,0.0,0.0,0.0,0.0,0.0,0.0,0.0,0.0,0.0,0.0,0.0,0.0,0.0,0.0,0.0,0.0,0.0,0.0,0.0,0.0,0.0,0.0,0.0,0.0,0.0,0.0,0.0,0.0,0.0,0.0,0.0,0.0,0.0,0.0,0.0,0.0,0.0,0.0,0.0,0.0,0.0,0.0,0.0,0.0,0.0,0.0,0.0,0.0,0.0,0.0,0.0,0.0,0.0,0.0,0.0,0.0,0.0,0.0,0.0,0.0,0.0,0.0,0.0,0.0,0.0,0.0,0.0,0.0,0.0,0.0,0.0,0.0,0.0,0.0,0.0,0.0,0.0,0.0,0.0,0.0,0.0,0.0,0.0,0.0,0.0,0.0,0.0,0.0,0.0,0.0,0.0,0.0,0.0,0.0,0.0,0.0,0.0,0.0,0.0,0.0,0.0,0.0,0.0,0.0,0.0,0.0,0.0,0.0,0.0,0.0,0.0,0.0,0.0,0.0,0.0,0.0,0.0,0.0,0.0,0.0,0.0,0.0,0.0,0.0,0.0,0.0,0.0,0.0,0.0,0.0,0.0,0.0,0.0,0.0,0.0,0.0,0.0,0.0,0.0,0.0,0.0,0.0,0.0,0.0,0.0,0.0,0.0,0.0,0.0,0.0,0.0,0.0,0.0,0.0,0.0,0.0,0.0,0.0,0.0,0.0,0.0,0.0,0.0,0.0,0.0,0.0,0.0,0.0,0.0,0.0,0.0,0.0,0.0,0.0,0.0,0.0,0.0,0.0,0.0,0.0,0.0,0.0,0.0,0.0,0.0,0.0,0.0,0.0,0.0,0.0,0.0,0.0,0.0,0.0,0.0,0.0,0.0,0.0,0.0,0.0,0.0,0.0,0.0,0.0,0.0,0.0,0.0,0.0,0.0,0.0,0.0,0.0,0.0,0.0,0.0,0.0,0.0,0.0,0.0,0.0,0.0,0.0,0.0,0.0,0.0,0.0,0.0,0.0,0.0,0.0,0.0,0.0,0.0,0.0,0.0,0.0,0.0,0.0,0.0,0.0,0.0,0.0,0.0,0.0,0.0,0.0,0.0,0.0,0.0,0.0,0.0,0.0,0.0,0.0,0.0,0.0,0.0,0.0,0.0,0.0,0.0,0.0,0.0,0.0,0.0,0.0,0.0,0.0,0.0,0.0,0.0,0.0,0.0,0.0,0.0,0.0,0.0,0.0,0.0,0.0,0.0,0.0,0.0,0.0,0.0,0.0,0.0,0.0,0.0,0.0,0.0,0.0,0.0,0.0,0.0,0.0,0.0,0.0,0.0,0.0,0.0,0.0,0.0,0.0,0.0,0.0,0.0,0.0,0.0,0.0,0.0,0.0,0.0,0.0,0.0,0.0,0.0,0.0,0.0,0.0,0.0,0.0,0.0,0.0,0.0,0.0,0.0,0.0,0.0,0.0,0.0,0.0,0.0,0.0,0.0,0.0,0.0,0.0,0.0,0.0,0.0,0.0,0.0,0.0,0.0,0.0,0.0,0.0,0.0,0.0,0.0,0.0,0.0,0.0,0.0,0.0,0.0,0.0,0.0,0.0,0.0,0.0,0.0,0.0,0.0,0.0,0.0,0.0,0.0,0.0,0.0,0.0,0.0,0.0,0.0,0.0,0.0,0.0,0.0,0.0,0.0,0.0,0.0,0.0,0.0,0.0,0.0,0.0,0.0,0.0,0.0,0.0,0.0,0.0,0.0,0.0,0.0,0.0,0.0,0.0,0.0,0.0,0.0,0.0,0.0,0.0,0.0,0.0,0.0,0.0,0.0,0.0,0.0,0.0,0.0,0.0,0.0,0.0,0.0,0.0,0.0,0.0,0.0,0.0,0.0,0.0,0.0,0.0,0.0,0.0,0.0,0.0,0.0,0.0,0.0,0.0,0.0,0.0,0.0,0.0,0.0,0.0,0.0,0.0,0.0,0.0,0.0,0.0,0.0,0.0,0.0,0.0,0.0,0.0,0.0,0.0,0.0,0.0,0.0,0.0,0.0,0.0,0.0,0.0,0.0,0.0,0.0,0.0,0.0,0.0,0.0,0.0,0.0,0.0,0.0,0.0,0.0,0.0,0.0,0.0,0.0,0.0,0.0,0.0,0.0,0.0,0.0,0.0,0.0,0.0,0.0,0.0,0.0,0.0,0.0,0.0,0.0,0.0,0.0,0.0,0.0,0.0,0.0,0.0,0.0,0.0,0.0,0.0,0.0,0.0,0.0,0.0,0.0,0.0,0.0,0.0,0.0,0.0,0.0,0.0,0.0,0.0,0.0,0.0,0.0,0.0,0.0,0.0,0.0,0.0,0.0,0.0,0.0,0.0,0.0,0.0,0.0,0.0,0.0,0.0,0.0,0.0,0.0,0.0,0.0,0.0,0.0,0.0,0.0,0.0,0.0,0.0,0.0,0.0,0.0,0.0,0.0,0.0,0.0,0.0,0.0,0.0,0.0,0.0,0.0,0.0,0.0,0.0,0.0,0.0,0.0,0.0,0.0,0.0,0.0,0.0,0.0,0.0,0.0,0.0,0.0,0.0,0.0,0.0,0.0,0.0,0.0,0.0,0.0,0.0,0.0,0.0,0.0,0.0,0.0,0.0,0.0,0.0,0.0,0.0,0.0,0.0,0.0,0.0,0.0,0.0,0.0,0.0,0.0,0.0,0.0,0.0,0.0,0.0,0.0,0.0,0.0,0.0,0.0,0.0,0.0,0.0,0.0,0.0,0.0,0.0,0.0,0.0,0.0,0.0,0.0,0.0,0.0,0.0,0.0,0.0,0.0,0.0,0.0,0.0,0.0,0.0,0.0,0.0,0.0,0.0,0.0,0.0,0.0,0.0,0.0,0.0,0.0,0.0,0.0,0.0,0.0,0.0,0.0,0.0,0.0,0.0,0.0,0.0,0.0,0.0,0.0,0.0,0.0,0.0,0.0,0.0,0.0,0.0,0.0,0.0,0.0,0.0,0.0,0.0,0.0,0.0,0.0,0.0,0.0,0.0,0.0,0.0,0.0,0.0,0.0,0.0,0.0,0.0,0.0,0.0,0.0,0.0,0.0,0.0,0.0,0.0,0.0,0.0,0.0,0.0,0.0,0.0,0.0,0.0,0.0,0.0,0.0,0.0,0.0,0.0,0.0,0.0,0.0,0.0,0.0,0.0,0.0,0.0,0.0,0.0,0.0,0.0,0.0,0.0,0.0,0.0,0.0,0.0,0.0,0.0,0.0,0.0,0.0,0.0,0.0,0.0,0.0,0.0,0.0,0.0,0.0,0.0,0.0,0.0,0.0,0.0,0.0,0.0,0.0,0.0,0.0,0.0,0.0,0.0,0.0,0.0,0.0,0.0,0.0,0.0,0.0,0.0,0.0,0.0,0.0,0.0,0.0,0.0,0.0,0.0,0.0,0.0,0.0,0.0,0.0,0.0,0.0,0.0,0.0,0.0,0.0,0.0,0.0,0.0,0.0,0.0,0.0,0.0,0.0,0.0,0.0,0.0,0.0,0.0,0.0,0.0,0.0,0.0,0.0,0.0,0.0,0.0,0.0,0.0,0.0,0.0,0.0,0.0,0.0,0.0,0.0,0.0,0.0,0.0,0.0,0.0,0.0,0.0,0.0,0.0,0.0,0.0,0.0,0.0,0.0,0.0,0.0,0.0,0.0,0.0,0.0,0.0,0.0,0.0,0.0,0.0,0.0,0.0,0.0,0.0,0.0,0.0,0.0,0.0,0.0,0.0,0.0,0.0,0.0,0.0,0.0,0.0,0.0,0.0,0.0,0.0,0.0,0.0,0.0,0.0,0.0,0.0,0.0,0.0,0.0,0.0,0.0,0.0,0.0,0.0,0.0,0.0,0.0,-3.7695,0.0,0.0,0.0,0.0,0.0,0.0,0.0,0.0,0.0,0.0,0.0,0.0,0.0,0.0,0.0,0.0,0.0,0.0,0.0,0.0,0.0,0.0,0.0,0.0,0.0,0.0,0.0,0.0,0.0,0.0,0.0,0.0,0.0,0.0,0.0,0.0,0.0,0.0,0.0,0.0,0.0,0.0,0.0,0.0,0.0,0.0,0.0,0.0,0.0,0.0,0.0,0.0,0.0,0.0,0.0,0.0,0.0,0.0,0.0,0.0,0.0,0.0,0.0,0.0,0.0,0.0,0.0,0.0,0.0,0.0,0.0,0.0,0.0,0.0,0.0,0.0,0.0,0.0,0.0,0.0,0.0,0.0,0.0,0.0,0.0,0.0,0.0,0.0,0.0,0.0,0.0,0.0,0.0,0.0,0.0,0.0,0.0,0.0,0.0,0.0,0.0,0.0,0.0,0.0,0.0,0.0,0.0,0.0,0.0,0.0,0.0,0.0,0.0,0.0,0.0,0.0,-3.9354,0.0,0.0,0.0,0.0,0.0,0.0,0.0,0.0,0.0,0.0,0.0,0.0,0.0,0.0,0.0,0.0,0.0,0.0,0.0,0.0,0.0,0.0,0.0,0.0,0.0,0.0,0.0,0.0,0.0,0.0,0.0,0.0,0.0,0.0,0.0,0.0,0.0,0.0,0.0,0.0,0.0,0.0,0.0,0.0,0.0,0.0,0.0,0.0,0.0,0.0,0.0,0.0,0.0,0.0,0.0,0.0,0.0,0.0,0.0,0.0,0.0,0.0,0.0,0.0,0.0,0.0,0.0,0.0,0.0,0.0,0.0,0.0,0.0,0.0,0.0,0.0,0.0,0.0,0.0,0.0,0.0,0.0,0.0,0.0,0.0,0.0,0.0,0.0,0.0,0.0,0.0,0.0,0.0,0.0,0.0,0.0,0.0,0.0,0.0,0.0,0.0,0.0,0.0,0.0,0.0,0.0,0.0,0.0,-4.3347,-4.4257,-4.7929,-4.7947,-4.7728,-4.7184,-4.3905,-4.1665,-4.0254,0.0,0.0,0.0,0.0,0.0,0.0,0.0,0.0,0.0,0.0,0.0,0.0,0.0,0.0,0.0,0.0,0.0,0.0,0.0,0.0,0.0,0.0,0.0,0.0,0.0,0.0,0.0,0.0,0.0,0.0,0.0,0.0,0.0,0.0,0.0,0.0,0.0,0.0,0.0,-3.0385,-3.2093,-3.2579,-3.1968,-3.027,0.0,0.0,0.0,0.0,0.0,0.0,0.0,0.0,0.0,0.0,0.0,0.0,0.0,0.0,0.0,0.0,0.0,0.0,0.0,0.0,0.0,0.0,0.0,0.0,0.0,0.0,0.0,0.0,0.0,0.0,0.0,0.0,0.0,0.0,0.0,0.0,0.0,0.0,0.0,0.0,0.0,0.0,0.0,-3.2154,-3.5158,0.0,0.0,0.0,0.0,0.0,0.0,0.0,0.0,0.0,0.0,0.0,0.0,0.0,-4.1003,-4.4842,-4.4865,-4.511,-4.5624,-4.8165,-5.1153,-5.4477,-5.4459,-5.444,-5.4415,-5.5183,0.0,-4.1562,-4.0218,0.0,0.0,0.0,0.0,0.0,0.0,0.0,0.0,0.0,0.0,0.0,0.0,0.0,0.0,0.0,0.0,0.0,0.0,0.0,0.0,0.0,0.0,0.0,0.0,0.0,0.0,0.0,0.0,0.0,0.0,0.0,0.0,0.0,0.0,0.0,0.0,-3.1837,-3.2486,-3.3236,-3.3744,-3.394,-3.3743,-3.2387,-3.2012,-3.2208,-3.1058,0.0,0.0,0.0,0.0,0.0,0.0,0.0,0.0,0.0,0.0,0.0,0.0,0.0,0.0,0.0,0.0,0.0,0.0,0.0,0.0,0.0,0.0,0.0,0.0,0.0,0.0,0.0,0.0,0.0,0.0,0.0,0.0,0.0,0.0,0.0,0.0,0.0,0.0,0.0,-3.3015,-3.5206,-4.0552,-3.9466,-3.7046,0.0,0.0,0.0,0.0,0.0,0.0,0.0,0.0,0.0,-4.0357,-4.4448,-4.546,-4.3078,-4.6861,-4.9125,-4.9894,-5.1369,-5.2881,-5.4282,-5.4284,-5.4278,-5.433,-5.5147,-5.2798,-4.8183,-4.497,-4.2356,-4.0134,0.0,0.0,0.0,0.0,-3.9882,-4.1035,0.0,0.0,0.0,0.0,0.0,0.0,0.0,0.0,0.0,0.0,0.0,0.0,0.0,0.0,0.0,0.0,0.0,0.0,0.0,0.0,0.0,0.0,0.0,0.0,0.0,0.0,0.0,0.0,-3.4234,-3.5238,-3.5983,-3.59,-3.5847,-3.5789,-3.5162,-3.4215,-3.2966,-3.1511,-3.1299,0.0,0.0,0.0,0.0,0.0,0.0,0.0,0.0,0.0,0.0,0.0,0.0,0.0,0.0,0.0,0.0,0.0,0.0,0.0,0.0,0.0,0.0,0.0,0.0,0.0,0.0,0.0,0.0,0.0,0.0,0.0,0.0,0.0,0.0,0.0,0.0,0.0,0.0,-3.3882,-3.8339,-4.6021,-4.2362,-3.8383,0.0,0.0,0.0,0.0,0.0,0.0,-3.4365,-3.9918,-4.4684,-4.8077,-5.0973,-4.9905,-4.4423,-4.9429,-5.2389,-5.3205,-5.3182,-5.3624,-5.4415,-5.36,-5.3243,-5.3271,-5.3441,-5.3513,-5.3127,-4.8428,-4.5285,-4.3197,-4.0352,-3.9726,-4.051,-4.1076,-4.1921,-4.3132,0.0,0.0,0.0,0.0,0.0,0.0,0.0,0.0,0.0,0.0,0.0,0.0,0.0,0.0,0.0,0.0,0.0,0.0,0.0,0.0,0.0,0.0,0.0,0.0,0.0,0.0,0.0,-3.5431,-3.62,-3.6897,-3.754,-3.8876,-3.9272,-3.8753,-3.8085,-3.6627,-3.4441,-3.174,-3.1491,-3.2708,0.0,0.0,0.0,0.0,0.0,0.0,0.0,0.0,0.0,0.0,0.0,0.0,0.0,0.0,0.0,0.0,0.0,0.0,0.0,0.0,0.0,0.0,0.0,0.0,0.0,0.0,0.0,0.0,0.0,0.0,0.0,0.0,0.0,0.0,0.0,0.0,0.0,0.0,0.0,-4.9243,-4.1739,0.0,0.0,0.0,0.0,-3.5989,-3.8621,-4.1583,-4.4685,-4.8254,-5.1707,-5.5091,-5.5381,-5.5318,-5.492,-5.5275,-5.4714,-5.3208,-5.3232,-5.4793,-5.7666,-5.4626,-5.3288,-5.3512,-5.3495,-5.3519,-5.3107,-4.8127,-4.6488,-4.6961,-4.4198,-4.3584,-4.4316,-4.4384,-4.4418,-4.4485,0.0,0.0,0.0,0.0,0.0,0.0,0.0,0.0,0.0,0.0,0.0,0.0,0.0,0.0,0.0,0.0,0.0,0.0,0.0,0.0,0.0,0.0,0.0,0.0,0.0,0.0,-3.5948,-3.6821,-3.879,-4.0127,-4.0891,-4.1011,-4.0955,-4.0812,-4.0561,-3.9727,-3.8271,-3.4806,-3.3517,-3.3684,-3.2644,-3.2552,0.0,0.0,0.0,0.0,0.0,0.0,0.0,0.0,0.0,0.0,0.0,0.0,0.0,0.0,0.0,0.0,0.0,0.0,0.0,0.0,0.0,0.0,0.0,0.0,0.0,0.0,0.0,0.0,0.0,0.0,0.0,0.0,0.0,0.0,0.0,0.0,0.0,-5.2708,-4.4935,0.0,-4.5013,-4.3728,-4.2504,-4.2211,-4.7222,-5.0336,-5.0489,-5.3618,-5.5953,-5.7148,-5.6214,-5.5692,-5.5696,-5.5679,-5.5379,-5.481,-5.3716,-5.4869,-5.7965,-5.6781,-5.635,-5.635,-5.5328,-5.5094,-5.5203,-5.2091,-4.9904,-4.8269,-4.6267,-4.5999,-4.6727,-4.6675,-4.7301,-4.8206,0.0,0.0,0.0,0.0,0.0,0.0,0.0,0.0,0.0,0.0,0.0,0.0,0.0,0.0,0.0,0.0,0.0,0.0,0.0,0.0,0.0,0.0,0.0,0.0,0.0,-3.5826,-3.7637,-3.8689,-4.0737,-4.2049,-4.2693,-4.2302,-4.1979,-4.181,-4.181,-4.149,-4.0847,-3.8376,-3.6514,-3.524,-3.4446,-3.457,-3.4931,0.0,0.0,0.0,0.0,0.0,0.0,0.0,0.0,0.0,0.0,0.0,0.0,0.0,0.0,0.0,0.0,0.0,0.0,0.0,0.0,0.0,0.0,0.0,0.0,0.0,0.0,0.0,0.0,0.0,0.0,0.0,0.0,0.0,0.0,0.0,-4.6251,-5.6498,-5.178,-4.8987,-5.2351,-5.0931,-5.0046,-5.0696,-5.4895,-5.695,-5.581,-5.7197,-5.7977,-5.799,-5.7004,-5.6758,-5.7416,-5.743,-5.7442,-5.7385,-5.5642,-5.5921,-5.8013,-5.7982,-5.8021,-5.7913,-5.6918,-5.651,-5.644,-5.5191,-5.3186,-5.0714,-4.8912,-4.8513,-4.9024,-4.8986,-4.9584,-5.0541,0.0,0.0,0.0,0.0,0.0,0.0,0.0,0.0,0.0,0.0,0.0,0.0,0.0,0.0,0.0,0.0,0.0,0.0,0.0,0.0,0.0,0.0,0.0,0.0,-3.6756,-3.7485,-3.895,-4.1148,-4.1956,-4.2483,-4.2732,-4.2732,-4.2422,-4.1895,-4.1895,-4.186,-4.1902,-4.2289,-4.0542,-3.7475,-3.6786,-3.7059,-3.7753,0.0,0.0,0.0,0.0,0.0,0.0,0.0,0.0,0.0,0.0,0.0,0.0,0.0,0.0,0.0,0.0,0.0,0.0,0.0,0.0,0.0,0.0,0.0,0.0,0.0,0.0,0.0,0.0,0.0,0.0,0.0,0.0,0.0,-3.6863,-4.23,-5.036,-6.0493,-6.1712,-6.0406,-5.7091,-5.6764,-5.789,-6.0624,-6.092,-6.0962,-6.0911,-5.9185,-5.8148,-5.8187,-5.8178,-5.901,-6.0789,-6.0811,-6.0786,-6.0742,-5.8938,-5.805,-5.7968,-5.8019,-5.797,-5.8006,-5.8121,-5.7569,-5.6624,-5.683,-5.6082,-5.4468,-5.2179,-5.1285,-5.1285,-5.1285,-5.1285,-5.1285,0.0,0.0,0.0,0.0,0.0,0.0,0.0,0.0,0.0,0.0,0.0,0.0,0.0,0.0,0.0,0.0,0.0,0.0,0.0,0.0,0.0,0.0,0.0,0.0,-3.8951,-3.9245,-4.0178,-4.1992,-4.3019,-4.3472,-4.3286,-4.3523,-4.355,-4.3379,-4.3379,-4.3578,-4.3893,-4.4573,-4.3953,-4.2396,-3.9999,-3.9452,-3.9727,0.0,0.0,0.0,0.0,0.0,0.0,0.0,0.0,0.0,0.0,0.0,0.0,0.0,0.0,0.0,0.0,0.0,0.0,0.0,0.0,0.0,0.0,0.0,0.0,0.0,0.0,0.0,0.0,0.0,0.0,0.0,0.0,-4.7626,-4.6771,-5.0378,-5.5264,-6.1013,-6.169,-6.1335,-6.0383,-6.0277,-6.0613,-6.1396,-6.3339,-6.4154,-6.3362,-6.2626,-6.2194,-6.2184,-6.2222,-6.1749,-6.081,-6.0814,-6.0468,-5.9779,-5.9279,-5.8687,-5.8005,-5.8023,-5.7982,-5.8019,-5.8859,-5.9127,-5.8989,-5.8115,-5.7406,-5.6633,-5.447,-5.3361,-5.2875,-5.2875,-5.2875,-5.2773,0.0,0.0,0.0,0.0,0.0,0.0,0.0,0.0,0.0,0.0,0.0,0.0,0.0,0.0,0.0,0.0,0.0,0.0,0.0,0.0,0.0,0.0,0.0,-3.7771,-4.0341,-4.0744,-4.1515,-4.28,-4.3472,-4.3791,-4.3726,-4.3912,-4.4087,-4.4233,-4.4233,-4.4561,-4.5153,-4.5761,-4.5735,-4.5204,-4.3952,-4.3123,-4.2394,-3.987,-3.9593,-4.0269,-3.8518,-3.8516,-3.9169,-3.7916,0.0,0.0,0.0,0.0,0.0,0.0,0.0,0.0,0.0,0.0,0.0,0.0,0.0,0.0,0.0,0.0,0.0,0.0,0.0,0.0,0.0,0.0,0.0,0.0,-5.0489,-5.5431,-5.6843,-5.8744,-6.1366,-6.5103,-6.5548,-6.5529,-6.5548,-6.6838,-6.6497,-6.3651,-6.4432,-6.5082,-6.5187,-6.5139,-6.5448,-6.6178,-6.5474,-6.4449,-6.318,-6.1198,-6.0502,-6.098,-5.9499,-5.884,-5.8784,-5.8231,-5.7997,0.0,-5.9355,-5.9845,-5.9634,-5.9225,-5.8404,0.0,0.0,0.0,0.0,0.0,-5.3518,-5.345,0.0,0.0,0.0,0.0,0.0,0.0,0.0,0.0,0.0,0.0,0.0,0.0,0.0,0.0,0.0,0.0,0.0,0.0,0.0,0.0,0.0,-3.6633,-3.8175,-3.9717,-4.1368,-4.2066,-4.2797,-4.3529,-4.3597,-4.3791,-4.4058,-4.4117,-4.4318,-4.4676,-4.4751,-4.5231,-4.5963,-4.6443,-4.6593,-4.6615,-4.776,-4.7067,-4.5132,-4.3167,-4.288,-4.3327,-4.1492,-4.1003,-4.1101,-4.0069,0.0,0.0,0.0,0.0,0.0,0.0,0.0,0.0,0.0,0.0,0.0,0.0,0.0,0.0,0.0,0.0,0.0,0.0,0.0,0.0,0.0,0.0,0.0,0.0,-5.6338,-6.1858,-6.5886,-6.6485,-6.768,-7.1082,-7.1491,-7.1475,-7.1497,-7.4571,-7.3775,-6.7029,-6.5478,-6.5347,-6.6551,0.0,0.0,0.0,0.0,-6.6917,-6.6436,-6.218,-6.1102,-6.3074,-5.9891,-5.8855,-5.978,-5.8629,-5.8107,-5.807,-5.9722,-6.0026,-5.9485,-6.0041,-5.8875,-5.6505,-5.5104,-5.4175,-5.3618,-5.372,-5.3753,-5.3717,0.0,0.0,0.0,0.0,0.0,0.0,0.0,0.0,0.0,0.0,0.0,0.0,0.0,0.0,0.0,0.0,0.0,0.0,0.0,0.0,-3.6119,-3.9056,-4.012,-4.1405,-4.2983,-4.3167,-4.3446,-4.3912,-4.4204,-4.4438,-4.4482,-4.4738,-4.4943,-4.5026,-4.5696,-4.6249,-4.6781,-4.8183,-4.8394,-4.7818,-4.876,-4.7741,-4.5666,-4.5244,-4.4804,-4.4217,-4.2405,-4.2694,-4.3607,-4.1316,-4.1393,-4.2189,-4.0681,0.0,0.0,0.0,0.0,0.0,0.0,0.0,0.0,0.0,0.0,0.0,0.0,0.0,0.0,0.0,0.0,0.0,0.0,0.0,0.0,-5.1973,-5.5969,-6.1198,-6.8839,-6.9923,-7.1222,-7.4615,-7.5022,-7.4994,-7.5022,-7.8094,-7.7351,-7.067,-7.0866,-7.0271,-6.7916,-6.8286,-6.8539,-6.8371,-6.8475,-6.7871,-6.6567,-6.5041,-6.3646,-6.247,0.0,0.0,-5.9311,-5.9071,-5.8621,-5.807,-5.9722,-6.0554,-6.0735,-5.9907,-5.7759,-5.5035,-5.4695,-5.4524,-5.446,-5.5081,-5.5251,-5.5203,0.0,0.0,0.0,0.0,0.0,0.0,0.0,0.0,0.0,0.0,0.0,0.0,0.0,0.0,0.0,0.0,0.0,0.0,0.0,-3.4181,-3.6486,-3.9753,-4.1075,-4.2349,-4.3721,-4.3758,-4.3943,-4.429,-4.4482,-4.4714,-4.4952,-4.5133,-4.5311,-4.5534,-4.6377,-4.7108,-4.7778,-4.9067,-4.9375,-4.9029,-4.9817,-4.8663,-4.645,-4.6422,-4.5916,-4.5131,-4.4245,-4.4509,-4.5009,-4.3355,-4.3415,-4.3929,-4.2311,-4.1016,-3.9648,0.0,0.0,0.0,0.0,0.0,0.0,0.0,0.0,0.0,0.0,0.0,0.0,0.0,0.0,-4.0564,0.0,0.0,-5.3077,-5.6458,-5.9802,-6.3455,-6.7782,-7.1304,-7.4091,-7.5818,-7.6024,-7.6688,-7.8402,-7.9326,-7.7908,-7.3335,-7.3676,-7.2898,-7.0154,-6.9794,-6.9826,-7.0162,-6.9481,-6.8765,-6.795,-6.65,-6.4953,-6.3453,-6.1973,-6.0946,-6.0382,-5.9602,-5.9015,-5.8637,-5.9437,-5.9924,-6.0077,-5.8688,-5.6726,-5.4614,-5.4566,-5.4595,-5.4579,-5.4583,-5.4828,-5.5024,0.0,0.0,0.0,0.0,0.0,0.0,0.0,0.0,0.0,0.0,0.0,0.0,0.0,0.0,0.0,0.0,0.0,0.0,0.0,-3.4481,-3.6915,-4.0406,-4.1957,-4.3187,-4.4117,-4.4117,-4.4327,-4.4751,-4.4751,-4.5052,-4.5649,-4.5681,-4.5896,-4.6394,-4.7467,-4.8329,-4.9026,-5.0046,-5.04,-5.0331,-5.0928,-4.964,-4.7317,-4.7314,-4.666,-4.5796,-4.568,-4.5393,-4.5068,-4.4684,-4.436,-4.3969,-4.3105,-4.2964,-4.2672,-4.0132,-3.8019,0.0,0.0,0.0,0.0,0.0,0.0,0.0,0.0,-4.1223,-4.561,-4.5616,-4.6121,-4.6992,-4.8312,-5.2982,-5.7569,-6.0335,-6.3673,-6.5962,-6.623,-7.1304,-7.5148,-7.5455,-7.6101,-7.7545,-8.0183,-7.9576,-7.7976,-7.5548,-7.5514,-7.4615,-7.2274,-7.1175,-7.0897,-7.1593,-7.0105,-6.9223,-6.9096,-6.7162,-6.5779,-6.4858,-6.2933,-6.1945,-6.1725,-6.0269,-5.9454,-5.9202,-5.9183,-5.9107,-5.8853,-5.7492,-5.5998,-5.4569,-5.4431,-5.4459,-5.4544,-5.4117,-5.4274,-5.4695,0.0,0.0,0.0,0.0,0.0,0.0,0.0,0.0,0.0,0.0,0.0,0.0,0.0,0.0,0.0,0.0,0.0,0.0,0.0,-3.5783,-3.8515,-4.2723,-4.3815,-4.4406,-4.4546,-4.4508,-4.4751,-4.5223,-4.5223,-4.5808,-4.6971,-4.6978,-4.7345,-4.8082,-4.9764,-5.0526,-5.075,-5.2317,-5.262,-5.2025,-5.2103,-5.0569,-4.8183,-4.8279,-4.7296,-4.5719,-4.4914,-4.3803,-4.2808,-4.3496,-4.277,-4.1906,-4.3789,-4.5066,-4.5775,-4.5427,-4.1994,-3.7977,-3.6425,-3.8252,-4.1228,-4.3849,-4.0808,-3.7632,0.0,-4.2869,-4.5589,-4.5592,-4.801,-5.1972,-5.7983,-5.9716,-6.0365,-6.0748,-6.368,-6.6254,-6.7369,-6.9778,-7.2045,-7.3624,-7.6408,-7.816,-7.8083,-7.9738,-7.9818,-7.7455,-7.7552,-7.629,-7.3108,-7.2165,-7.1048,-6.9575,-6.9133,-6.873,-6.8244,-6.7292,-6.6487,-6.584,-6.4858,-6.3689,-6.2399,-6.1557,-6.0397,-5.9087,-5.9193,-5.88,-5.8064,-5.7235,-5.6019,-5.4534,-5.3924,-5.4014,-5.4676,-5.5242,-5.5532,-5.5495,0.0,0.0,0.0,0.0,0.0,0.0,0.0,0.0,0.0,0.0,0.0,0.0,0.0,0.0,0.0,0.0,0.0,0.0,-3.4431,-3.6136,-3.8658,-4.2448,-4.3882,-4.4701,-4.4896,-4.4962,-4.5217,-4.5591,-4.615,-4.6715,-4.7311,-4.7759,-4.8155,-4.8615,-5.0234,-5.0981,-5.1064,-5.2888,-5.3458,-5.3123,-5.2637,-5.1153,-4.9259,-4.899,-4.7086,-4.4581,-4.5209,-4.4625,0.0,0.0,-4.1562,-4.3005,-4.4988,-4.5936,-4.6317,-4.629,-4.3983,-4.0998,-3.9136,-3.9663,-4.2524,-4.9693,-4.9465,-4.7563,-4.7838,-4.974,-5.1472,-5.1471,-5.2605,-5.507,-5.9931,-6.0795,-6.0804,0.0,-6.3666,-6.6064,-6.6566,-6.852,-6.9921,-6.9979,-7.2851,-7.5148,-7.5939,-7.8011,-7.8599,-7.6776,-7.7164,-7.625,-7.3505,-7.2431,-7.139,-7.0264,-6.9491,-6.8892,-6.8116,-6.7799,-6.7058,-6.5892,-6.5578,-6.4883,-6.3811,-6.2606,-6.098,-5.9013,-5.9081,-5.8393,-5.7226,-5.6474,-5.5553,-5.4532,-5.3788,-5.3651,-5.398,-5.4288,-5.4695,-5.4939,0.0,0.0,0.0,0.0,0.0,0.0,0.0,0.0,0.0,0.0,0.0,0.0,0.0,0.0,0.0,0.0,0.0,0.0,0.0,-3.6026,-3.8563,-4.2215,-4.3734,0.0,-4.5222,-4.5371,-4.5592,-4.5819,-4.6809,-4.7439,-4.783,-4.8607,-4.9106,-4.9471,-5.1009,-5.1718,-5.1875,-5.3701,-5.4232,-5.3788,-5.3191,-5.1609,-4.9548,-4.8733,-4.6243,-4.3388,-4.4826,-4.4139,0.0,0.0,-3.8888,-4.072,-4.388,-4.4189,-4.3324,-4.3324,-4.2976,-4.2287,-4.0866,-4.0504,-4.2497,-5.0837,-5.4342,-5.5383,-5.4149,-5.4843,-5.5711,-5.5689,-5.6438,-5.7863,-6.0349,-6.0789,-6.1089,-6.2065,-6.4306,-6.5936,-6.6074,-6.7357,-6.7999,-6.7275,-6.9316,-7.1275,-7.2469,-7.5399,-7.6793,-7.5632,-7.6027,-7.5411,-7.3173,-7.1729,-7.0464,-6.9339,-6.8303,-6.7488,-6.6702,-6.6873,-6.6576,-6.5783,-6.5577,-6.5296,-6.4985,-6.3263,-6.1229,-5.9032,-5.9032,-5.8287,-5.7036,-5.6089,-5.5412,-5.4803,-5.389,-5.3518,-5.3518,-5.3518,-5.3815,-5.42,0.0,0.0,0.0,0.0,0.0,0.0,0.0,0.0,0.0,0.0,0.0,0.0,0.0,0.0,0.0,0.0,0.0,0.0,0.0,-3.5546,-3.8476,-4.2859,-4.3876,-4.4722,-4.5586,-4.574,-4.5834,-4.5909,-4.6907,-4.7917,-4.8867,-4.9726,-5.0485,-5.1183,-5.28,-5.3589,-5.3822,-5.544,-5.532,-5.3984,-5.3984,-5.1874,-4.8586,-4.6989,-4.4638,-4.2251,-4.3147,0.0,0.0,0.0,-3.3856,-3.2466,-3.9215,-3.883,0.0,-3.5835,-3.8093,-4.0575,-4.052,-4.052,-4.1377,-4.4995,-5.0828,-5.5692,-5.5633,-5.5651,-5.5707,-5.5724,-5.8346,-6.0702,-6.0773,-6.0789,-6.1867,-6.5187,-6.5842,-6.6038,-6.6414,-6.6183,-6.6074,-6.6313,-6.6873,-6.7208,0.0,-7.2016,-7.5049,-7.4698,-7.4552,-7.3796,-7.2119,-6.9747,-6.7432,-6.526,-6.4421,-6.3639,-6.3,-6.3573,-6.4547,-6.5711,-6.5,-6.5033,-6.5575,-6.3408,-6.1129,-5.9032,-5.9032,-5.8592,-5.7746,-5.6325,-5.5716,-5.5547,-5.4059,-5.3518,-5.3518,-5.3518,-5.3484,-5.3484,0.0,0.0,0.0,0.0,0.0,0.0,0.0,0.0,0.0,0.0,0.0,0.0,0.0,0.0,0.0,0.0,0.0,0.0,0.0,-3.4885,-3.7012,-3.9662,-4.1623,-4.3047,-4.3932,-4.4624,-4.5248,-4.5831,-4.6909,-4.8092,-4.9453,-4.9883,-5.0457,-5.1232,-5.2286,-5.2779,-5.2877,-5.4105,-5.465,-5.4582,-5.294,-5.1562,-5.0078,-4.6434,-4.3188,-4.022,0.0,0.0,0.0,0.0,-3.146,-3.0955,-3.3313,-3.4723,-3.593,-3.8175,-3.802,-3.7679,-3.991,-4.3039,-4.6871,-5.1831,-5.481,-5.6483,-5.6472,-5.6071,-5.5696,-5.5696,-5.6606,-5.7401,-5.7401,-5.7418,-5.8534,-6.1967,-6.2785,-6.3455,-6.4792,-6.5676,-6.5635,-6.4031,-6.549,0.0,0.0,0.0,0.0,-7.0014,-7.0847,-7.044,-6.8138,-6.769,-6.6245,-6.3661,-6.3254,-6.2605,-6.1627,-6.2605,-6.3384,-6.3762,-6.4353,-6.4478,-6.4241,-6.3463,-6.1907,-5.9742,-5.9742,-5.9032,-5.778,-5.6325,-5.5716,-5.5513,-5.3484,-5.3044,-5.345,-5.2909,-5.3044,-5.3416,0.0,0.0,0.0,0.0,0.0,0.0,0.0,0.0,0.0,0.0,0.0,0.0,0.0,0.0,0.0,0.0,0.0,0.0,0.0,0.0,-3.557,-3.7588,-3.9504,-4.1085,-4.2244,-4.2595,-4.3057,-4.3595,-4.4931,-4.6084,-4.7054,-4.8436,-4.9414,-5.0039,-5.1015,-5.1637,-5.202,-5.2608,-5.2761,-5.2421,-5.0672,-4.9245,-4.7747,-4.4074,-4.1246,0.0,0.0,0.0,0.0,0.0,-3.0906,-3.0407,-3.0394,-3.2746,-3.5937,-3.808,-3.7743,-3.7624,-4.2072,-4.7432,-5.2673,-5.638,-5.728,-5.731,-5.728,-5.6463,-5.573,-5.5712,-5.4764,-5.3541,-5.2318,-5.1682,-5.2752,-5.6983,-5.8349,-5.9946,-6.2959,-6.3962,-6.4187,-6.3698,-6.4512,-6.4322,0.0,0.0,0.0,-6.6736,-6.7832,-6.7798,-6.612,-6.5876,-6.4559,-6.1807,-6.1718,-6.1231,-6.0216,-6.1231,-6.2059,-6.2632,-6.3534,-6.3433,-6.246,-6.2016,-6.095,-5.9477,-5.9242,-5.8698,-5.7814,-5.6596,-5.5953,-5.5547,-5.3788,-5.3281,-5.345,-5.2909,-5.3078,-5.3416,0.0,0.0,0.0,0.0,0.0,0.0,0.0,0.0,0.0,0.0,0.0,0.0,0.0,0.0,0.0,0.0,0.0,0.0,0.0,0.0,0.0,-3.6624,-3.7699,-3.8984,-4.0553,-3.995,-3.9544,-3.9413,-4.1301,-4.2164,-4.2105,-4.5486,-4.7265,-4.7656,-4.8984,-5.0156,-5.1131,-5.0889,-4.9756,-4.8007,-4.7456,-4.5338,-4.2267,-4.0382,0.0,0.0,0.0,0.0,0.0,-3.2878,-3.1928,-3.0822,-3.071,-3.2836,-3.5438,-3.5612,-3.7318,-4.0551,-4.6843,-5.317,-5.8018,-5.8016,-5.8014,-5.8,-5.8,-5.687,-5.5842,-5.582,-5.2885,-4.934,-4.6102,-4.4524,-4.5527,-5.1058,-5.3352,-5.6182,-6.1236,-6.1389,-6.207,-6.512,-6.4016,-6.3184,-6.3576,-6.3558,0.0,-6.4893,0.0,-6.5798,-6.5867,-6.4357,-6.2382,-5.9954,-5.9804,-5.9484,-5.8722,-5.9484,-6.0674,-6.237,-6.2698,-6.1969,-6.0501,-5.9337,-5.8529,-5.8198,-5.7654,-5.7586,-5.7814,-5.7103,-5.6393,-5.5649,-5.4837,-5.4126,-5.3518,-5.345,-5.3484,-5.3551,0.0,0.0,0.0,0.0,0.0,0.0,0.0,0.0,0.0,0.0,0.0,0.0,0.0,0.0,0.0,0.0,0.0,0.0,0.0,0.0,0.0,0.0,0.0,0.0,0.0,0.0,0.0,0.0,0.0,-4.0791,-3.9907,-4.1737,-4.3303,-4.4687,-4.5117,-4.6133,-4.75,-4.6175,-4.6811,-4.8476,0.0,-4.5219,-4.4717,0.0,0.0,0.0,0.0,0.0,0.0,-3.1638,-3.4044,-3.6841,-3.4846,-3.4229,-3.4717,-3.7165,-4.1683,-4.6749,-5.0823,-5.4902,-5.7996,-5.803,-5.7987,-5.7999,-5.7999,-5.7707,-5.7415,-5.7409,-5.0986,-4.5068,-4.4185,-4.5679,-4.7964,-5.0689,-5.4715,-5.8728,-6.2259,-6.3786,-6.4635,-6.4808,-6.544,-6.4747,-6.1932,-6.2335,0.0,0.0,-6.3274,-6.3583,-6.4142,-6.3758,-6.2149,-5.9191,-5.9989,-5.9419,-5.7434,-5.9419,-6.108,-6.2448,-6.2448,-6.1369,-5.9226,-5.7636,-5.7174,-5.7462,-5.7409,-5.7586,-5.7814,-5.7103,-5.6393,-5.5581,-5.4296,-5.3687,-5.345,-5.2841,-5.3304,-5.4328,0.0,0.0,0.0,0.0,0.0,0.0,0.0,0.0,0.0,0.0,0.0,0.0,0.0,0.0,0.0,0.0,0.0,0.0,0.0,0.0,0.0,0.0,0.0,0.0,0.0,0.0,0.0,0.0,0.0,0.0,0.0,-3.8253,-4.0548,-4.222,-4.1374,-4.1283,-4.1797,-4.2305,0.0,0.0,0.0,0.0,0.0,0.0,0.0,0.0,0.0,0.0,0.0,-3.3029,-3.6355,-3.9966,-3.9214,-3.8574,-3.8414,-4.0272,-4.5397,-5.0861,-5.2684,-5.5558,-5.8342,-5.9725,-5.9044,-5.7437,-5.5313,-5.4822,-5.4645,-5.387,-4.8289,-4.3515,-4.3503,-4.4972,-4.7452,-5.122,-5.4266,-5.7265,-6.0374,-6.2303,-6.3899,-6.5104,-6.5946,-6.5687,-6.382,-6.416,-6.4449,0.0,-6.4006,-6.3631,-6.3497,-6.3531,-6.2282,-5.9642,-6.0247,-5.9957,-5.86,-6.0745,-6.2049,-6.2381,-6.1304,-5.9758,-5.7674,-5.5811,-5.5506,-5.6446,0.0,-5.6789,-5.7848,-5.7442,-5.6664,-5.5649,-5.4803,-5.4093,-5.345,-5.2976,-5.3601,-5.4606,0.0,0.0,0.0,0.0,0.0,0.0,0.0,0.0,0.0,0.0,0.0,0.0,0.0,0.0,0.0,0.0,0.0,0.0,0.0,0.0,0.0,0.0,0.0,0.0,0.0,0.0,0.0,0.0,0.0,0.0,0.0,0.0,0.0,0.0,0.0,0.0,0.0,0.0,0.0,0.0,0.0,0.0,0.0,0.0,0.0,0.0,0.0,0.0,-3.2881,-3.5662,-3.8368,-4.079,-4.237,-4.3169,-4.3656,-4.4528,-4.9074,-5.3842,-5.3829,-5.6198,-5.9218,-6.1597,-6.0093,-5.6731,-5.171,-4.9923,-4.8894,-4.7459,-4.4784,-4.2705,-4.285,-4.3286,-4.559,-5.1573,-5.3053,-5.4458,-5.7514,-5.9419,-6.1917,-6.5823,-6.606,-6.6263,-6.6969,-6.6873,-6.6792,-6.6792,-6.5963,-6.4966,-6.3869,-6.3632,-6.2724,-6.0903,-6.0769,-6.0769,-6.087,-6.2609,-6.3127,-6.2381,-5.9846,-5.7702,-5.5875,-5.4157,-5.4206,-5.5613,0.0,0.0,-5.7746,-5.7746,-5.6867,-5.5581,-5.5581,-5.4735,-5.3518,-5.3518,-5.3946,-5.4606,0.0,0.0,0.0,0.0,0.0,0.0,0.0,0.0,0.0,0.0,-3.1237,-3.0237,0.0,0.0,0.0,0.0,0.0,0.0,0.0,0.0,0.0,0.0,0.0,0.0,0.0,0.0,0.0,0.0,0.0,0.0,0.0,0.0,0.0,0.0,0.0,0.0,0.0,0.0,0.0,0.0,0.0,0.0,0.0,0.0,0.0,0.0,0.0,-3.4962,-3.468,0.0,-3.8619,-3.9122,-3.9438,-4.1361,-4.4528,-4.9958,-5.4219,-5.7159,-5.7184,-5.9522,-6.1468,-5.9348,-5.841,-5.6493,-5.0721,-4.5339,-4.1435,-4.1145,-3.9594,-3.8553,-3.9369,-4.2119,-4.5312,-4.8604,-5.2542,-5.5836,-5.7718,-6.0334,-6.3311,-6.6516,-6.6789,-6.6685,-6.684,-6.6844,0.0,0.0,-6.6609,-6.617,-6.5358,-6.4174,-6.3079,-6.2144,-6.1717,-6.1717,-6.211,-6.3045,-6.3127,-6.2381,-5.9282,-5.6427,-5.3741,-5.4267,-5.4937,-5.5729,-5.5864,0.0,-5.7002,-5.7002,-5.6122,-5.4769,-5.4769,-5.4262,-5.3518,-5.3518,-5.3946,-5.4606,0.0,0.0,0.0,0.0,0.0,0.0,0.0,-3.3096,-3.3442,-3.4943,-3.4443,-3.3199,-3.1275,-3.0698,0.0,0.0,0.0,0.0,0.0,0.0,0.0,0.0,0.0,0.0,0.0,0.0,-3.4283,-3.3359,0.0,0.0,0.0,-3.3515,-3.3903,0.0,0.0,0.0,0.0,0.0,0.0,0.0,0.0,0.0,0.0,0.0,0.0,0.0,0.0,-3.4851,-3.532,-3.6603,-3.9388,-4.2166,-4.1405,-4.3396,-4.6939,-5.1768,-5.548,-5.8005,-5.8002,-5.9127,-6.0167,-5.9448,-5.7767,-5.5158,-5.0606,-4.6219,-4.2341,-3.9517,-3.831,-3.7646,-3.7185,-3.9743,-4.2548,-4.4607,-4.8342,-5.1863,-5.4166,-5.8626,-6.264,-6.5122,-6.5948,-6.6354,-6.6779,-6.6812,-6.6643,-6.6271,-6.6237,-6.5899,-6.5155,-6.3734,-6.2753,-6.2415,-6.2945,-6.3146,-6.299,-6.37,-6.353,-6.2345,-6.0239,-5.7395,-5.4114,-5.5246,-5.5605,-5.5185,-5.5861,0.0,-5.734,-5.6968,-5.6156,-5.5141,-5.4735,-5.416,-5.3518,-5.3518,-5.3946,-5.4606,0.0,0.0,0.0,0.0,0.0,0.0,0.0,-3.2934,-3.3868,-3.6483,-3.7147,-3.6272,-3.3365,-3.2545,-3.2288,0.0,0.0,0.0,0.0,0.0,0.0,0.0,0.0,0.0,0.0,0.0,0.0,-3.197,-3.664,0.0,0.0,0.0,0.0,0.0,-3.1813,-3.05,0.0,0.0,0.0,0.0,0.0,0.0,0.0,0.0,0.0,0.0,0.0,-3.4732,-3.5496,-3.5526,-3.9029,-4.3366,-4.2987,-4.4905,-4.7939,-5.1182,-5.4433,-5.7131,-5.781,-5.7997,-5.8443,-6.0415,-5.7997,-5.4127,-5.0299,-4.7493,-4.4222,-3.903,-3.7848,-3.7306,-3.5877,-3.733,-3.9252,-4.0735,-4.3444,-4.6411,-4.9379,-5.5687,-6.0861,-6.3317,-6.4783,-6.5933,-6.6508,-6.6576,0.0,-6.5527,0.0,0.0,-6.4613,-6.3497,-6.2854,-6.2854,-6.4005,-6.4241,-6.3531,-6.4072,-6.3665,-6.2348,-6.115,-5.8745,-5.534,-5.6495,-5.6188,-5.4672,-5.5968,0.0,0.0,-5.7036,-5.6292,-5.5412,-5.4837,-5.416,-5.3518,-5.3518,-5.3983,-5.4598,0.0,0.0,0.0,0.0,0.0,0.0,0.0,-3.1745,-3.358,-3.5412,-3.6993,-3.7819,-3.7473,-3.5341,-3.3981,0.0,0.0,0.0,0.0,0.0,0.0,0.0,0.0,0.0,0.0,0.0,0.0,-3.5521,-3.2866,0.0,0.0,0.0,0.0,0.0,0.0,-3.0852,-3.0864,0.0,0.0,0.0,0.0,0.0,0.0,0.0,0.0,0.0,0.0,-3.5391,-3.5484,-3.5522,-3.5913,-3.6939,-3.9873,-4.2249,-4.4586,-4.7831,-5.1099,-5.4259,-5.7192,-5.7997,-5.8736,-6.1791,-5.9403,-5.4711,-4.8898,-4.5454,-4.2271,-3.7854,-3.6378,-3.581,-3.5659,-3.5778,-3.6473,-3.7995,-3.9661,-4.1774,-4.4787,-5.1897,-5.8269,-6.2042,-6.441,-6.573,-6.5764,-6.5797,-6.5493,-6.4749,0.0,0.0,-6.458,-6.4478,-6.441,-6.441,-6.4546,-6.4241,-6.3531,-6.3599,-6.318,-6.2358,-6.1185,-5.9206,-5.6669,-5.7688,-5.6824,-5.4755,-5.6811,0.0,0.0,-5.6833,-5.5953,-5.4668,-5.4634,-5.416,-5.3518,-5.3518,-5.3991,-5.45,0.0,0.0,0.0,0.0,0.0,0.0,-3.019,-3.2636,-3.5154,-3.7173,-3.8626,-3.9506,-3.9517,-3.7679,-3.5828,0.0,0.0,0.0,0.0,0.0,0.0,0.0,0.0,0.0,0.0,0.0,-3.5958,-3.5804,-3.4399,0.0,0.0,0.0,0.0,0.0,0.0,-3.2842,-3.0979,-3.1997,0.0,0.0,0.0,0.0,0.0,0.0,0.0,0.0,0.0,0.0,-3.5522,-3.5489,-3.5288,-3.5209,-3.6147,-3.7019,-3.8693,-4.3903,-4.7716,-5.1389,-5.6571,-5.8015,-5.8564,-6.0776,-5.7169,-5.1996,-4.7885,-4.4306,-4.0694,-3.6887,-3.5825,-3.5633,-3.563,-3.5596,-3.6129,-3.7658,-3.8608,-3.9834,-4.1665,-4.7665,-5.3849,-5.9106,-6.1231,-6.3396,0.0,0.0,-6.5189,-6.4038,0.0,0.0,-6.3903,-6.3531,-6.326,-6.326,-6.414,-6.4241,-6.3531,-6.3937,-6.3802,-6.3057,-6.2152,-6.0355,-5.7887,-5.8893,-5.8018,-5.5651,-5.7222,0.0,0.0,-5.6968,-5.619,-5.5209,-5.4769,-5.416,-5.3551,-5.3991,-5.4059,-5.4025,0.0,0.0,0.0,0.0,0.0,-3.0038,-3.0174,-3.2921,-3.556,-3.7032,-3.8823,-4.0101,-4.0463,-3.9468,-3.7469,-3.4333,-3.3876,0.0,0.0,0.0,0.0,0.0,0.0,0.0,0.0,0.0,-3.5847,-3.5665,-3.5398,-3.5394,0.0,0.0,-3.5548,-3.5925,0.0,0.0,0.0,0.0,0.0,0.0,0.0,0.0,0.0,0.0,0.0,0.0,0.0,0.0,0.0,0.0,0.0,-3.4585,-3.399,-3.378,-3.4816,-3.9882,-4.4674,-4.9706,-5.6228,-5.7973,-5.8033,-5.8235,-5.4496,-4.9834,-4.607,-4.2939,-3.9805,-3.6297,-3.5622,-3.5622,-3.5622,-3.5791,-3.64,-3.7686,-3.8384,-3.9325,-4.1145,-4.5602,-5.0673,-5.599,0.0,-6.0622,0.0,-6.4749,-6.4275,0.0,0.0,0.0,-6.3497,-6.3024,-6.2821,-6.3024,-6.3835,-6.4038,-6.3531,-6.3802,-6.37,-6.3193,-6.2415,-6.0863,-5.8492,-5.9386,-5.8471,-5.6282,-5.7372,0.0,0.0,-5.734,-5.6562,-5.5683,-5.5141,-5.4329,-5.3551,-5.4093,-5.4228,-5.4262,0.0,0.0,0.0,0.0,0.0,0.0,-2.9665,-3.2035,-3.3831,-3.3843,-3.6691,-3.9178,-4.0366,-4.0454,-3.8931,-3.5013,-3.5185,0.0,0.0,0.0,0.0,0.0,0.0,0.0,0.0,0.0,0.0,-3.5606,-3.4754,-3.4789,-3.5661,-3.443,-3.4533,-3.5807,0.0,0.0,0.0,0.0,0.0,0.0,0.0,0.0,0.0,0.0,0.0,0.0,0.0,0.0,0.0,0.0,0.0,0.0,0.0,-3.3808,-3.4147,0.0,-4.2066,-4.9714,-5.6254,-5.7983,-5.7221,-5.4078,-5.2023,-4.9185,-4.297,-4.1153,-3.9805,-3.6297,-3.5622,-3.5622,-3.5622,-3.6265,-3.7009,-3.7787,-3.8531,-4.029,-4.4012,-4.6481,-4.9323,0.0,-5.548,-5.7712,-5.9945,-6.1535,-6.2415,0.0,0.0,0.0,-6.3531,-6.3497,-6.3835,-6.4546,-6.3903,-6.3531,-6.3531,-6.2787,-6.2415,-6.2381,-6.167,-6.0281,-5.8492,-5.8849,-5.8001,0.0,0.0,0.0,0.0,-5.7881,-5.7036,-5.5716,-5.5716,-5.4803,-5.3518,-5.3518,-5.4431,-5.5581,0.0,0.0,0.0,0.0,0.0,0.0,0.0,-3.2227,-3.3799,-3.3787,-3.5073,-3.6264,-3.699,-3.9133,-3.9092,-3.5549,-3.54,0.0,0.0,0.0,0.0,0.0,0.0,0.0,0.0,0.0,0.0,-3.6509,-3.6741,-3.7046,-3.7238,-3.6329,-3.6164,-3.6532,-3.5941,-3.5715,0.0,0.0,0.0,0.0,0.0,0.0,0.0,0.0,0.0,0.0,0.0,0.0,0.0,0.0,0.0,0.0,0.0,0.0,0.0,-3.5959,-3.8889,-4.3133,-4.9603,-5.0558,-4.9508,-4.8473,-4.6421,-4.4302,-4.2713,-4.1105,-3.9393,-3.7292,-3.6638,-3.64,-3.64,-3.7043,-3.7787,-3.8531,-3.9276,-4.0493,-4.2692,-4.5399,-4.8748,-5.301,-5.8626,-6.2212,0.0,0.0,0.0,0.0,0.0,0.0,-6.3497,-6.3531,-6.3632,-6.3869,-6.3632,-6.326,-6.2753,-6.3024,-6.2651,-6.1637,-6.14,-6.0468,-5.8849,-5.895,-5.8444,0.0,0.0,0.0,0.0,-5.7881,-5.734,-5.6461,-5.6461,-5.5852,-5.5074,-5.5581,-5.575,-5.5818,0.0,0.0,0.0,0.0,0.0,0.0,0.0,-3.196,-3.3222,-3.3393,-3.4083,-3.4785,-3.5216,-3.7823,-3.8508,-3.5913,-3.6517,0.0,0.0,0.0,0.0,0.0,0.0,0.0,0.0,0.0,0.0,-3.714,-3.7638,-3.7846,-3.7808,-3.7325,-3.7179,-3.7291,-3.643,-3.6084,0.0,0.0,0.0,0.0,0.0,0.0,-3.5738,0.0,0.0,0.0,0.0,0.0,0.0,0.0,0.0,0.0,0.0,0.0,0.0,0.0,-3.7461,-3.9191,-4.3534,-4.4528,-4.4491,-4.4892,-4.3142,-4.147,-4.2083,-4.0811,-3.8993,-3.7415,-3.7084,-3.7013,-3.6818,-3.7381,-3.8159,-3.887,-3.9377,-4.0392,-4.2422,-4.4823,0.0,-5.2942,0.0,0.0,0.0,0.0,0.0,0.0,0.0,0.0,-6.3497,-6.3531,-6.3531,-6.3531,-6.3226,-6.2854,-6.2381,-6.2279,-6.1907,-6.1298,-6.0723,-5.9945,-5.8998,-5.8727,-5.8321,0.0,0.0,0.0,0.0,-5.7881,-5.7476,-5.6799,-5.6799,-5.6359,-5.5784,-5.6224,-5.6292,-5.6258,0.0,0.0,0.0,0.0,0.0,0.0,0.0,-3.1309,-3.2231,-3.2657,-3.366,-3.4521,-3.486,-3.6719,-3.7507,-3.6281,0.0,0.0,0.0,0.0,0.0,0.0,0.0,0.0,0.0,-3.6964,-3.7348,-3.7566,-3.7661,-3.7738,-3.7738,-3.7738,-3.7882,-3.8093,-3.7171,0.0,0.0,0.0,0.0,0.0,0.0,0.0,0.0,0.0,0.0,0.0,0.0,0.0,0.0,0.0,0.0,0.0,0.0,0.0,0.0,0.0,0.0,0.0,0.0,-4.0122,-4.1903,-4.2813,-4.1648,-4.0451,-4.1144,-4.0167,0.0,-3.6911,-3.7074,-3.7413,-3.6978,-3.7516,-3.8294,-3.8971,-3.9174,-4.0223,-4.3098,-4.5128,0.0,0.0,-5.7036,0.0,-5.9099,0.0,0.0,0.0,0.0,0.0,-6.3531,-6.3531,-6.3531,-6.3531,-6.2719,-6.2313,-6.2313,-6.0892,-6.052,-6.1129,-5.9708,-5.8964,-5.8829,-5.8186,-5.7848,0.0,0.0,0.0,0.0,-5.7881,-5.7476,-5.6867,-5.6867,-5.6461,-5.5886,-5.5886,-5.6292,-5.6867,0.0,0.0,0.0,0.0,0.0,0.0,0.0,0.0,0.0,0.0,-3.3612,-3.4383,-3.471,-3.6501,-3.7827,0.0,0.0,0.0,0.0,0.0,0.0,0.0,0.0,0.0,0.0,-3.6844,-3.7661,-3.8099,-3.9384,-4.0027,-4.0027,-4.0042,-3.9857,-3.9489,-3.7982,0.0,0.0,0.0,0.0,0.0,0.0,0.0,0.0,0.0,0.0,0.0,-3.5254,-3.5016,0.0,0.0,0.0,0.0,0.0,0.0,0.0,0.0,-3.7918,-3.8322,-3.7894,0.0,-3.9292,-3.8742,-3.9292,-3.9877,0.0,-3.9216,-3.887,-3.8015,-3.8126,-3.8205,-3.7712,-3.87,-3.9614,-3.9783,-4.0764,-4.2185,-4.4045,-4.9052,0.0,-5.6494,-5.9674,-6.1129,0.0,0.0,0.0,0.0,0.0,-6.2888,-6.3497,-6.3531,-6.3531,-6.3531,-6.2245,-6.1569,-6.1569,-6.1197,-6.052,-5.9539,-5.9201,-5.8423,-5.734,-5.7712,-5.7577,0.0,0.0,0.0,-5.7881,-5.7881,-5.778,-5.7645,-5.7645,-5.7543,-5.7374,-5.7374,-5.7476,-5.7645,0.0,0.0,0.0,0.0,0.0,0.0,0.0,0.0,0.0,0.0,0.0,0.0,0.0,0.0,0.0,0.0,0.0,0.0,0.0,0.0,0.0,0.0,0.0,0.0,0.0,-3.7052,-3.7948,-3.9202,-4.0139,-4.0776,-4.1151,-4.1188,-4.0854,-4.029,-3.8622,0.0,0.0,0.0,0.0,0.0,-3.5533,0.0,0.0,0.0,0.0,0.0,-3.4963,-3.4715,0.0,-3.4806,-3.4944,-3.5137,0.0,0.0,0.0,0.0,-3.8358,-3.8505,-3.7698,-3.8358,-3.9019,-3.8071,-3.8872,-3.9722,-3.9021,-3.8712,-3.8438,-3.7887,-3.793,-3.8121,-3.822,-3.869,-3.9411,-4.0426,-4.1271,-4.2929,-4.6143,0.0,-5.504,-5.7577,-5.9945,0.0,0.0,0.0,0.0,0.0,0.0,-6.2637,0.0,-6.3096,-6.2863,-6.2522,-6.1732,-6.1298,-6.1298,-6.025,-5.9505,-5.9032,-5.866,-5.8084,-5.7306,-5.7712,-5.7679,0.0,0.0,0.0,-5.7848,-5.7509,-5.7577,-5.7881,-5.7881,-5.7881,-5.7848,-5.7509,-5.7611,-5.778,0.0,0.0,0.0,0.0,0.0,0.0,0.0,0.0,0.0,0.0,0.0,0.0,0.0,0.0,0.0,0.0,0.0,0.0,0.0,0.0,0.0,0.0,0.0,0.0,-3.7798,-3.7427,-3.8139,-4.0048,-4.0308,-4.0791,-4.1534,-4.1757,-4.1474,-4.0666,-3.9086,0.0,0.0,0.0,0.0,0.0,-3.5141,0.0,0.0,0.0,0.0,0.0,0.0,0.0,0.0,-3.4277,-3.4633,-3.5174,-3.6156,0.0,0.0,0.0,0.0,0.0,-3.7845,-3.8946,-3.9974,-3.8799,-3.9203,-3.9731,-3.9148,-3.8468,-3.7791,-3.7427,-3.7551,-3.7897,-3.8624,-3.8584,-3.9088,-4.1189,-4.2001,-4.4147,-4.9154,-5.2367,-5.5141,-5.7746,-5.9471,0.0,0.0,0.0,0.0,0.0,0.0,0.0,0.0,-6.2472,-6.2091,-6.1185,-6.1189,-6.1079,-6.096,-5.9032,-5.8321,-5.8829,-5.8186,-5.7814,-5.7712,-5.7712,-5.7645,0.0,0.0,0.0,-5.7679,-5.6934,-5.707,-5.7712,-5.7712,-5.7645,-5.7476,-5.7002,-5.7137,-5.7408,0.0,0.0,0.0,0.0,0.0,0.0,0.0,0.0,0.0,0.0,0.0,0.0,0.0,0.0,0.0,0.0,0.0,0.0,0.0,0.0,0.0,0.0,0.0,-3.7141,-3.7558,-3.7681,-3.8164,-3.8964,-4.0325,-4.1061,-4.1209,-4.257,-4.221,-4.0347,-3.9394,-3.8126,-3.6758,-3.6398,-3.6377,-3.6522,-3.5725,0.0,0.0,0.0,0.0,0.0,0.0,0.0,0.0,-3.4703,-3.4936,-3.5247,-3.6817,0.0,0.0,0.0,0.0,0.0,-3.8542,-4.0194,-4.1258,-3.8395,-3.8799,-3.9717,-3.8925,-3.8307,-3.7935,-3.8099,-3.8279,-3.8659,-3.9465,-4.0226,-4.1206,-4.2634,0.0,-4.9187,0.0,0.0,-5.7611,-5.8693,0.0,0.0,0.0,0.0,0.0,0.0,0.0,0.0,0.0,-6.2217,-6.1915,-6.0381,-6.0419,-6.0073,-5.937,-5.9032,-5.8592,-5.8051,-5.7949,-5.7577,-5.6968,-5.6968,-5.663,0.0,0.0,-5.6292,-5.69,-5.619,-5.6325,-5.6968,-5.6968,-5.6596,-5.6122,-5.663,-5.6494,-5.6122,0.0,0.0,0.0,0.0,0.0,0.0,0.0,0.0,0.0,0.0,0.0,0.0,0.0,0.0,0.0,0.0,0.0,0.0,0.0,0.0,0.0,0.0,-3.8939,-3.8633,-3.8168,-3.8251,-3.8877,-4.001,-4.1185,-4.1992,-4.2396,-4.2727,-4.2092,-4.0702,-3.9882,-3.8884,-3.7747,-3.7198,-3.7043,-3.7073,0.0,0.0,0.0,0.0,0.0,0.0,0.0,0.0,0.0,0.0,-3.5284,-3.5899,-3.711,0.0,0.0,0.0,0.0,0.0,-3.9239,-4.0487,-4.1295,-3.9827,-4.0671,-4.1592,-4.0445,-3.9446,-3.8863,-3.9332,-3.8983,-3.9199,-4.1025,0.0,-4.4021,-4.7658,0.0,-5.1905,-5.4792,-5.6098,-5.7273,0.0,0.0,0.0,0.0,0.0,0.0,0.0,0.0,0.0,0.0,0.0,-6.192,-6.0317,-6.0744,-5.9934,-5.7809,-5.822,-5.8283,-5.7881,-5.7476,-5.734,-5.7374,-5.7374,-5.7002,-5.6292,0.0,-5.5919,-5.6156,-5.5412,-5.5547,-5.6224,-5.6224,-5.6021,-5.575,-5.6089,-5.575,-5.5277,0.0,0.0,0.0,0.0,0.0,0.0,0.0,0.0,0.0,0.0,0.0,0.0,0.0,0.0,0.0,0.0,0.0,0.0,0.0,0.0,-3.9937,-3.9144,-3.963,-3.9645,-3.9098,-3.9013,-3.968,-4.1111,-4.1919,-4.2727,-4.3497,-4.2873,-4.2066,-4.1075,-4.0451,-3.9717,-3.8946,-3.8102,-3.7881,-3.7955,0.0,0.0,0.0,0.0,0.0,0.0,0.0,0.0,0.0,0.0,0.0,0.0,0.0,0.0,0.0,-3.8872,-3.8982,-3.9203,-4.0194,-4.1038,-4.1629,-4.1528,-4.2365,-4.3061,-4.2378,-4.1387,-4.0899,-4.2042,-4.1209,-4.1025,-4.34,-4.4749,0.0,-5.1718,-5.3001,-5.4311,-5.6823,-5.7081,0.0,0.0,0.0,0.0,0.0,0.0,0.0,0.0,0.0,0.0,0.0,0.0,-6.2021,-6.046,-6.0986,-6.0026,-5.7393,-5.7567,-5.7598,-5.7374,-5.6799,-5.6833,-5.7374,-5.7205,-5.6799,-5.6224,-5.5513,-5.531,-5.5412,-5.4634,-5.4769,-5.5446,-5.5446,-5.5446,-5.5446,-5.5277,-5.4938,-5.4769,0.0,0.0,0.0,0.0,0.0,0.0,0.0,0.0,0.0,0.0,0.0,0.0,0.0,0.0,0.0,0.0,0.0,0.0,0.0,0.0,-3.8929,-3.908,-3.8929,-3.9239,-4.0151,-3.9939,-4.023,-4.1111,-4.1919,-4.2727,-4.3497,-4.3424,-4.258,-4.1111,-4.1038,-4.0561,-3.9753,-3.8946,-3.9056,-3.957,-3.8028,0.0,0.0,0.0,0.0,0.0,0.0,0.0,0.0,0.0,0.0,0.0,0.0,0.0,-3.7881,-3.9386,-3.979,-4.0157,-4.1699,-4.269,-4.321,-4.2701,-4.2486,-4.2763,-4.416,-4.4088,-4.4542,-4.747,-4.6542,-4.5607,-4.6895,-4.8359,-4.9959,-5.2022,-5.4697,-5.7612,-6.0724,0.0,0.0,0.0,0.0,0.0,0.0,0.0,0.0,0.0,0.0,0.0,0.0,0.0,0.0,-6.0448,-6.0433,-6.0039,-5.9037,-5.7624,-5.6551,-5.5886,-5.5818,-5.5818,-5.5852,-5.5141,-5.4803,-5.4702,-5.3991,-5.4059,-5.46,-5.389,-5.4025,-5.4668,-5.4668,-5.4668,-5.46,-5.3923,-5.4059,-5.4702,0.0,0.0,0.0,0.0,0.0,0.0,0.0,0.0,0.0,0.0,0.0,0.0,0.0,0.0,0.0,0.0,0.0,0.0,0.0,0.0,-3.898,-3.908,-3.8826,-3.898,-3.9564,-4.0302,-4.1038,-4.1846,-4.2653,-4.3204,-4.3497,-4.2983,-4.2176,-4.1075,-4.0598,-4.0194,-3.9827,-3.9056,-3.946,-4.0524,-3.8872,-3.8065,0.0,0.0,0.0,0.0,0.0,0.0,0.0,0.0,-3.499,-3.5284,0.0,-3.7259,-3.7285,-3.8737,-3.9034,-3.9193,-4.0636,-4.1978,-4.2921,-4.2732,-4.3251,-4.4124,-4.5399,-4.5647,-4.6306,-4.879,-4.9117,-4.9184,-4.9586,0.0,-5.3217,-5.4993,-5.703,0.0,0.0,0.0,0.0,0.0,0.0,0.0,0.0,0.0,0.0,0.0,0.0,0.0,0.0,0.0,0.0,-5.9687,-6.0129,-5.9574,-5.7782,-5.7639,-5.6958,-5.5688,-5.621,-5.6443,-5.6368,-5.6093,-5.5484,-5.4566,-5.4296,-5.4093,-5.389,-5.3619,-5.3653,-5.3923,-5.3923,-5.3923,-5.389,-5.3619,-5.3957,-5.4634,0.0,0.0,0.0,0.0,0.0,0.0,0.0,0.0,0.0,0.0,0.0,0.0,0.0,0.0,0.0,0.0,0.0,0.0,0.0,0.0,-3.8302,-3.8473,-3.8124,-3.8169,-3.8707,-3.9785,-4.0855,-4.1919,-4.2983,-4.3497,-4.3497,-4.2947,-4.2249,-4.1479,-4.0891,-4.0671,-4.0598,-3.9533,-4.001,-4.1332,-3.9717,-3.8946,0.0,0.0,0.0,0.0,0.0,0.0,0.0,0.0,-3.5789,0.0,0.0,0.0,-3.728,-3.8313,-3.8295,-3.8277,-3.9654,-4.0843,-4.1779,-4.1992,-4.331,-4.5064,-4.7006,-4.7919,-4.9161,-5.2035,-5.2346,-5.2109,-5.2134,-5.317,0.0,0.0,-5.8391,0.0,0.0,0.0,0.0,0.0,0.0,0.0,0.0,0.0,0.0,0.0,0.0,0.0,0.0,0.0,0.0,0.0,-5.9869,-5.9225,-5.7615,-5.7905,-5.7521,-5.6438,-5.674,-5.6646,-5.6067,-5.6067,-5.5407,-5.4262,-5.4262,-5.3957,-5.3518,-5.3518,-5.3518,-5.3518,-5.3518,-5.3518,-5.3518,-5.3518,-5.3822,-5.4296,0.0,0.0,0.0,0.0,0.0,0.0,0.0,0.0,0.0,0.0,0.0,0.0,0.0,0.0,0.0,0.0,0.0,0.0,0.0,-3.5365,-3.6537,-3.7056,-3.6565,-3.6796,-3.7851,-3.842,-3.9496,-4.1111,-4.269,-4.3461,-4.3461,-4.3461,-4.3057,-4.2286,-4.2286,-4.2286,-4.2176,-4.0561,-4.0818,-4.2176,-4.0561,-3.9423,-3.8726,0.0,0.0,0.0,0.0,0.0,0.0,0.0,-3.7477,-3.7528,0.0,0.0,0.0,-3.832,-3.7887,-3.7638,-3.9164,-3.9589,-3.9802,-4.0547,-4.2498,-4.5232,-4.9081,-5.1019,-5.3371,-5.8217,-5.6675,-5.4481,-5.4569,-5.3854,0.0,-5.7483,-5.8694,0.0,0.0,0.0,0.0,0.0,0.0,0.0,0.0,0.0,0.0,0.0,0.0,0.0,0.0,0.0,0.0,0.0,-5.9564,-5.9161,-5.9161,-5.84,-5.7997,-5.7997,-5.7252,-5.6095,-5.4606,-5.4572,-5.42,-5.3518,-5.3518,-5.3518,-5.3518,-5.3518,-5.3518,-5.3518,-5.3518,-5.3518,-5.3518,-5.3518,-5.3518,-5.3619,0.0,0.0,0.0,0.0,0.0,0.0,0.0,0.0,0.0,0.0,0.0,0.0,0.0,0.0,0.0,0.0,0.0,0.0,0.0,-3.521,-3.5735,-3.65,-3.5809,-3.5845,-3.6731,-3.8051,-3.9496,-4.1111,-4.2139,-4.2359,-4.1809,-4.1809,-4.1368,-4.0634,-4.1222,-4.1148,-4.0561,-4.0084,-4.0818,-4.2176,-4.0561,-4.0451,-4.1038,0.0,0.0,0.0,0.0,0.0,0.0,0.0,0.0,0.0,0.0,0.0,0.0,-3.7379,-3.8028,-3.8539,-3.8799,-4.0158,-4.159,-4.2312,-4.4475,-4.7507,-5.1437,-5.2236,-5.3563,-5.8234,-5.7997,-5.6603,-5.5716,-5.6562,0.0,-5.7377,-5.9335,0.0,0.0,0.0,0.0,0.0,0.0,0.0,0.0,0.0,0.0,0.0,0.0,0.0,0.0,0.0,0.0,0.0,-5.685,-5.6743,-5.6743,-5.6528,-5.6385,-5.6385,-5.6169,-5.5836,-5.5379,-5.4818,-5.42,-5.3518,-5.3518,-5.3518,-5.3518,-5.3518,-5.3518,-5.3518,-5.3518,-5.3518,-5.3518,-5.3518,-5.3518,-5.3551,0.0,0.0,0.0,0.0,0.0,0.0,0.0,0.0,0.0,0.0,0.0,0.0,0.0,0.0,0.0,0.0,0.0,0.0,0.0,0.0,-3.4945,-3.5964,-3.5349,-3.5569,-3.6743,-3.8358,-3.9496,-4.0157,-4.1258,-4.1589,-4.1111,-4.1442,-4.1332,-4.0891,-4.1699,-4.1625,-4.0818,-4.0524,-4.1111,-4.2176,-4.0891,-4.0965,-4.1662,0.0,0.0,0.0,0.0,0.0,0.0,0.0,0.0,0.0,-3.5987,0.0,-3.6305,-3.6157,-3.6638,-3.7238,-3.7353,-3.8894,-4.0844,-4.2383,-4.5233,-4.8782,-5.3243,-5.5184,-5.6901,-5.9956,-5.9501,-5.8417,-5.819,-5.8505,0.0,-5.8896,0.0,0.0,0.0,0.0,0.0,0.0,0.0,0.0,0.0,0.0,0.0,0.0,0.0,0.0,0.0,0.0,0.0,0.0,-5.5547,-5.5724,-5.5724,-5.5724,-5.5547,-5.5228,-5.4979,-5.4665,-5.4349,-5.4226,-5.3925,-5.3518,-5.3518,-5.3518,-5.3518,-5.3518,-5.3518,-5.3518,-5.3518,-5.3518,-5.3518,-5.3518,-5.3518,-5.3518,0.0,0.0,0.0,0.0,0.0,0.0,0.0,0.0,0.0,0.0,0.0,0.0,0.0,0.0,0.0,0.0,0.0,0.0,0.0,0.0,0.0,0.0,0.0,-3.6083,-3.7661,-3.9129,-3.9533,-3.8799,-4.0267,-4.0965,-4.0928,-4.1772,-4.2139,-4.2103,-4.2983,-4.291,-4.2029,-4.1295,-4.1405,-4.2029,-4.1295,-4.1038,-4.1111,-4.1038,0.0,0.0,0.0,0.0,0.0,0.0,0.0,0.0,-3.6602,-3.654,-3.6379,-3.5188,-3.4844,-3.5047,-3.5757,-3.7043,-3.888,-4.1753,-4.5442,-4.9711,-5.4681,-5.866,-6.1519,-6.2388,-6.0896,-5.9832,-6.1227,-5.9685,-5.8951,0.0,0.0,0.0,0.0,0.0,0.0,0.0,0.0,0.0,0.0,0.0,0.0,0.0,0.0,0.0,0.0,0.0,0.0,-5.4388,-5.5129,-5.546,-5.5389,-5.5389,-5.5058,0.0,-5.3624,-5.2952,-5.2295,-5.3056,-5.345,-5.3518,-5.3518,-5.3518,-5.3518,-5.3518,-5.3518,-5.3518,-5.3518,-5.3518,-5.3518,-5.3518,-5.3518,-5.3518,0.0,0.0,0.0,0.0,0.0,0.0,0.0,0.0,0.0,0.0,0.0,0.0,0.0,0.0,0.0,0.0,0.0,0.0,0.0,0.0,0.0,0.0,0.0,0.0,-3.935,-3.9717,-3.9827,-3.9643,-3.9974,-3.9827,-3.9239,-4.0708,-4.1038,-4.0487,-4.1919,-4.1772,-4.0377,-4.023,-4.0267,-4.0377,-4.023,-4.0561,-4.1038,-4.0414,-3.9937,0.0,0.0,0.0,0.0,0.0,0.0,0.0,-3.6729,-3.75,-3.8235,-3.7428,-3.7584,-3.8058,-3.8227,-3.9377,-4.1222,-4.4177,-4.9079,-5.3823,-5.6099,-5.7846,-5.9329,-6.0664,-6.1006,-6.1006,-6.0713,-6.0236,0.0,0.0,0.0,0.0,0.0,0.0,0.0,0.0,0.0,0.0,0.0,0.0,0.0,0.0,0.0,0.0,0.0,0.0,0.0,-5.2814,-5.3601,-5.3703,-5.3053,-5.3053,-5.2677,0.0,-5.1804,-5.1609,-5.1473,-5.2187,-5.2904,-5.3518,-5.3518,-5.3518,-5.3518,-5.3518,-5.3518,-5.3518,-5.3518,-5.3518,-5.3518,-5.3518,-5.3518,-5.3518,0.0,0.0,0.0,0.0,0.0,0.0,0.0,0.0,0.0,0.0,0.0,0.0,0.0,0.0,0.0,0.0,0.0,0.0,0.0,0.0,0.0,0.0,0.0,0.0,-3.99,-3.9533,-3.9313,-3.9313,-3.8946,-3.8909,-3.9313,-4.0524,-4.1075,-4.1075,-4.1919,-4.1625,-4.0451,-4.0047,-3.99,-3.99,-3.99,-4.0157,-4.0487,-4.0047,-3.9643,-3.9145,-3.8005,0.0,0.0,0.0,0.0,0.0,0.0,0.0,-3.8328,-3.7584,-3.7889,-3.8464,-3.8464,-3.9817,-4.2185,-4.6278,-5.0772,-5.4574,-5.6054,-5.7352,-5.8388,-5.9204,-5.9989,-6.0377,-5.9939,-6.0152,0.0,0.0,0.0,0.0,0.0,0.0,0.0,0.0,0.0,0.0,0.0,0.0,0.0,0.0,0.0,0.0,0.0,-5.1961,-5.2232,-5.1792,-5.2536,-5.257,-5.1792,-5.1792,-5.142,-5.0676,-5.0676,-5.0676,-5.071,-5.1454,-5.2198,-5.2942,-5.2942,-5.3145,-5.3518,-5.3518,-5.3518,-5.3518,-5.3518,-5.3518,-5.3518,-5.3518,-5.3518,-5.3518,0.0,0.0,0.0,0.0,0.0,0.0,0.0,0.0,0.0,0.0,0.0,0.0,0.0,0.0,0.0,0.0,0.0,0.0,0.0,0.0,0.0,0.0,-3.9019,0.0,-4.0084,-3.9313,-3.8909,-3.8909,-3.8102,-3.8579,-4.0341,-4.0855,-4.1552,-4.2286,-4.2286,-4.1846,-4.1075,-4.023,-3.9827,-3.968,-3.968,-3.968,-3.968,-3.968,-3.9276,-3.8596,-3.7649,-3.7354,-3.7337,-3.7041,0.0,0.0,0.0,0.0,-3.8159,-3.7516,-3.7686,-3.8125,-3.8261,-3.9986,-4.2963,-4.78,-5.0967,-5.341,-5.507,-5.6299,-5.7233,-5.7374,-5.8182,-5.8898,-5.8898,0.0,0.0,0.0,0.0,0.0,0.0,0.0,0.0,0.0,0.0,0.0,0.0,0.0,0.0,0.0,0.0,0.0,-5.0722,-5.1085,-5.115,-5.1014,-5.1725,-5.1758,-5.1014,-5.1014,-5.0642,-4.9898,-4.9898,-4.9965,-5.0101,-5.0608,-5.1319,-5.2131,-5.2232,-5.2672,-5.3315,-5.345,-5.3518,-5.3518,-5.3518,-5.3518,-5.3518,-5.3518,-5.3518,-5.3518,0.0,0.0,0.0,0.0,0.0,0.0,0.0,0.0,0.0,0.0,0.0,0.0,0.0,0.0,0.0,0.0,0.0,0.0,-3.3465,0.0,0.0,-3.747,-3.9019,-4.023,-4.0928,-4.0157,-3.9753,-3.9753,-3.8946,-3.9717,-4.1956,-4.1405,-4.1552,-4.2286,-4.2286,-4.1846,-4.1075,-4.023,-3.9496,-3.8872,-3.8872,-3.8872,-3.8872,-3.8872,-3.8799,-3.8627,-3.8032,-3.7934,-3.8082,-3.7575,-3.7969,0.0,0.0,0.0,-3.9783,-3.9681,-3.9276,-3.8971,-3.9614,-4.1914,-4.4925,-4.8173,-4.982,-5.1138,-5.3311,-5.3411,-5.3304,0.0,-5.5776,-5.7228,0.0,0.0,0.0,0.0,0.0,0.0,0.0,0.0,0.0,0.0,0.0,0.0,0.0,0.0,0.0,0.0,0.0,0.0,-4.906,-5.0357,-5.0913,-5.027,-5.098,-5.1014,-5.0236,-5.0236,-4.9864,-4.9154,-4.9154,-4.9492,-5.0067,-4.9526,-5.0033,-5.1386,-5.2029,-5.2367,-5.2503,-5.3213,-5.3518,-5.3518,-5.3518,-5.3518,-5.3518,-5.3518,-5.3518,-5.3518,0.0,0.0,0.0,0.0,0.0,0.0,0.0,0.0,0.0,0.0,0.0,0.0,0.0,0.0,0.0,-3.6176,-3.5556,-3.4926,-3.4243,-3.5923,-3.711,-3.7507,-3.8615,-3.9606,-4.0414,-3.9203,-3.8762,-3.9239,-3.8432,-3.9276,-4.1625,-4.1735,-4.269,-4.4268,-4.3351,-4.2763,-4.2359,-4.1111,-4.0377,-4.0047,-4.0047,-3.979,-3.9423,-3.9863,-3.9753,-3.936,-3.9259,-3.9301,-3.9361,-3.8936,-3.9077,-3.9453,-3.9593,0.0,0.0,0.0,-3.9851,-3.9749,-4.0493,-4.1982,-4.4012,-4.7022,-4.8308,-4.9458,-5.1725,-5.1961,-5.1792,-5.2164,-5.3014,0.0,0.0,0.0,0.0,0.0,0.0,0.0,0.0,0.0,0.0,0.0,0.0,0.0,0.0,0.0,0.0,0.0,0.0,-4.9194,-4.9253,-5.0525,-5.0879,-5.0101,-5.0845,-5.0676,-4.9492,-4.9492,-4.9323,-4.9018,-4.9018,-4.9187,-4.9458,-4.9154,-4.9796,-5.1217,-5.1116,-5.1285,-5.1758,-5.2503,-5.2841,-5.2875,-5.3315,-5.3518,-5.3518,-5.3518,-5.3518,-5.3518,0.0,0.0,0.0,0.0,0.0,0.0,0.0,0.0,0.0,0.0,0.0,0.0,0.0,0.0,0.0,0.0,-3.6685,-3.6009,-3.5385,-3.667,-3.7507,-3.7507,-3.8285,-3.8982,-3.957,-3.8395,-3.8102,-3.8689,-3.8102,-3.9019,-4.1442,-4.2249,-4.3901,-4.614,-4.4745,-4.3975,-4.3718,-4.2323,-4.1699,-4.1662,-4.0818,-4.0267,-3.9937,-4.0341,-4.012,-3.9685,-4.0268,-4.0384,-4.0273,-4.0067,-4.0051,-4.0101,-4.0133,-4.0087,0.0,0.0,0.0,-4.0189,-4.0764,-4.1441,-4.2658,-4.5263,-4.6515,-4.7699,-5.0101,0.0,-5.0777,0.0,0.0,0.0,0.0,0.0,0.0,0.0,0.0,0.0,0.0,0.0,0.0,0.0,0.0,0.0,0.0,0.0,0.0,0.0,0.0,-4.8431,-4.9453,-5.0223,-5.0405,-4.983,-5.0371,-5.0135,-4.9018,-4.9018,-4.9018,-4.9018,-4.9018,-4.9018,-4.9018,-4.9018,-4.9593,-5.0642,-5.027,-5.0405,-5.1014,-5.1928,-5.23,-5.2367,-5.3179,-5.3518,-5.3518,-5.3518,-5.3518,-5.3518,0.0,0.0,0.0,0.0,0.0,0.0,0.0,0.0,0.0,0.0,0.0,0.0,-4.0965,-3.9612,-3.8136,-3.6942,-3.6498,-3.6266,-3.6229,-3.7,-3.7507,-3.7507,-3.8285,0.0,-3.8762,-3.8689,-3.8652,-3.8689,-3.8652,-3.9863,-4.2249,-4.3057,-4.4745,-4.7021,-4.614,-4.5369,-4.4599,-4.3718,-4.3387,-4.3094,-4.0047,-3.9276,-3.9827,-3.9093,-3.8799,-3.8982,-4.0529,-4.0702,-4.0236,-4.0476,-4.071,-4.0758,-4.0269,-4.0087,-4.0087,0.0,0.0,0.0,-4.0121,-4.0696,-4.1644,-4.32,-4.4181,-4.55,0.0,0.0,-4.9526,0.0,0.0,0.0,0.0,0.0,0.0,0.0,0.0,0.0,0.0,0.0,0.0,0.0,0.0,0.0,0.0,0.0,0.0,0.0,0.0,-4.8849,-4.8693,-4.8919,-4.912,-4.9052,-4.9086,-4.9086,-4.9018,-4.9018,-4.9018,-4.9018,-4.9018,-4.9018,-4.9018,-4.9018,-4.9052,-4.9154,-4.9796,-5.0101,-5.027,-5.1725,-5.23,-5.2367,-5.3179,-5.3518,-5.3518,-5.3518,-5.3518,-5.3518,0.0,0.0,0.0,0.0,0.0,0.0,0.0,0.0,0.0,0.0,0.0,0.0,0.0,-4.1318,-4.0379,-4.0331,-3.9731,-3.8946,-3.7918,-3.8579,-3.8579,-3.7581,-3.8762,-3.9239,-3.8726,-3.9203,-3.9203,0.0,0.0,-3.9423,-4.0781,-4.2103,-4.3204,-4.4085,-4.5333,-4.5736,-4.5369,-4.4048,-4.3497,-4.3351,-4.1662,-4.0891,-4.0634,-4.0341,-3.9937,-3.9606,-4.0708,-4.1272,-4.1468,-4.0816,-4.1004,-4.1331,-4.0368,-4.0087,-4.0087,-4.0087,-4.0087,-4.0087,-4.0087,-4.0257,-4.0832,-4.232,-4.2895,-4.3639,-4.5703,-4.6549,-4.7158,-4.8173,0.0,0.0,0.0,0.0,0.0,0.0,0.0,0.0,0.0,0.0,0.0,0.0,0.0,0.0,0.0,0.0,0.0,0.0,0.0,0.0,-4.7968,-4.9083,-4.9492,-4.9018,-4.9458,-4.9492,-4.9018,-4.9018,-4.9018,-4.9018,-4.9018,-4.9018,-4.9018,-4.9018,-4.9018,-4.9018,-4.9289,-4.939,-4.9492,-5.1014,-5.1589,-5.1725,-5.301,-5.3518,-5.3518,-5.3518,-5.3518,-5.3518,0.0,0.0,0.0,0.0,0.0,0.0,0.0,0.0,0.0,-4.1332,0.0,0.0,0.0,0.0,-4.1758,-4.1886,-4.1405,-4.0671,-3.957,-4.001,-3.9827,-3.8762,-3.9717,-3.9937,-3.9129,-3.99,0.0,0.0,0.0,0.0,0.0,-4.1552,-4.2433,-4.2763,-4.4672,-4.5663,-4.581,-4.4745,-4.4305,-4.4121,-4.2249,-4.1662,-4.1882,-4.1625,-4.1332,-4.1258,-4.2323,-4.2727,-4.2516,-4.1395,-4.1209,-4.1286,-4.0397,-4.0087,-4.0087,-4.0087,-4.0087,-4.0087,-4.0087,-4.0087,-4.0358,-4.161,-4.1914,-4.232,-4.3842,0.0,-4.5229,0.0,0.0,0.0,0.0,0.0,0.0,0.0,0.0,0.0,0.0,0.0,0.0,0.0,0.0,0.0,0.0,0.0,0.0,0.0,0.0,0.0,-4.8096,-4.911,-4.9492,-4.9018,-4.9492,-4.9492,-4.9018,-4.9018,-4.9018,-4.9018,-4.9018,-4.9018,-4.9018,-4.9018,-4.9018,-4.9018,-4.9018,-4.9018,-4.912,-5.0338,-5.098,-5.1352,-5.2604,-5.3281,-5.3518,-5.3518,-5.3518,-5.3518,0.0,0.0,0.0,0.0,0.0,0.0,0.0,0.0,-4.1405,-4.2176,0.0,0.0,0.0,0.0,0.0,-4.1295,-4.1185,-4.1185,-4.1148,-4.1148,-4.1148,-4.1111,-4.1148,-4.0781,-3.9937,0.0,0.0,0.0,0.0,0.0,0.0,0.0,-4.2727,-4.3461,-4.4342,-4.5112,-4.581,-4.581,-4.5847,-4.5516,-4.1552,-4.1368,-4.3387,-4.258,-4.2763,-4.3608,-4.5186,-4.4782,-4.3284,-4.2149,-4.1321,-4.0694,-4.026,-4.0087,-4.0087,-4.0087,-4.0087,-4.0087,0.0,0.0,0.0,-4.1001,-4.117,0.0,-4.2997,0.0,-4.3775,0.0,0.0,0.0,0.0,0.0,0.0,0.0,0.0,0.0,0.0,0.0,0.0,0.0,0.0,0.0,0.0,0.0,0.0,0.0,0.0,-4.9018,-4.9018,-4.9018,-4.9018,-4.9018,-4.9018,-4.9018,-4.9018,-4.9018,-4.9018,-4.9018,-4.9018,-4.9018,-4.9018,-4.9018,-4.9018,-4.9018,-4.9018,-4.9018,-4.9052,-4.9796,-5.0541,-5.1285,-5.2029,-5.2807,-5.3518,-5.3518,-5.3518,-5.3518,0.0,0.0,0.0,0.0,0.0,-4.2286,-4.2286,-4.1625,-4.1405,0.0,0.0,0.0,-4.3094,-4.3167,-4.3314,-4.3681,-4.3167,-4.258,-4.2029,-4.1992,-4.1699,-4.1148,-4.1662,-4.1589,-4.0781,0.0,0.0,0.0,0.0,0.0,0.0,0.0,0.0,0.0,-4.3906,-4.4309,-4.361,-4.398,-4.4488,-4.4856,-4.2543,-4.2359,-4.3351,-4.1956,-4.1589,-4.1809,-4.2286,-4.2506,-4.2479,-4.1324,-4.152,-4.2124,-4.1169,-4.0527,-4.0087,-4.0087,-4.0087,-4.0087,-4.0087,0.0,0.0,0.0,0.0,0.0,0.0,0.0,0.0,0.0,0.0,0.0,0.0,0.0,0.0,0.0,0.0,0.0,0.0,0.0,0.0,0.0,0.0,0.0,0.0,0.0,0.0,0.0,-4.9018,-4.9018,-4.9018,-4.9018,-4.9018,-4.9018,-4.9018,-4.9018,-4.9018,-4.9018,-4.9018,-4.9018,-4.9018,-4.9018,-4.9018,-4.9018,-4.9018,-4.9018,-4.9018,-4.9018,-4.9052,-4.9796,-5.0541,-5.1285,-5.2029,-5.2807,-5.3518,-5.3518,-5.3518,-5.3518,0.0,0.0,0.0,0.0,0.0,-4.3314,-4.3314,-4.291,-4.2763,0.0,0.0,0.0,-4.3901,-4.4599,-4.4929,-4.4745,-4.4268,-4.3644,-4.2837,-4.28,-4.258,-4.2139,-4.2543,-4.2433,-4.1625,-4.2396,-4.2249,0.0,0.0,0.0,0.0,0.0,0.0,-4.1832,0.0,0.0,0.0,0.0,0.0,0.0,-4.28,0.0,0.0,-4.2983,-4.302,-4.3608,-4.3608,-4.4126,-4.4554,-4.2703,-4.2342,-4.241,-4.1154,-4.0663,-4.0561,-4.0561,-4.0324,-4.0087,-4.0087,-4.029,-4.0561,-4.0561,0.0,0.0,-4.0155,-4.0426,0.0,0.0,0.0,0.0,0.0,0.0,0.0,0.0,0.0,0.0,0.0,0.0,0.0,0.0,0.0,0.0,0.0,0.0,0.0,-4.9018,-4.9018,-4.8861,-4.845,-4.845,-4.845,-4.845,-4.845,-4.8576,-4.9018,-4.9018,-4.9018,-4.9018,-4.9018,-4.9018,-4.9018,-4.9018,-4.9018,-4.9018,-4.9018,-4.9018,-4.9052,-4.9796,-5.0541,-5.1285,-5.2029,-5.2807,-5.3518,-5.3518,-5.3518,-5.3518,0.0,0.0,-4.3534,-4.3608,-4.4232,-4.4745,-4.4819,-4.4856,-4.4892,0.0,-4.4415,-4.4268,-4.4892,-4.6177,-4.6434,-4.5076,-4.4745,-4.4305,-4.3644,-4.3534,-4.3497,-4.3497,-4.3497,-4.3167,-4.2433,-4.313,-4.28,0.0,0.0,0.0,0.0,0.0,-4.2399,-4.2402,0.0,0.0,0.0,0.0,0.0,-4.3355,-4.2622,-4.3318,0.0,0.0,-4.559,-4.6947,-4.6983,-4.7538,-4.7886,-4.5159,-4.3395,-4.2083,-4.0832,-4.073,-4.1102,-4.117,-4.0663,-4.0087,-4.0189,-4.0696,-4.1238,-4.1305,-4.1373,0.0,-4.0426,-4.029,-4.029,0.0,0.0,0.0,0.0,0.0,0.0,0.0,0.0,0.0,0.0,0.0,0.0,0.0,0.0,0.0,0.0,-4.9357,-4.8883,-4.8883,-4.8821,-4.8379,-4.7671,-4.7605,-4.7671,-4.7737,-4.7737,-4.8161,-4.8984,-4.9018,-4.9018,-4.9018,-4.9018,-4.9018,-4.9018,-4.9018,-4.9018,-4.9018,-4.9018,-4.9018,-4.9052,-4.9864,-5.0608,-5.1285,-5.2029,-5.2807,-5.3518,-5.3518,-5.3518,-5.3518,-4.3314,-4.3497,-4.3681,-4.4342,-4.4599,-4.4929,-4.5553,-4.5663,-4.592,-4.6581,-4.7058,-4.7168,-4.6691,-4.6324,-4.6287,-4.6617,-4.4856,-4.3938,-4.4452,-4.3864,-4.3497,-4.3497,-4.3497,-4.3424,-4.3277,-4.3424,-4.3351,-4.302,0.0,0.0,0.0,-4.3167,-4.3031,-4.2629,0.0,0.0,0.0,0.0,0.0,-4.2846,-4.2701,0.0,-4.4871,-4.4258,-4.4927,-4.614,-4.6259,-4.6807,-4.7267,-4.5684,-4.3872,-4.2354,-4.2658,-4.1644,-4.0426,-4.1035,-4.0663,-4.0223,-4.0832,-4.1102,-4.1339,-4.1948,-4.2523,0.0,-4.1305,-4.1441,-4.1508,0.0,0.0,0.0,0.0,0.0,0.0,0.0,0.0,0.0,0.0,0.0,0.0,0.0,0.0,0.0,0.0,-4.8917,-4.8139,-4.8139,-4.7421,-4.7231,-4.7799,-4.7699,-4.7933,-4.8702,-4.8736,-4.8798,-4.9018,-4.9018,-4.9018,-4.9018,-4.9018,-4.9018,-4.9018,-4.9018,-4.9018,-4.9018,-4.9018,-4.9018,-4.912,-5.0439,-5.1082,-5.1285,-5.2029,-5.2807,-5.3518,-5.3518,-5.3518,-5.3518,-4.3424,-4.3497,-4.3754,-4.4562,-4.5039,-4.559,-4.6397,-4.6507,-4.6654,-4.7058,-4.7792,-4.8012,-4.7205,-4.7498,-4.7388,-4.6581,-4.5406,-4.4525,-4.4121,-4.3718,-4.3497,-4.3497,-4.3497,-4.3497,-4.3497,-4.3497,-4.3497,-4.3497,0.0,0.0,0.0,-4.3497,-4.3173,-4.2523,-4.321,-4.3356,0.0,0.0,-4.4104,-4.3864,-4.3114,0.0,-4.3406,-4.3406,-4.4289,-4.5606,-4.6052,-4.6766,-4.735,-4.6291,-4.5577,-4.4902,-4.4042,-4.3354,-4.2877,-4.2826,-4.2057,-4.1271,-4.1644,-4.2016,-4.232,-4.2286,-4.3095,0.0,0.0,-4.2277,-4.2483,-4.1386,-4.1154,0.0,0.0,0.0,0.0,0.0,0.0,0.0,0.0,0.0,0.0,0.0,0.0,0.0,0.0,-4.78,-4.7315,-4.7187,-4.6744,-4.6683,-4.7045,-4.6976,-4.7306,-4.8289,-4.8289,-4.8681,-4.9526,-4.9187,-4.9187,-4.9526,-4.9187,-4.9018,-4.9018,-4.9018,-4.9018,-4.9018,-4.9018,-4.9221,-4.9593,-5.0338,-5.1082,-5.1826,-5.2604,-5.3145,-5.3518,-5.3518,-5.3518,-5.3518,-4.3461,-4.3497,-4.3754,-4.4562,-4.5369,-4.6177,-4.6985,-4.7241,-4.7388,-4.7572,-4.8416,-4.871,-4.7902,-4.871,-4.8783,-4.7425,-4.614,-4.5296,-4.4929,-4.4011,-4.3497,-4.3497,-4.3497,-4.3424,-4.3277,-4.3424,-4.3497,-4.3497,0.0,0.0,0.0,0.0,-4.324,-4.28,-4.3277,-4.3644,-4.4011,0.0,0.0,-4.4849,0.0,-4.2829,-4.2475,-4.3023,-4.4253,-4.5918,-4.6731,-4.7533,-4.8012,-4.7194,-4.7386,-4.7649,-4.567,-4.5281,-4.5486,-4.4948,-4.3786,-4.2754,-4.3048,-4.3557,-4.398,-4.3628,-4.4406,-4.4844,0.0,0.0,0.0,0.0,0.0,0.0,0.0,0.0,0.0,0.0,0.0,0.0,0.0,0.0,0.0,0.0,0.0,0.0,0.0,-4.6887,-4.6589,-4.6146,-4.6352,-4.6454,-4.6309,-4.6394,-4.6867,-4.7868,-4.7868,-4.8492,-4.9864,-4.9424,-4.9424,-4.9864,-4.9424,-4.9154,-4.9018,-4.9018,-4.9018,-4.9018,-4.9018,-4.9424,-5.0101,-5.0101,-5.0947,-5.2367,-5.301,-5.3382,-5.3518,-5.3518,-5.3518,-5.3518,-4.3351,-4.3497,-4.3754,-4.4562,-4.5369,-4.6177,-4.6985,-4.7719,-4.8453,-4.9187,-5.0618,-5.1279,-5.0472,-4.9224,-4.9517,-5.216,-4.7095,-4.5516,-4.9701,-4.592,-4.3497,-4.3497,-4.3497,-4.3167,-4.2433,-4.313,-4.3497,-4.3497,-4.3497,0.0,0.0,-4.3497,-4.3828,-4.4415,-4.3791,-4.4268,-4.559,0.0,-4.4606,0.0,-4.4013,-4.4279,0.0,-4.4384,-4.5792,-4.8072,-4.8981,-4.946,-4.9552,0.0,-4.8664,-4.8714,-4.8458,-4.6991,-4.5528,-4.6083,-4.5299,-4.4401,-4.5703,-4.6145,-4.6604,-4.7864,-4.8226,-4.7922,-4.6365,0.0,-4.4836,-4.3464,0.0,0.0,0.0,0.0,0.0,0.0,0.0,0.0,0.0,0.0,0.0,0.0,0.0,0.0,0.0,0.0,-4.6278,-4.4913,-4.5839,-4.6576,-4.6723,-4.7173,-4.7868,-4.8798,-4.8861,-4.8894,-4.912,-4.9695,-4.9695,-4.912,-4.9695,-4.9627,-4.9018,-4.9018,-4.9018,-4.9018,-4.9018,-4.9424,-5.0101,-5.0101,-5.0947,-5.23,-5.2401,-5.2875,-5.3518,-5.3518,-5.3518,-5.3518,-4.2543,-4.3167,-4.3754,-4.4562,-4.5002,-4.5626,-4.6911,-4.8196,-4.915,-4.9517,-5.0582,-5.1353,-5.1463,-5.0875,-5.0802,-5.172,-4.8857,-4.7498,-4.86,-4.6287,-4.5112,-4.559,-4.5149,-4.4709,-4.4415,-4.4268,-4.3975,-4.3497,-4.3497,-4.3718,0.0,-4.4195,-4.4378,-4.4709,-4.4342,0.0,-4.5223,0.0,-4.5391,0.0,0.0,0.0,0.0,-4.4823,-4.5726,-4.7994,-4.8793,-4.9195,-4.9139,0.0,-4.9245,0.0,0.0,-4.8207,-4.8344,-4.6748,-4.634,-4.6442,-4.705,-4.7223,-4.7427,-4.8041,-4.8806,-4.9077,-4.7966,-4.7854,-4.7713,-4.6688,0.0,0.0,0.0,0.0,0.0,0.0,-4.506,0.0,0.0,0.0,0.0,0.0,0.0,0.0,0.0,0.0,0.0,0.0,0.0,-4.6548,-4.6629,-4.724,-4.8032,-4.8984,-4.9018,-4.9221,-4.9627,-4.9526,-4.9526,-4.9627,-4.9526,-4.9289,-4.9018,-4.9018,-4.9018,-4.9018,-4.9458,-5.0067,-5.0744,-5.0744,-5.1623,-5.2942,-5.2469,-5.2807,-5.3518,-5.3518,-5.3518,-5.3518,-4.2029,-4.2763,-4.3424,-4.4232,-4.4562,-4.5333,-4.7168,-4.8416,-4.9444,-5.0141,-5.0765,-5.161,-5.2858,-5.2601,-5.2637,-5.3371,-5.1499,-4.9994,-4.9481,-4.7865,-4.6874,-4.6801,-4.6617,-4.625,-4.559,-4.5443,-4.4966,-4.4158,-4.4158,-4.4562,0.0,-4.5149,-4.5259,-4.57,-4.548,-4.5369,-4.5406,0.0,-4.6063,-4.582,-4.6037,-4.6581,-4.712,-4.5551,-4.5998,-4.7607,-4.8068,-4.859,-4.8923,-4.8836,-4.9735,0.0,-4.87,0.0,-4.9778,-4.7451,-4.7176,-4.77,-4.8136,0.0,0.0,0.0,0.0,0.0,0.0,0.0,0.0,-4.9174,0.0,0.0,0.0,0.0,-4.5988,-4.6031,0.0,-4.4654,0.0,0.0,0.0,0.0,0.0,0.0,0.0,0.0,0.0,-4.4152,-4.5645,-4.6474,-4.6308,-4.717,-4.8089,-4.8984,-4.9018,-4.9255,-4.9796,-4.9458,-4.9458,-4.9796,-4.9458,-4.9187,-4.9018,-4.9018,-4.9018,-4.9052,-4.956,-5.0338,-5.1183,-5.098,-5.1928,-5.3416,-5.2604,-5.2807,-5.3518,-5.3518,-5.3619,-5.3788,-4.2139,-4.2323,-4.258,-4.3387,-4.4195,-4.5516,-4.7902,-4.8306,-4.9187,-5.161,-5.194,-5.2858,-5.5207,-5.4106,-5.5023,-5.9685,-5.506,-5.2894,-5.517,-5.1646,-4.8416,-4.603,-4.7425,-4.7131,-4.4782,-4.625,-4.6654,-4.581,-4.581,-4.625,0.0,-4.625,-4.6691,-4.8159,-4.7388,-4.7021,-4.7021,-4.7058,-4.614,-4.482,-4.559,-4.6397,-4.7094,0.0,-4.7146,-4.7355,-4.7232,0.0,0.0,-4.9591,-5.0141,0.0,0.0,0.0,0.0,0.0,0.0,0.0,0.0,0.0,0.0,-5.2645,0.0,0.0,0.0,0.0,-4.9812,0.0,-4.9269,-4.86,-4.7908,-4.7157,-4.6665,-4.6733,-4.5534,0.0,0.0,0.0,0.0,0.0,0.0,0.0,0.0,0.0,0.0,-4.3584,-4.551,-4.6456,-4.5747,-4.7098,-4.8213,-4.8984,-4.9018,-4.9018,-4.9052,-4.9729,-4.9729,-4.9052,-4.9729,-4.9695,-4.9018,-4.9018,-4.9018,-4.9018,-4.9018,-4.9864,-5.115,-5.0439,-5.1454,-5.3416,-5.2604,-5.2807,-5.3518,-5.3518,-5.3957,-5.4566,-4.2837,-4.2653,-4.2543,-4.3351,-4.3718,-4.4709,-4.7168,-4.937,0.0,0.0,-5.484,-5.6308,-5.9245,-5.9061,-5.9428,-6.1043,-5.8474,-5.6675,-5.6418,-5.4106,-5.238,-5.1573,-5.1536,-5.0912,-4.9554,-4.9003,-4.8086,-4.6691,-4.6177,-4.6324,-4.7057,-4.6838,-4.7278,-4.8269,-4.7462,-4.6801,0.0,0.0,0.0,0.0,0.0,-4.7535,-4.8636,0.0,0.0,-4.7999,-4.7899,-4.8269,0.0,-4.9407,-4.9774,-4.9884,-4.9334,-4.9517,-4.9627,-4.8012,-4.848,0.0,0.0,0.0,-5.1725,-5.2302,0.0,0.0,0.0,0.0,0.0,0.0,0.0,-5.0855,-5.01,-4.9362,-4.8557,-4.7631,-4.7038,-4.6323,0.0,-4.5162,0.0,0.0,0.0,0.0,0.0,0.0,0.0,-4.3538,-4.4621,-4.5229,0.0,-4.638,-4.753,-4.8274,-4.8748,-4.9018,-4.9018,-4.9255,-4.9255,-4.9018,-4.9255,-4.9255,-4.9018,-4.9018,-4.9255,-4.9763,-5.0236,-5.0744,-5.1285,-5.2029,-5.2503,-5.2739,-5.2976,-5.3281,-5.3551,-5.4059,-5.4397,-5.4668,-4.3277,-4.3057,-4.2873,-4.3387,0.0,0.0,0.0,0.0,0.0,0.0,-5.7226,0.0,-6.1741,-6.2291,-6.2732,-6.3282,-6.2144,-6.0456,-5.8217,-5.7116,-5.5904,-5.4473,-5.4473,-5.3849,-5.2454,-5.1683,-5.0362,-4.8416,-4.8196,-4.8196,-4.8416,-4.8122,-4.8269,-4.8746,-4.8196,-4.7205,-4.592,-4.6214,-4.5553,0.0,0.0,-4.7425,0.0,0.0,-4.7976,-4.9077,0.0,-4.8086,-4.8379,-4.893,-4.9114,-4.904,-4.8489,-4.904,-4.9554,-4.7682,-4.8673,-5.0362,-5.0325,-5.1132,0.0,-5.2344,-5.2821,0.0,-5.2527,0.0,-5.3683,0.0,0.0,0.0,-5.1236,-5.0459,-4.943,-4.7945,-4.7282,-4.6424,0.0,-4.5229,0.0,0.0,0.0,-4.6481,0.0,0.0,-4.5128,-4.2794,-4.3572,-4.4181,0.0,0.0,-4.6887,-4.7902,-4.8612,-4.9018,-4.9018,-4.9018,-4.9018,-4.9018,-4.9255,-4.939,-4.939,-4.9661,-5.0033,-5.0507,-5.1014,-5.1352,-5.1657,-5.2401,-5.2706,-5.2739,-5.2976,-5.3247,-5.3585,-5.4329,-5.4938,-5.548,-4.3497,-4.3534,-4.3644,0.0,-4.5002,0.0,0.0,0.0,-5.506,0.0,-5.9098,-6.1227,-6.2915,-6.3796,-6.4897,-6.6476,-6.5852,-6.4016,-6.086,-6.0566,-5.8804,-5.4913,-5.6198,-5.5868,-5.3482,-5.4106,-5.3335,-5.0986,-5.1573,-5.1499,-5.0765,-4.9921,-4.9517,-4.9517,-4.9444,0.0,-4.5957,-4.6728,-4.5736,-4.3681,-4.4452,-4.625,-4.8343,-4.7498,-4.8673,-5.0472,-4.8049,-4.7645,-4.8306,-4.8306,-4.8306,-4.8306,-4.8306,-4.8343,-4.8233,-4.7425,-4.8379,-4.9701,-4.9591,-5.0802,-5.2234,-5.3004,0.0,0.0,0.0,0.0,-5.3261,0.0,0.0,0.0,-5.1276,-5.0426,-4.9451,-4.7974,-4.6475,-4.532,-4.4665,-4.5286,-4.6031,0.0,0.0,-4.7327,-4.594,-4.638,-4.5229,-4.1576,-4.2591,-4.3369,0.0,0.0,-4.638,-4.7834,-4.8612,-4.9018,-4.9018,-4.9018,-4.9018,-4.9018,-4.9729,-5.0101,-5.0135,-5.0879,-5.1251,-5.1251,-5.1251,-5.1657,-5.2266,-5.1589,-5.2164,-5.3382,-5.2638,-5.2875,-5.3687,-5.4397,-5.5547,-5.69,-4.3608,-4.4452,-4.5663,0.0,-4.7425,-4.8306,0.0,0.0,0.0,0.0,-6.163,-6.4237,-6.7026,-6.699,-6.7173,-6.8201,-6.699,-6.5595,-6.4163,-6.2879,-6.1484,-5.9832,-5.9575,-5.8621,-5.6822,-5.5794,-5.4693,-5.3482,-5.1279,-5.0398,-5.0765,-4.9297,-4.8636,-4.8636,-4.8636,-4.7609,-4.592,-4.6104,-4.5847,-4.5296,-4.5516,-4.7425,0.0,0.0,-4.915,-5.0545,-4.8673,-4.8122,-4.8306,-4.8306,-4.8306,-4.8306,-4.8306,-4.8746,-4.9077,-4.8233,-4.9591,-5.1242,-5.0618,-5.1646,-5.2931,-5.3151,-5.3225,-5.3225,0.0,0.0,0.0,0.0,0.0,0.0,0.0,0.0,-5.1668,-4.9568,-4.7524,-4.5765,-4.4776,-4.5631,-4.6494,-4.6743,-4.6955,-4.7158,-4.7327,-4.6515,-4.5128,-4.2997,-4.2692,0.0,0.0,0.0,0.0,-4.7056,-4.8342,-4.9018,-4.9018,-4.9018,-4.9018,-4.9018,-4.9729,-5.0101,-5.0135,-5.0879,-5.1522,-5.2029,-5.2029,-5.2131,-5.2334,-5.2739,-5.2807,-5.2638,-5.3044,-5.3991,-5.5175,-5.5344,-5.6021,-5.69,-4.4635,0.0,0.0,-4.9224,0.0,0.0,-5.2234,-5.4509,0.0,-5.9575,-6.2328,0.0,-6.6586,-6.765,-6.8421,-6.8862,-6.8091,-6.7063,-6.5888,-6.4934,-6.3723,-6.2181,-6.1704,-6.0529,-5.8584,-5.6969,-5.5574,-5.4399,-5.1867,-5.0692,-5.0765,-4.9481,-4.8673,-4.8306,0.0,-4.7609,-4.6397,-4.6067,-4.6324,-4.6911,-4.6581,0.0,0.0,-4.8673,-4.8893,-4.9591,-4.8636,-4.8306,-4.8306,-4.8306,-4.8306,-4.8306,-4.8306,-4.915,-4.9958,-4.9114,-5.0362,-5.183,-5.1022,-5.172,-5.2674,-5.2674,-5.2931,-5.3225,-5.3225,-5.3555,-5.3739,0.0,0.0,0.0,0.0,0.0,-5.2029,-5.0118,-4.8703,-4.7439,-4.6158,-4.6941,-4.7541,-4.7344,-4.7564,-4.7936,-4.8342,-4.6752,-4.5229,-4.4012,-4.32,0.0,0.0,0.0,0.0,-4.6786,-4.8545,-4.9323,-4.9018,-4.9323,-4.9492,-4.9492,-5.0236,-5.0744,-5.1082,-5.186,-5.2435,-5.2841,-5.2841,-5.2841,-5.2841,-5.2942,-5.2909,-5.2875,-5.3315,-5.4025,-5.4837,-5.548,-5.6393,-5.734,-4.6361,0.0,0.0,0.0,0.0,0.0,0.0,-5.6381,0.0,-5.9648,0.0,-6.4604,-6.4714,-6.7136,-6.8788,-6.8898,-6.8788,-6.8091,-6.6586,-6.6402,-6.5338,-6.3099,-6.2768,-6.163,-5.9428,-5.7703,-5.6051,-5.4546,-5.2711,-5.1499,-5.0765,-4.9848,-4.9003,-4.8306,0.0,0.0,0.0,-4.6214,-4.6728,-4.7939,-4.7352,-4.7609,-4.8306,-4.8306,-4.8306,-4.8306,-4.8306,-4.8306,-4.8306,-4.8306,-4.8306,-4.8306,-4.8306,-4.937,-5.0472,-4.9664,-5.0655,-5.183,-5.1022,-5.1463,-5.216,-5.216,-5.2674,-5.3225,-5.3225,-5.3225,-5.3225,-5.3225,-5.3225,-5.3004,0.0,0.0,0.0,-5.0154,-4.9928,-4.9457,-4.812,-4.8464,-4.8674,-4.8107,-4.8436,0.0,-4.8984,-4.7192,-4.5669,-4.4925,0.0,0.0,0.0,0.0,0.0,-4.6786,-4.8849,0.0,-4.9154,0.0,-5.0135,-5.0236,-5.1014,-5.1691,-5.2334,-5.3145,-5.3518,-5.3518,-5.3518,-5.3518,-5.345,-5.2739,-5.2875,-5.3518,-5.3518,-5.3551,-5.3788,-5.5108,-5.6494,-5.7746,0.0,0.0,0.0,0.0,0.0,-5.6822,-5.818,-5.9722,-6.1374,-6.3025,-6.5485,-6.732,-6.7981,-6.7981,-6.8164,-6.8862,-6.8274,0.0,-6.6549,-6.5888,-6.5007,-6.3906,-6.2548,-6.13,-6.0236,-5.796,-5.6345,-5.539,-5.2454,-5.0949,-5.0765,-4.926,-4.8453,-4.8306,0.0,0.0,-4.6104,-4.5957,0.0,-4.6361,-4.6911,-4.7609,-4.8306,-4.8306,-4.8306,-4.8306,-4.8306,-4.8306,-4.8306,-4.8306,-4.8306,-4.8306,-4.8306,-4.9003,-4.9627,-4.8783,-5.0178,-5.183,-5.1022,-5.1867,-5.3004,-5.3004,-5.3115,-5.3225,-5.3225,-5.3225,-5.3225,-5.3225,-5.3225,-5.3188,-5.3041,0.0,0.0,0.0,0.0,0.0,0.0,-4.8791,-4.8802,-4.8709,-4.7807,-4.7665,-4.8883,-4.8105,-4.7225,0.0,0.0,0.0,0.0,0.0,0.0,0.0,0.0,0.0,0.0,0.0,-5.0405,-5.1014,-5.1758,-5.2164,-5.2334,-5.3145,-5.3518,-5.3518,-5.3518,-5.3518,-5.3484,-5.3348,-5.3382,-5.3518,-5.3518,-5.3856,-5.4431,-5.4702,-5.5716,-5.707,0.0,0.0,-5.3995,0.0,0.0,0.0,0.0,-6.2181,0.0,-6.3429,-6.4824,-6.5962,-6.6366,-6.7173,-6.7687,-6.765,-6.7283,-6.6733,-6.5925,-6.5521,-6.4934,-6.4127,-6.2879,-6.1667,-6.0419,-5.7629,-5.5978,-5.5574,-5.194,-5.0398,-5.0765,-4.9077,-4.8306,-4.8269,0.0,-4.7498,0.0,0.0,0.0,-4.7168,-4.7572,-4.7976,-4.8306,-4.8306,-4.86,-4.893,-4.8453,-4.86,-4.8893,-4.8453,-4.8306,-4.8306,-4.8306,-4.8893,-4.9517,-4.9077,-5.0105,-5.1279,-5.0912,-5.1683,-5.2564,-5.2564,-5.2894,-5.3225,-5.3225,-5.3225,-5.3225,-5.3225,-5.3225,-5.3225,-5.3225,-5.2894,0.0,0.0,0.0,0.0,0.0,0.0,-4.9732,-4.9021,-4.8039,-4.78,-4.8883,0.0,0.0,0.0,0.0,0.0,0.0,0.0,0.0,0.0,0.0,0.0,0.0,0.0,0.0,-5.1792,-5.2131,-5.2536,-5.2942,-5.3315,-5.3518,-5.3518,-5.3518,-5.3518,-5.3518,-5.3518,-5.3518,-5.3518,-5.3518,-5.3721,-5.4059,-5.4465,-5.5277,-5.6325,0.0,-5.5574,0.0,0.0,-5.8547,0.0,-6.141,-6.3723,-6.4824,-6.3503,-6.4237,-6.4714,-6.4383,-6.6182,-6.71,-6.6329,-6.6256,-6.5888,-6.5118,-6.4897,-6.442,-6.3576,-6.2585,-6.1447,-6.0162,-5.7152,-5.5354,-5.4803,-5.1463,-4.9921,-4.9994,-4.8857,-4.8233,0.0,0.0,0.0,0.0,0.0,-4.7498,-4.8086,-4.8233,-4.8416,-4.86,-4.86,-4.9114,-4.9774,-4.9077,-4.926,-4.9738,-4.9077,-4.86,-4.8343,-4.8526,-4.904,-4.9627,-4.9774,-5.0398,-5.1059,-5.1059,-5.1646,-5.227,-5.227,-5.2747,-5.3225,-5.3225,-5.3225,-5.3225,-5.3225,-5.3225,-5.3225,-5.3225,-5.3225,0.0,0.0,0.0,0.0,0.0,0.0,-5.0749,-4.9172,-4.8633,-4.8409,-4.8511,0.0,0.0,0.0,0.0,0.0,0.0,0.0,0.0,0.0,0.0,-5.0101,-5.0101,0.0,-5.1488,0.0,-5.2232,-5.2638,-5.3247,-5.3416,-5.3518,-5.3518,-5.3518,-5.3518,-5.3518,-5.3518,-5.3518,-5.3518,-5.3518,-5.3518,-5.3585,-5.4329,-5.5074,-5.5818,0.0,0.0,0.0,0.0,0.0,0.0,-6.1557,-6.3723,-6.5264,-6.5081,-6.6402,-6.6806,-6.5375,-6.6035,-6.6292,-6.5485,-6.5411,-6.5081,-6.4273,-6.3466,-6.2695,-6.1851,-6.0382,-5.9501,-5.9318,-5.6859,-5.4509,-5.2344,-5.1242,-4.9591,0.0,-4.8049,0.0,0.0,0.0,0.0,0.0,-4.6838,-4.7168,-4.7278,-4.8012,-4.8783,-4.9481,-4.9481,-4.9958,-5.0692,-5.0618,-5.0618,-5.0692,-5.0582,-4.9554,-4.8453,-4.9224,-4.9517,-4.9738,-5.0472,-5.1242,-5.1867,-5.1867,-5.2454,-5.3115,-5.3115,-5.3151,-5.3225,-5.3225,-5.3225,-5.3225,-5.3225,-5.3225,-5.3225,-5.3225,-5.3225,-5.3225,0.0,0.0,0.0,0.0,0.0,-5.1297,-4.9167,-4.9479,-4.912,-4.7192,-4.8139,0.0,0.0,-4.7462,0.0,0.0,0.0,0.0,-4.6819,0.0,-5.0101,-5.0101,-5.0845,0.0,-5.1319,-5.1995,-5.2334,-5.2435,-5.3179,-5.3518,-5.3518,-5.3518,-5.3518,-5.3518,-5.3518,-5.3518,-5.3518,-5.3518,-5.3518,-5.3585,-5.4329,-5.5074,-5.5818,0.0,0.0,0.0,0.0,0.0,0.0,0.0,-6.3613,-6.4383,-6.387,-6.5228,-6.5999,-6.5375,-6.5595,-6.5448,-6.464,-6.4567,-6.4016,-6.2695,-6.2254,-6.1704,-6.0896,-5.9795,-5.9208,-5.9208,-5.7299,-5.5611,-5.4142,-5.2858,-5.1499,0.0,0.0,0.0,0.0,0.0,-4.6471,-4.6654,-4.6985,-4.7131,-4.7241,-4.8563,-4.926,-4.9627,-5.0141,-5.0802,-5.1463,-5.0986,-5.1096,-5.1463,-5.0949,-5.0362,-4.9848,-5.0215,-5.0325,-5.0362,-5.0729,-5.1353,-5.1977,-5.1977,-5.2601,-5.3225,-5.3225,-5.3225,-5.3225,-5.3225,-5.3592,-5.3775,-5.3298,-5.3225,-5.3371,-5.3849,-5.3922,-5.4069,0.0,0.0,0.0,0.0,0.0,0.0,-4.8586,-4.8184,-4.7767,-4.6887,-4.7327,0.0,0.0,0.0,0.0,0.0,0.0,0.0,-4.8139,0.0,-5.0507,-5.142,-5.1725,-5.2097,-5.2604,-5.2875,-5.301,-5.3044,-5.3348,-5.3518,-5.3518,-5.3518,-5.3518,-5.3551,-5.3991,-5.389,-5.3551,-5.3991,-5.416,-5.4194,-5.4465,-5.5344,-5.6393,-5.9171,0.0,-6.0015,0.0,-6.1337,-6.1484,-6.2658,-6.3319,-6.3503,-6.2879,-6.3833,-6.4567,-6.4567,-6.4787,-6.453,-6.3466,-6.3356,-6.2768,-6.1337,-6.1043,-6.0639,-6.0089,-5.9281,0.0,-5.8877,-5.7519,-5.6161,-5.4876,-5.3775,0.0,0.0,0.0,0.0,0.0,-4.6617,-4.6581,-4.7094,-4.7352,-4.7609,-4.7976,-4.937,-5.0068,-5.0362,-5.0949,-5.1646,-5.227,-5.172,-5.1867,-5.227,-5.172,-5.1499,-5.1463,-5.1242,-5.1169,-5.1206,-5.1463,-5.1903,-5.2344,-5.2344,-5.2784,-5.3225,-5.3225,-5.3225,-5.3261,-5.3518,-5.3995,-5.4326,-5.3959,-5.3922,-5.4069,-5.4656,-5.473,-5.495,-5.55,0.0,0.0,0.0,-5.1971,0.0,-4.8218,-4.7834,-4.7496,-4.6853,-4.7192,0.0,0.0,0.0,0.0,0.0,0.0,0.0,0.0,0.0,0.0,0.0,-5.2198,-5.2469,-5.2841,-5.3044,-5.3145,-5.3179,-5.3382,-5.3518,-5.3518,-5.3518,-5.3619,-5.3856,-5.4397,-5.4431,-5.4194,-5.4735,-5.4905,-5.4938,-5.5175,-5.6096,-5.7189,-5.9061,-5.9832,-6.0639,-6.1447,-6.2254,-6.2805,-6.2805,-6.2805,-6.2805,-6.2805,-6.2842,-6.2842,-6.2842,-6.3613,-6.3429,-6.1777,-6.163,-6.1263,-6.0456,-5.9685,-5.9245,0.0,0.0,-5.7997,-5.7997,-5.7226,-5.5647,-5.3225,0.0,0.0,-4.8343,0.0,-4.8306,-4.8269,-4.7462,-4.7057,-4.713,-4.7976,-4.8783,-4.9627,-5.0472,-5.1242,-5.1977,-5.1977,-5.2491,-5.3188,-5.3188,-5.3188,-5.3188,-5.3188,-5.3188,-5.3041,-5.2234,-5.1977,-5.2123,-5.2931,-5.3188,-5.3188,-5.3188,-5.3188,-5.3225,-5.3225,-5.3225,-5.3408,-5.4216,-5.4399,-5.462,-5.539,-5.5574,-5.5574,-5.5574,-5.5574,-5.5574,-5.5574,0.0,0.0,0.0,-5.2891,0.0,-4.832,-4.9187,-4.9187,-4.6989,-4.8105,0.0,0.0,0.0,0.0,0.0,0.0,0.0,-4.9018,-5.115,0.0,-5.1251,-5.1961,-5.1961,-5.1251,-5.1961,-5.23,-5.2334,-5.3145,-5.3518,-5.3518,-5.3518,-5.3923,-5.4566,-5.46,-5.5006,-5.5683,-5.5683,-5.5716,-5.5784,-5.6494,-5.726,-5.8106,-5.9869,-6.0676,-6.13,-6.1557,-6.2291,-6.2622,-6.2071,-6.2438,-6.2805,-6.2805,-6.2805,-6.2805,-6.2805,-6.2548,-6.2181,0.0,-6.108,-6.0456,0.0,-5.9355,-5.8988,-5.84,-5.8143,-5.7997,-5.7997,-5.774,-5.6969,-5.5647,0.0,0.0,0.0,-4.9994,-4.9701,-4.9187,-4.893,-4.8783,-4.8857,-4.9664,-4.9848,-4.9701,-5.1059,-5.1756,-5.205,-5.2601,-5.3004,-5.3225,-5.3225,-5.3225,-5.3225,-5.3225,-5.3225,-5.3188,-5.2894,-5.2821,-5.2968,-5.3775,-5.3628,-5.3335,-5.3885,-5.3628,-5.3335,-5.3885,-5.4032,-5.4216,-5.5023,-5.5207,-5.5427,-5.6235,-5.5978,-5.5757,-5.6308,-5.6418,-5.6602,-5.7152,-5.6343,0.0,0.0,0.0,-5.0934,-4.8226,-4.8342,-4.8139,0.0,-4.7699,0.0,0.0,0.0,0.0,0.0,0.0,0.0,0.0,-5.1691,0.0,-5.2773,-5.301,-5.301,-5.2773,-5.301,-5.3112,-5.3145,-5.3382,-5.3518,-5.3518,-5.3518,-5.3923,-5.4634,-5.5141,-5.5513,-5.5784,-5.6258,-5.6461,-5.6532,-5.733,-5.8081,-5.8935,-5.9391,-6.0162,-6.0713,-6.0713,-6.163,-6.2181,-6.1667,-6.2291,-6.2805,-6.2805,-6.2805,-6.2805,-6.2805,-6.2071,0.0,-6.119,-6.0419,-5.9612,-5.8804,-5.8767,-5.8547,-5.8033,-5.7997,-5.7997,-5.7997,0.0,0.0,-5.6822,-5.539,-5.3812,-5.2123,-5.1206,-5.0692,-5.0472,-5.0178,-5.0031,-5.0105,-5.0912,-5.0949,-5.0618,-5.1903,-5.2454,-5.2527,-5.3004,-5.3225,-5.3225,-5.3225,-5.3225,-5.3225,-5.3225,-5.3225,-5.3225,-5.3225,-5.3225,-5.3371,-5.4179,-5.4032,-5.3775,-5.4252,-5.4252,-5.4142,-5.4363,-5.462,-5.506,-5.5868,-5.6271,-5.6638,-5.7152,-5.6859,-5.6638,-5.7152,-5.7262,-5.7409,-5.7923,-5.6964,-5.5554,-5.3726,0.0,-5.0814,0.0,0.0,0.0,0.0,-4.8714,0.0,0.0,0.0,0.0,0.0,0.0,0.0,-5.1589,-5.2367,0.0,-5.3518,-5.3518,-5.3518,-5.3518,-5.3518,-5.3518,-5.3518,-5.3518,-5.3518,-5.3518,-5.3788,-5.4329,-5.5074,-5.5818,-5.6292,-5.6562,-5.7394,-5.7634,-5.774,-5.8616,-5.9411,-6.0219,-5.8143,-5.8731,0.0,0.0,-6.0603,0.0,-6.1594,-6.2291,-6.2805,-6.2805,-6.2805,-6.2805,-6.2805,-6.2034,-6.1227,-6.0456,0.0,0.0,0.0,-5.7997,-5.7997,-5.7997,-5.7997,-5.7997,-5.7997,-5.7997,-5.7593,-5.6712,-5.4473,-5.3702,-5.4252,-5.2013,-5.1353,-5.205,-5.1316,-5.0949,-5.0949,-5.172,-5.205,-5.205,-5.2894,-5.3225,-5.3225,-5.3225,-5.3225,-5.3225,-5.3225,-5.3225,-5.3225,-5.3225,-5.3261,-5.3298,-5.3225,-5.3298,-5.3518,-5.4216,-5.4399,-5.4399,-5.4473,-5.5023,-5.5427,-5.473,-5.517,-5.5941,-5.6712,-5.7446,-5.7997,-5.7997,-5.7997,-5.7997,-5.7997,-5.7997,-5.7997,-5.7997,-5.7279,-5.6005,-5.3797,0.0,-5.1434,0.0,0.0,0.0,0.0,-5.0744,-5.0913,0.0,0.0,0.0,0.0,0.0,-5.1589,-5.2266,-5.3078,-5.3518,-5.3518,-5.3518,-5.3518,-5.3518,-5.3518,-5.3518,-5.3518,-5.3518,-5.3518,-5.3551,-5.433,-5.5041,-5.5753,-5.6602,-5.7386,-5.8069,-5.884,-5.9178,-5.9311,-6.0149,-6.0974,-6.1784,0.0,0.0,-5.9612,-6.0823,-6.1337,-6.1594,-6.1594,-6.2291,-6.2805,-6.2805,-6.2805,-6.2805,-6.2805,-6.152,-6.0603,-6.0419,-5.9685,-5.8877,-5.8033,-5.7997,-5.7997,-5.7997,-5.7997,-5.7997,-5.7997,-5.7997,-5.7299,-5.5868,-5.5317,-5.4509,-5.3482,-5.2894,-5.2747,-5.2931,-5.2747,-5.2307,-5.1756,-5.2564,-5.2564,-5.205,-5.2894,-5.3225,-5.3225,-5.3225,-5.3225,-5.3225,-5.3225,-5.3225,-5.3225,-5.3225,-5.3628,-5.3995,-5.3408,-5.4032,-5.495,-5.4509,-5.4399,-5.4509,-5.5133,-5.5427,-5.5684,-5.6124,-5.6859,-5.7483,-5.7666,-5.785,-5.7997,-5.7997,-5.7997,-5.7997,-5.7997,-5.7997,-5.7997,-5.7997,-5.6386,-5.4758,-5.3637,-5.1859,0.0,0.0,-4.9661,-4.9864,-4.9323,-5.0439,-5.0913,0.0,0.0,0.0,0.0,-5.1961,-5.2131,-5.23,-5.3078,-5.3518,-5.3518,-5.3518,-5.3518,-5.3518,-5.3518,-5.3518,-5.3518,-5.3518,-5.3518,-5.3619,-5.4895,-5.5568,-5.5843,-5.7898,-5.878,-5.8962,-5.9812,-6.0086,-6.0211,-6.0997,-6.1795,-6.2763,-5.9134,-5.8951,-5.9061,-6.0309,-6.0823,-6.1043,-6.1043,-6.2071,-6.2695,-6.2291,-6.2585,-6.2658,-6.2291,-6.1484,-6.0639,-5.9942,-5.9134,-5.8474,-5.8033,-5.7997,-5.7997,-5.7997,-5.7997,-5.7997,-5.7997,-5.7997,-5.7373,-5.6161,-5.5757,-5.495,-5.3739,-5.3371,-5.3225,-5.3225,-5.3225,-5.3151,-5.3115,-5.3555,-5.3518,-5.3151,-5.3592,-5.3555,-5.3225,-5.3225,-5.3225,-5.3225,-5.3225,-5.3225,-5.3261,-5.3628,-5.4032,-5.4399,-5.4326,-5.4913,-5.55,-5.506,-5.5207,-5.5574,-5.6014,-5.6418,-5.6785,-5.7226,-5.7666,-5.7997,-5.7997,-5.7997,-5.7997,-5.7997,-5.7997,-5.7997,-5.7997,-5.7997,-5.7886,-5.7519,-5.5836,-5.4221,-5.3087,-5.1588,0.0,-4.9593,-5.0439,-5.0947,-5.0541,-5.1589,-5.1928,-5.115,0.0,0.0,-5.23,-5.2638,-5.2841,-5.2841,-5.3281,-5.3653,-5.3991,-5.4363,-5.4363,-5.3991,-5.3991,-5.3991,-5.3991,-5.3653,-5.4024,-5.5104,-5.5968,-5.6443,-5.6923,-5.8959,-5.9514,-5.9299,-6.0463,-6.0938,-6.1091,-6.2295,-6.3002,-6.3602,-5.8143,-5.818,-5.8474,-5.9428,-6.0126,-6.0566,-6.0566,-6.1741,-6.2365,-6.1704,-6.2108,-6.2218,-6.1667,-6.1374,-6.0676,-5.9318,-5.8474,-5.7997,-5.7997,-5.7997,-5.7997,-5.7997,-5.7997,-5.7997,-5.7997,-5.7997,-5.7593,-5.6822,-5.5978,-5.517,-5.4363,-5.3592,-5.3225,-5.3225,-5.3335,-5.3775,-5.4399,-5.4509,-5.4583,-5.4583,-5.4436,-5.3995,-5.3371,-5.3261,-5.3225,-5.3225,-5.3225,-5.3225,-5.3335,-5.4142,-5.4473,-5.4693,-5.5354,-5.5757,-5.5941,-5.5794,-5.6345,-5.6969,-5.6822,-5.7409,-5.7997,-5.7997,-5.7997,-5.7997,-5.7997,-5.7997,-5.7997,-5.7997,-5.7997,-5.7997,-5.7997,-5.7997,-5.7776,-5.7079,-5.5548,-5.3973,-5.2662,0.0,-5.0811,-5.0168,-5.1386,-5.2266,-5.2131,-5.2976,-5.3179,-5.2367,-5.3044,-5.3213,0.0,-5.3247,-5.3687,-5.3687,-5.3687,-5.4025,-5.4769,-5.5412,-5.5412,-5.4769,-5.4769,-5.4769,-5.4735,-5.4228,-5.5069,-5.6923,-5.7283,-5.7758,-5.8317,-6.0007,-6.0229,-5.9622,-6.1157,-6.177,-6.1933,-6.3518,-6.4163,-6.4494,-5.8877,-5.9024,-5.9501,-6.097,-6.1337,-6.141,-6.141,-6.163,-6.1741,-6.163,-6.1117,-6.097,-6.152,-6.0382,-5.9501,-5.9245,-5.8474,-5.7997,-5.7997,-5.7997,-5.7997,-5.7997,-5.7997,-5.7997,-5.7997,-5.7997,-5.7593,-5.6822,-5.5978,-5.517,-5.4363,-5.3592,-5.3225,-5.3225,-5.3922,-5.4289,-5.4436,-5.5133,-5.539,-5.5354,-5.4656,-5.4326,-5.4142,-5.3482,-5.3225,-5.3225,-5.3225,-5.3225,-5.3335,-5.4142,-5.484,-5.5427,-5.5537,-5.6528,-5.7483,-5.6822,-5.7189,-5.7666,-5.6969,-5.7409,-5.7997,-5.7997,-5.7997,-5.7997,-5.7997,-5.7997,-5.7997,-5.7997,-5.7997,-5.7997,-5.7997,-5.7997,-5.796,-5.7813,-5.5491,-5.3602,-5.3353,0.0,-5.0236,-5.0101,-5.1386,-5.2063,-5.1454,-5.2672,-5.3179,-5.2367,-5.3044,-5.345,-5.3315,-5.4025,-5.4431,-5.4431,-5.4431,-5.4769,-5.5547,-5.5649,-5.5649,-5.5547,-5.5547,-5.5547,-5.5547,-5.6093,-5.6586,-5.7022,-5.9064,-5.9633,-5.9293,-6.1495,-6.1922,-6.1324,-6.226,-6.2618,-6.2727,-6.3709,-6.453,-6.5264,-5.8474,-5.8547,-5.8914,-6.0089,-6.0309,-6.0309,-6.0309,-6.0676,-6.0786,-6.0382,-6.0382,-6.0382,-6.0309,-5.9648,-5.9061,-5.8584,-5.8217,-5.7997,-5.7997,-5.7997,-5.7997,-5.7997,-5.7997,-5.7813,-5.7373,-5.7336,-5.6969,-5.6161,-5.5354,-5.4987,-5.5023,-5.3775,-5.3445,-5.3849,-5.4216,-5.462,-5.5097,-5.5904,-5.6235,-5.6161,-5.5354,-5.4803,-5.4326,-5.3518,-5.3225,-5.3225,-5.3225,-5.3225,-5.3335,-5.4142,-5.4913,-5.5684,-5.6088,-5.7042,-5.7923,-5.7556,-5.7703,-5.7923,-5.7556,-5.7703,-5.7997,-5.7997,-5.7997,-5.7997,-5.7997,-5.7997,-5.7997,-5.7997,-5.7997,-5.7997,-5.7997,-5.7997,-5.785,-5.7409,-5.5563,0.0,0.0,-5.2175,-5.1285,-5.1285,-5.2266,-5.2807,-5.2469,-5.345,-5.3754,-5.301,-5.4025,-5.4532,-5.4126,-5.4803,-5.5209,-5.5209,-5.5581,-5.5953,-5.6292,-5.6697,-5.6697,-5.6292,-5.6292,-5.6539,-5.6952,-5.6936,-5.7849,-5.9479,-6.0228,-6.0503,-6.0666,-6.2135,-6.2603,-6.2291,-6.2654,-6.3099,-6.3613,-6.4457,-6.4971,-6.5485,-5.7997,-5.8143,-5.8474,-5.9098,-5.9355,-5.9428,-5.9245,-5.9722,-5.9905,-5.9281,-5.9575,-5.9685,-5.9281,-5.9061,-5.8694,-5.8033,-5.7997,-5.7997,-5.7997,-5.7997,-5.7997,-5.7997,-5.7813,-5.7336,-5.6528,-5.6528,-5.6308,-5.5868,-5.506,-5.5097,-5.5831,-5.4436,-5.4106,-5.4693,-5.4876,-5.5207,-5.5647,-5.6455,-5.6822,-5.6748,-5.5904,-5.5317,-5.4876,-5.4069,-5.3665,-5.3482,-5.3482,-5.3371,-5.3371,-5.4326,-5.5097,-5.5757,-5.6785,-5.7483,-5.7997,-5.7997,-5.7997,-5.7997,-5.7997,-5.7997,-5.7997,-5.7997,-5.7997,-5.7997,-5.7997,-5.7997,-5.7997,-5.7997,-5.8143,-5.829,-5.829,-5.829,-5.807,-5.7483,0.0,0.0,0.0,-5.3038,-5.257,-5.257,-5.345,-5.4025,-5.4025,-5.4532,-5.4634,-5.4059,-5.5074,-5.5516,-5.5179,-5.586,-5.6405,-5.6782,-5.6775,-5.6867,-5.7036,-5.7611,-5.7722,-5.7358,-5.7358,-5.7775,-5.8572,-5.8136,-5.9289,-6.1568,-6.1426,-6.1516,-6.1951,-6.3006,-6.3158,-6.2876,-6.3225,-6.3686,-6.42,-6.5228,-6.5595,-6.5778,-5.7997,-5.8621,-5.9134,-5.9208,-5.9832,-6.0052,-5.9318,-5.9281,-5.9281,-5.9208,-5.8621,-5.8437,-5.9134,-5.8547,-5.807,-5.7997,-5.7997,-5.7997,-5.7997,-5.7997,-5.7997,-5.7997,-5.7299,-5.6528,-5.5684,-5.5684,-5.6014,-5.6712,-5.5904,-5.5904,-5.6712,-5.5831,-5.5427,-5.5537,-5.6308,-5.6235,-5.5647,-5.6455,-5.6822,-5.6748,-5.5904,-5.6014,-5.6565,-5.5721,-5.495,-5.4326,-5.4326,-5.3849,-5.3445,-5.4987,-5.5537,-5.5868,-5.7409,-5.796,-5.7997,-5.7997,-5.7997,-5.7997,-5.7997,-5.7997,-5.7997,-5.7997,-5.7997,-5.7997,-5.7997,-5.7997,-5.7997,-5.7997,-5.8584,-5.9134,-5.9134,-5.9134,-5.9098,-5.9061,0.0,0.0,-5.4504,-5.3867,-5.3416,-5.3416,-5.4668,-5.5547,-5.5547,-5.5615,-5.5615,-5.5547,-5.5649,-5.5962,-5.6725,-5.7452,-5.8507,-6.0035,-5.7947,-5.7137,-5.7814,-5.7848,-5.8212,-5.8907,-5.8907,-5.9338,-6.0264,-6.0912,-6.1348,-6.1696,-6.3142,-6.3415,-6.2815,-6.4442,-6.4185,-6.2925,-6.4479,-6.4714,-6.4273,-6.5852,-6.6402,-6.6549,-5.7997,-5.8253,-5.8474,-5.8474,-5.8694,-5.8804,-5.851,-5.8474,-5.8474,-5.8474,-5.818,-5.8107,-5.8437,-5.818,-5.7997,-5.7997,-5.7997,-5.7997,-5.7997,-5.7997,-5.7997,-5.7997,-5.7226,-5.6418,-5.5611,-5.5097,-5.5244,-5.6051,-5.5244,-5.5794,-5.7483,-5.5684,-5.5097,-5.5574,-5.539,-5.5427,-5.5611,-5.5941,-5.6638,-5.7446,-5.6124,-5.6088,-5.6712,-5.5904,-5.539,-5.5133,-5.5133,-5.462,-5.4106,-5.5207,-5.5574,-5.5794,-5.6895,-5.7277,-5.7351,-5.7351,-5.7351,-5.7401,-5.7904,-5.7997,-5.7997,-5.7997,-5.7997,-5.7997,-5.7997,-5.7997,-5.8143,-5.8657,-5.8988,-5.9355,-5.9869,-5.9942,-5.9942,-5.9942,0.0,-5.7369,-5.6865,-5.6133,-5.5446,-5.494,-5.5378,-5.5716,-5.5716,-5.6122,-5.619,-5.575,-5.7021,-5.7773,-5.7586,-5.88,-6.0016,-6.1105,-6.0253,-5.9927,-6.0206,-5.9687,-5.9818,-6.0663,-6.0663,-6.1105,-6.1924,-6.2717,-6.3401,-6.3945,-6.4574,-6.4677,-6.442,-6.5044,-6.5228,-6.5118,-6.5264,-6.5411,-6.5668,-6.6256,-6.6512,-6.6623,-5.7997,-5.7997,-5.7997,-5.7997,-5.7997,-5.7997,-5.7997,-5.7997,-5.7997,-5.7997,-5.7997,-5.7997,-5.7997,-5.7997,-5.7997,-5.7997,-5.7997,-5.7997,-5.7997,-5.7997,-5.7886,-5.7629,-5.7079,-5.6308,-5.5244,-5.4693,-5.4656,-5.5207,-5.4656,-5.539,-5.7189,-5.5537,-5.506,-5.5574,-5.5023,-5.506,-5.5574,-5.5574,-5.6381,-5.7519,-5.6418,-5.6455,-5.7116,-5.6565,-5.6198,-5.5978,-5.5978,-5.5464,-5.4833,-5.5423,-5.5806,-5.6043,-5.6357,-5.6494,-5.6563,-5.6861,-5.6912,-5.7065,-5.7774,-5.818,-5.8327,-5.807,-5.818,-5.84,-5.84,-5.8584,-5.8914,-5.9465,-5.9795,-6.0126,-6.0676,-6.097,-6.1153,-6.1153,-6.0284,-5.9445,-5.8899,-5.7875,-5.7089,-5.6815,-5.6746,-5.6884,-5.7123,-5.7878,-5.8084,-5.7569,-5.9245,-6.0054,-5.9538,-6.1081,-6.2103,-6.2354,-6.2605,-6.2856,-6.3107,-6.1839,-6.1326,-6.164,-6.2103,-6.2664,-6.3202,-6.4056,-6.4713,-6.5301,-6.5595,-6.5521,-6.5338,-6.5852,-6.6072,-6.6109,-6.6072,-6.6256,-6.6512,-6.6769,-6.688,-6.6953,-5.7997,-5.7997,-5.7997,-5.7997,-5.7997,-5.7997,-5.7997,-5.7997,-5.7997,-5.7997,-5.7997,-5.7997,-5.7997,-5.7997,-5.7997,-5.7997,-5.7997,-5.7997,-5.7997,-5.7997,-5.7629,-5.6859,-5.6822,-5.6051,-5.4436,-5.4399,-5.4399,-5.4399,-5.4399,-5.4803,-5.5574,-5.5574,-5.5574,-5.5574,-5.5574,-5.5574,-5.5574,-5.5574,-5.6051,-5.6822,-5.6822,-5.7299,-5.7997,-5.7997,-5.7483,-5.6822,-5.6822,-5.6308,-5.5632,-5.5667,-5.62,-5.6666,-5.5919,-5.5724,-5.5893,-5.6668,-5.6912,-5.7065,-5.781,-5.8621,-5.9024,-5.8217,-5.8621,-5.9208,-5.9208,-5.9832,-6.0419,-6.0419,-6.1043,-6.1594,-6.163,-6.2291,-6.2805,-6.2842,-6.1436,-6.0432,-6.0432,-5.8977,-5.8209,-5.9011,-5.9111,-5.9443,-6.0273,-6.1105,-6.1628,-6.1628,-6.2336,-6.2816,-6.2831,-6.442,-6.4934,-6.4127,-6.4897,-6.5705,-6.6476,-6.4052,-6.2414,-6.164,-6.3285,-6.4075,-6.4127,-6.4971,-6.5338,-6.5375,-6.6145,-6.6072,-6.5448,-6.7026,-6.6769,-6.5485,-6.7063,-6.721,-6.6623,-6.7393,-6.7687,-6.7687,-5.7997,-5.7997,-5.7997,-5.7997,-5.7997,-5.7997,-5.7997,-5.7997,-5.7997,-5.7997,-5.7997,-5.7997,-5.7997,-5.7997,-5.7997,-5.7997,-5.7997,-5.7997,-5.7997,-5.7997,-5.7886,-5.7666,-5.7116,-5.6602,-5.6088,-5.4987,-5.4693,-5.5244,-5.4693,-5.4803,-5.5574,-5.5023,-5.4766,-5.473,-5.4179,-5.4216,-5.4766,-5.4766,-5.5537,-5.6822,-5.6822,-5.7299,-5.7997,-5.7997,-5.785,-5.7629,-5.7629,-5.7116,-5.6475,-5.65,-5.6673,-5.6666,-5.5919,-5.6059,-5.6582,-5.6847,-5.7299,-5.8006,-5.931,-5.9869,-5.9869,-5.9061,-5.9465,-6.0052,-6.0052,-6.0236,-6.0566,-6.1117,-6.141,-6.1961,-6.3135,-6.3539,-6.3906,-6.4457,-6.3582,-6.2641,-6.2053,-6.1541,-6.0904,-6.008,-6.0508,-6.0748,-6.0406,-6.1105,-6.1628,-6.1628,-6.2892,-6.3935,-6.4493,-6.505,-6.5448,-6.5778,-6.6035,-6.6256,-6.6512,-6.5205,-6.4694,-6.5021,-6.5496,-6.575,-6.5815,-6.6623,-6.699,-6.699,-6.7247,-6.721,-6.7026,-6.7504,-6.7393,-6.7026,-6.7504,-6.754,-6.7357,-6.7614,-6.7687,-6.7687,-5.795,-5.7997,-5.7997,-5.7997,-5.7997,-5.7997,-5.7997,-5.7997,-5.7997,-5.7997,-5.7997,-5.7997,-5.7997,-5.7997,-5.7997,-5.7997,-5.7997,-5.785,-5.7556,-5.7813,-5.785,-5.7556,-5.7079,-5.6822,-5.6822,-5.5868,-5.528,-5.5133,-5.462,-5.4473,-5.462,-5.4142,-5.3922,-5.3922,-5.3445,-5.3812,-5.4876,-5.4876,-5.5794,-5.7262,-5.7262,-5.7556,-5.7997,-5.7997,-5.7997,-5.7997,-5.7997,-5.7703,-5.7244,-5.6971,-5.6689,-5.6277,-5.5861,-5.6004,-5.6456,-5.6816,-5.7457,-5.844,-5.9969,-6.0639,-6.075,-6.0272,-6.0529,-6.086,-6.086,-6.1117,-6.1484,-6.1961,-6.2071,-6.2475,-6.3833,-6.4347,-6.4824,-6.5632,-6.5238,-6.4711,-6.4224,-6.3626,-6.2917,-6.2264,-6.2453,-6.2523,-6.2386,-6.3033,-6.3667,-6.3991,-6.4903,-6.5569,-6.5726,-6.6072,-6.6329,-6.6476,-6.6806,-6.6953,-6.6953,-6.6476,-6.6182,-6.6035,-6.6659,-6.6806,-6.6512,-6.732,-6.7687,-6.7687,-6.7687,-6.7687,-6.7687,-6.7687,-6.7687,-6.7687,-6.7687,-6.7687,-6.7687,-6.7687,-6.7687,-6.7687,-5.7774,-5.7904,-5.7904,-5.7904,-5.795,-5.7997,-5.7997,-5.7997,-5.7997,-5.7997,-5.7997,-5.796,-5.7886,-5.796,-5.796,-5.7886,-5.796,-5.7666,-5.6859,-5.7483,-5.7519,-5.6748,-5.6712,-5.6712,-5.6712,-5.6712,-5.6014,-5.462,-5.4473,-5.4032,-5.3335,-5.3225,-5.3225,-5.3225,-5.3298,-5.4069,-5.539,-5.5611,-5.6492,-5.7776,-5.7923,-5.7997,-5.7997,-5.7997,-5.7997,-5.7997,-5.7997,-5.7997,-5.7904,-5.7216,-5.6474,-5.5836,-5.5836,-5.5872,-5.6141,-5.6922,-5.7746,-5.8725,-6.0237,-6.1153,-6.1704,-6.1704,-6.1704,-6.1704,-6.1704,-6.2291,-6.2842,-6.2915,-6.2915,-6.3209,-6.4127,-6.4897,-6.5668,-6.6476,-6.6494,-6.6404,-6.6404,-6.501,-6.4258,-6.4986,-6.4491,-6.4436,-6.5249,-6.6035,-6.6843,-6.7614,-6.7687,-6.7357,-6.6659,-6.7283,-6.7357,-6.6623,-6.732,-6.7687,-6.7687,-6.7687,-6.6953,-6.5521,-6.699,-6.732,-6.6623,-6.7357,-6.7687,-6.7687,-6.7687,-6.7687,-6.7687,-6.7687,-6.7687,-6.7687,-6.7687,-6.7687,-6.7687,-6.7687,-6.7687,-6.7687,-5.7015,-5.7116,-5.7116,-5.7116,-5.7631,-5.7997,-5.7997,-5.7997,-5.7997,-5.7997,-5.7997,-5.7776,-5.7152,-5.7629,-5.774,-5.7116,-5.7629,-5.7666,-5.6859,-5.6969,-5.6712,-5.5904,-5.5868,-5.5868,-5.5868,-5.5868,-5.5978,-5.6271,-5.5023,-5.4326,-5.4142,-5.3482,-5.3225,-5.3225,-5.3849,-5.3995,-5.3849,-5.5757,-5.6381,-5.6235,-5.7483,-5.7997,-5.7997,-5.7997,-5.7997,-5.7997,-5.7997,-5.7997,-5.7997,-5.7821,-5.7266,-5.6616,-5.6616,-5.75,-5.8492,-5.8753,-5.9756,-6.108,-6.2022,-6.2438,-6.2548,-6.2548,-6.2548,-6.2548,-6.2548,-6.2695,-6.2989,-6.3686,-6.3796,-6.4273,-6.5705,-6.6109,-6.6512,-6.7283,-6.6858,-6.6404,-6.6404,-6.5475,-6.4863,-6.5058,-6.496,-6.496,-6.5233,-6.6035,-6.6843,-6.7614,-6.7687,-6.7614,-6.743,-6.7614,-6.7614,-6.743,-6.7614,-6.7687,-6.7687,-6.7687,-6.7504,-6.7173,-6.7504,-6.7614,-6.743,-6.7614,-6.7687,-6.7687,-6.7687,-6.7687,-6.7687,-6.7687,-6.7687,-6.7687,-6.7687,-6.7687,-6.7687,-6.7687,-6.7687,-6.7687,-5.5633,-5.6417,-5.6912,-5.6912,-5.7498,-5.7997,-5.7997,-5.7997,-5.7997,-5.7997,-5.7997,-5.785,-5.7409,-5.774,-5.7813,-5.7409,-5.7409,-5.7079,-5.6271,-5.6235,-5.5868,-5.506,-5.5023,-5.5207,-5.5574,-5.5574,-5.5794,-5.6235,-5.539,-5.4766,-5.4363,-5.3592,-5.3225,-5.3225,-5.3665,-5.4032,-5.4436,-5.5684,-5.6418,-5.6822,-5.7666,-5.7774,-5.7498,-5.7904,-5.7774,-5.7498,-5.7867,-5.7997,-5.7997,-5.7997,-5.7726,-5.7351,-5.7015,-5.7946,-5.9212,-5.9305,-6.0362,-6.1777,-6.2585,-6.2805,-6.2805,-6.2805,-6.2805,-6.2805,-6.2805,-6.3135,-6.3539,-6.4016,-6.442,-6.5044,-6.6256,-6.6512,-6.6769,-6.7577,-6.7286,-6.6852,-6.6464,-6.5966,-6.5538,-6.5073,-6.5037,-6.5298,-6.5767,-6.6555,-6.7247,-6.765,-6.7687,-6.7687,-6.7687,-6.7687,-6.7687,-6.7687,-6.7687,-6.7687,-6.7687,-6.8091,-6.8274,-6.8274,-6.8274,-6.8274,-6.8274,-6.8274,-6.8458,-6.8788,-6.8017,-6.7907,-6.8238,-6.7834,-6.7687,-6.7687,-6.7687,-6.7687,-6.7687,-6.7687,-6.7687,-6.7687,-5.4275,-5.5633,-5.6668,-5.6668,-5.7449,-5.7997,-5.7997,-5.7886,-5.785,-5.796,-5.7886,-5.7776,-5.7776,-5.7666,-5.751,-5.7418,-5.6942,-5.6283,-5.5477,-5.544,-5.5119,-5.4436,-5.4289,-5.4509,-5.517,-5.5317,-5.5537,-5.5794,-5.5647,-5.5244,-5.4583,-5.3665,-5.3225,-5.3225,-5.3335,-5.4142,-5.539,-5.5684,-5.6565,-5.7813,-5.7831,-5.7498,-5.7116,-5.7498,-5.7315,-5.6964,-5.7594,-5.7867,-5.7997,-5.7997,-5.7997,-5.7904,-5.7447,-5.8263,-5.9443,-5.9626,-6.0719,-6.1961,-6.2622,-6.2805,-6.2805,-6.2805,-6.2805,-6.2842,-6.2989,-6.3576,-6.4163,-6.4457,-6.5044,-6.5742,-6.6549,-6.6696,-6.6916,-6.7577,-6.7687,-6.7433,-6.6523,-6.6247,-6.5842,-6.5065,-6.5237,-6.5697,-6.6344,-6.7429,-6.8054,-6.7907,-6.7907,-6.7907,-6.7907,-6.776,-6.776,-6.7907,-6.7907,-6.7944,-6.8091,-6.8752,-6.9119,-6.9119,-6.9265,-6.9229,-6.9119,-6.9119,-6.9486,-7.0,-6.8531,-6.8274,-6.8862,-6.8017,-6.7687,-6.7687,-6.7687,-6.7687,-6.7687,-6.7687,-6.7687,-6.7687,-5.3463,-5.4851,-5.5836,-5.5836,-5.7029,-5.7997,-5.7997,-5.7409,-5.7226,-5.7923,-5.7409,-5.6969,-5.6969,-5.6345,-5.5688,-5.5136,-5.5546,-5.5546,-5.4749,-5.4713,-5.4542,-5.4436,-5.3739,-5.3408,-5.3518,-5.4216,-5.5244,-5.6638,-5.5941,-5.5537,-5.539,-5.3922,-5.3225,-5.3225,-5.3922,-5.4363,-5.4656,-5.6051,-5.6748,-5.696,-5.7011,-5.7351,-5.7726,-5.6438,-5.6367,-5.6912,-5.7015,-5.7449,-5.7997,-5.7997,-5.7997,-5.8107,-5.871,-5.948,-6.0382,-6.1092,-6.1948,-6.2658,-6.2768,-6.2805,-6.2805,-6.2805,-6.2805,-6.3025,-6.3759,-6.4016,-6.4494,-6.5888,-6.6256,-6.6586,-6.7393,-6.754,-6.7577,-6.765,-6.7687,-6.7433,-6.6523,-6.5681,-6.5131,-6.4999,-6.6352,-6.7004,-6.6476,-6.8414,-6.9486,-6.8788,-6.8752,-6.8752,-6.8752,-6.8091,-6.8017,-6.8715,-6.8752,-6.9082,-6.9779,-6.9889,-6.9926,-6.9963,-7.066,-7.0624,-6.9926,-6.9926,-7.0,-7.0036,-6.9119,-6.8788,-6.8862,-6.8017,-6.7687,-6.7687,-6.7687,-6.7687,-6.7687,-6.7687,-6.7687,-6.7687,-5.277,-5.4388,-5.583,-5.6295,-5.6903,-5.7336,-5.7336,-5.6638,-5.6145,-5.6066,-5.6127,-5.5862,-5.5036,-5.4661,-5.4295,-5.4041,-5.4223,-5.445,-5.4567,-5.4567,-5.4665,-5.506,-5.4289,-5.3885,-5.3885,-5.4216,-5.495,-5.6124,-5.5757,-5.5574,-5.5574,-5.4399,-5.3628,-5.3225,-5.3592,-5.4216,-5.5097,-5.5831,-5.6638,-5.7437,-5.7485,-5.7216,-5.6685,-5.6474,-5.6039,-5.5759,-5.6563,-5.7401,-5.7997,-5.7997,-5.7997,-5.8143,-5.8951,-5.9758,-6.0566,-6.1374,-6.2181,-6.2805,-6.2805,-6.2805,-6.2805,-6.2805,-6.2805,-6.3172,-6.4457,-6.4787,-6.5118,-6.6256,-6.6843,-6.7283,-6.7614,-6.732,-6.7173,-6.7614,-6.732,-6.6719,-6.577,-6.5261,-6.4665,-6.3612,-6.5505,-6.6653,-6.6332,-6.8582,-6.9779,-6.8972,-6.8898,-6.8715,-6.8238,-6.8311,-6.8531,-6.8898,-6.9339,-6.9743,-7.011,-7.055,-7.077,-7.077,-7.1615,-7.1541,-7.077,-7.077,-7.1027,-7.1358,-6.9633,-6.9155,-6.9486,-6.8201,-6.7687,-6.7687,-6.7687,-6.7687,-6.7687,-6.7687,-6.7687,-6.7687]}]]